[[{"header":{"parameterUnit":"m.s-1","parameterCategory":1,"la1":30.6,"la2":28.766,"lo1":-90.7593,"lo2":-88.6598,"dy":0.0162,"dx":0.0183,"nx":116,"ny":114,"refTime":"2023-03-14T18:00:00:Z","depth":0,"parameterNumber":2,"parameterNumberName":"U-component_of_WINDS"},"data":[0.0,0.0,0.0,0.0,0.0,0.0,0.0,0.0,0.0,0.0,0.0,0.0,0.0,0.0,0.0,0.0,0.0,0.0,0.0,0.0,0.0,0.0,0.0,0.0,0.0,0.0,0.0,0.0,0.0,0.0,0.0,0.0,0.0,0.0,0.0,0.0,0.0,0.0,0.0,0.0,0.0,0.0,0.0,0.0,0.0,0.0,0.0,0.0,0.0,0.0,0.0,0.0,0.0,0.0,0.0,0.0,0.0,0.0,0.0,0.0,0.0,0.0,0.0,0.0,0.0,0.0,0.0,0.0,0.0,0.0,0.0,0.0,0.0,0.0,0.0,0.0,0.0,0.0,0.0,0.0,0.0,0.0,0.0,0.0,0.0,0.0,0.0,0.0,0.0,0.0,0.0,0.0,0.0,0.0,0.0,0.0,0.0,0.0,0.0,0.0,0.0,0.0,0.0,0.0,0.0,0.0,0.0,0.0,0.0,0.0,0.0,0.0,0.0,0.0,0.0,0.0,0.0,0.0,0.0,0.0,0.0,0.0,0.0,0.0,0.0,0.0,0.0,0.0,0.0,0.0,0.0,0.0,0.0,0.0,0.0,0.0,0.0,0.0,0.0,0.0,0.0,0.0,0.0,0.0,0.0,0.0,0.0,0.0,0.0,0.0,0.0,0.0,0.0,0.0,0.0,0.0,0.0,0.0,0.0,0.0,0.0,0.0,0.0,0.0,0.0,0.0,0.0,0.0,0.0,0.0,0.0,0.0,0.0,0.0,0.0,0.0,0.0,0.0,0.0,0.0,0.0,0.0,0.0,0.0,0.0,0.0,0.0,0.0,0.0,0.0,0.0,0.0,0.0,0.0,0.0,0.0,0.0,0.0,0.0,0.0,0.0,0.0,0.0,0.0,0.0,0.0,0.0,0.0,0.0,0.0,0.0,0.0,0.0,0.0,0.0,0.0,0.0,0.0,0.0,0.0,0.0,0.0,0.0,0.0,0.0,0.0,0.0,0.0,0.0,0.0,0.0,0.0,0.0,0.0,0.0,0.0,0.0,0.0,0.0,0.0,0.0,0.0,0.0,0.0,0.0,0.0,0.0,0.0,0.0,0.0,0.0,0.0,0.0,0.0,0.0,0.0,0.0,0.0,0.0,0.0,0.0,0.0,0.0,0.0,0.0,0.0,0.0,0.0,0.0,0.0,0.0,0.0,0.0,0.0,0.0,0.0,0.0,0.0,0.0,0.0,0.0,0.0,0.0,0.0,0.0,0.0,0.0,0.0,0.0,0.0,0.0,0.0,0.0,0.0,0.0,0.0,0.0,0.0,0.0,0.0,0.0,0.0,0.0,0.0,0.0,0.0,0.0,0.0,0.0,0.0,0.0,0.0,0.0,0.0,0.0,0.0,0.0,0.0,0.0,0.0,0.0,0.0,0.0,0.0,0.0,0.0,0.0,0.0,0.0,0.0,0.0,0.0,0.0,0.0,0.0,0.0,0.0,0.0,0.0,0.0,0.0,0.0,0.0,0.0,0.0,0.0,0.0,0.0,0.0,0.0,0.0,0.0,0.0,0.0,0.0,0.0,0.0,0.0,0.0,0.0,0.0,0.0,0.0,0.0,0.0,0.0,0.0,0.0,0.0,0.0,0.0,0.0,0.0,0.0,0.0,0.0,0.0,0.0,0.0,0.0,0.0,0.0,0.0,0.0,0.0,0.0,0.0,0.0,0.0,0.0,0.0,0.0,0.0,0.0,0.0,0.0,0.0,0.0,0.0,0.0,0.0,0.0,0.0,0.0,0.0,0.0,0.0,0.0,0.0,0.0,0.0,0.0,0.0,0.0,0.0,0.0,0.0,0.0,0.0,0.0,0.0,0.0,0.0,0.0,0.0,0.0,0.0,0.0,0.0,0.0,0.0,0.0,0.0,0.0,0.0,0.0,0.0,0.0,0.0,0.0,0.0,0.0,0.0,0.0,0.0,0.0,0.0,0.0,0.0,0.0,0.0,0.0,0.0,0.0,0.0,0.0,0.0,0.0,0.0,0.0,0.0,0.0,0.0,0.0,0.0,0.0,0.0,0.0,0.0,0.0,0.0,0.0,0.0,0.0,0.0,0.0,0.0,0.0,0.0,0.0,0.0,0.0,0.0,0.0,0.0,0.0,0.0,0.0,0.0,0.0,0.0,0.0,0.0,0.0,0.0,0.0,0.0,0.0,0.0,0.0,0.0,0.0,0.0,0.0,0.0,0.0,0.0,0.0,0.0,0.0,0.0,0.0,0.0,0.0,0.0,0.0,0.0,0.0,0.0,0.0,0.0,0.0,0.0,0.0,0.0,0.0,0.0,0.0,0.0,0.0,0.0,0.0,0.0,0.0,0.0,0.0,0.0,0.0,0.0,0.0,0.0,0.0,0.0,0.0,0.0,0.0,0.0,0.0,0.0,0.0,0.0,0.0,0.0,0.0,0.0,0.0,0.0,0.0,0.0,0.0,0.0,0.0,0.0,0.0,0.0,0.0,0.0,0.0,0.0,0.0,0.0,0.0,0.0,0.0,0.0,0.0,0.0,0.0,0.0,0.0,0.0,0.0,0.0,0.0,0.0,0.0,0.0,0.0,0.0,0.0,0.0,0.0,0.0,0.0,0.0,0.0,0.0,0.0,0.0,0.0,0.0,0.0,0.0,0.0,0.0,0.0,0.0,0.0,0.0,0.0,0.0,0.0,0.0,0.0,0.0,0.0,0.0,0.0,0.0,0.0,0.0,0.0,0.0,0.0,0.0,0.0,0.0,0.0,0.0,0.0,0.0,0.0,0.0,0.0,0.0,0.0,0.0,0.0,0.0,0.0,0.0,0.0,0.0,0.0,0.0,0.0,0.0,0.0,0.0,0.0,0.0,0.0,0.0,0.0,0.0,0.0,0.0,0.0,0.0,0.0,0.0,0.0,0.0,0.0,0.0,0.0,0.0,0.0,0.0,0.0,0.0,0.0,0.0,0.0,0.0,0.0,0.0,0.0,0.0,0.0,0.0,0.0,0.0,0.0,0.0,0.0,0.0,0.0,0.0,0.0,0.0,0.0,0.0,0.0,0.0,0.0,0.0,0.0,0.0,0.0,0.0,0.0,0.0,0.0,0.0,0.0,0.0,0.0,0.0,0.0,0.0,0.0,0.0,0.0,0.0,0.0,0.0,0.0,0.0,0.0,0.0,0.0,0.0,0.0,0.0,0.0,0.0,0.0,0.0,0.0,0.0,0.0,0.0,0.0,0.0,0.0,0.0,0.0,0.0,0.0,0.0,0.0,0.0,0.0,0.0,0.0,0.0,0.0,0.0,0.0,0.0,0.0,0.0,0.0,0.0,0.0,0.0,0.0,0.0,0.0,0.0,0.0,0.0,0.0,0.0,0.0,0.0,0.0,0.0,0.0,0.0,0.0,0.0,0.0,0.0,0.0,0.0,0.0,0.0,0.0,0.0,0.0,0.0,0.0,0.0,0.0,0.0,0.0,0.0,0.0,0.0,0.0,0.0,0.0,0.0,0.0,0.0,0.0,0.0,0.0,0.0,0.0,0.0,0.0,0.0,0.0,0.0,0.0,0.0,0.0,0.0,0.0,0.0,0.0,0.0,0.0,0.0,0.0,0.0,0.0,0.0,0.0,0.0,0.0,0.0,0.0,0.0,0.0,0.0,0.0,0.0,0.0,0.0,0.0,0.0,0.0,0.0,0.0,0.0,0.0,0.0,0.0,0.0,0.0,0.0,0.0,0.0,0.0,0.0,0.0,0.0,0.0,0.0,0.0,0.0,0.0,0.0,0.0,0.0,0.0,0.0,0.0,0.0,0.0,0.0,0.0,0.0,0.0,0.0,0.0,0.0,0.0,0.0,0.0,0.0,0.0,0.0,0.0,0.0,0.0,0.0,0.0,0.0,0.0,0.0,0.0,0.0,0.0,0.0,0.0,0.0,0.0,0.0,0.0,0.0,0.0,0.0,0.0,0.0,0.0,0.0,0.0,0.0,0.0,0.0,0.0,0.0,0.0,0.0,0.0,0.0,0.0,0.0,0.0,0.0,0.0,0.0,0.0,0.0,0.0,0.0,0.0,0.0,0.0,0.0,0.0,0.0,0.0,0.0,0.0,0.0,0.0,0.0,0.0,0.0,0.0,0.0,0.0,0.0,0.0,0.0,0.0,0.0,0.0,0.0,0.0,0.0,0.0,0.0,0.0,0.0,0.0,0.0,0.0,0.0,0.0,0.0,0.0,0.0,0.0,0.0,0.0,0.0,0.0,0.0,0.0,0.0,0.0,0.0,0.0,0.0,0.0,0.0,0.0,0.0,0.0,0.0,0.0,0.0,0.0,0.0,0.0,0.0,0.0,0.0,0.0,0.0,0.0,0.0,0.0,0.0,0.0,0.0,0.0,0.0,0.0,0.0,0.0,0.0,0.0,0.0,0.0,0.0,0.0,0.0,0.0,0.0,0.0,0.0,0.0,0.0,0.0,0.0,0.0,0.0,0.0,0.0,0.0,0.0,0.0,0.0,0.0,0.0,0.0,0.0,0.0,0.0,0.0,0.0,0.0,0.0,0.0,0.0,0.0,0.0,0.0,0.0,0.0,0.0,0.0,0.0,0.0,0.0,0.0,0.0,0.0,0.0,0.0,0.0,0.0,0.0,0.0,0.0,0.0,0.0,0.0,0.0,0.0,0.0,0.0,0.0,0.0,0.0,0.0,0.0,0.0,0.0,0.0,0.0,0.0,0.0,0.0,0.0,0.0,0.0,0.0,0.0,0.0,0.0,0.0,0.0,0.0,0.0,0.0,0.0,0.0,0.0,0.0,0.0,0.0,0.0,0.0,0.0,0.0,0.0,0.0,0.0,0.0,0.0,0.0,0.0,0.0,0.0,0.0,0.0,0.0,0.0,0.0,0.0,0.0,0.0,0.0,0.0,0.0,0.0,0.0,0.0,0.0,0.0,0.0,0.0,0.0,0.0,0.0,0.0,0.0,0.0,0.0,0.0,0.0,0.0,0.0,0.0,0.0,0.0,0.0,0.0,0.0,0.0,0.0,0.0,0.0,0.0,0.0,0.0,0.0,0.0,0.0,0.0,0.0,0.0,0.0,0.0,0.0,0.0,0.0,0.0,0.0,0.0,0.0,0.0,0.0,0.0,0.0,0.0,0.0,0.0,0.0,0.0,0.0,0.0,0.0,0.0,0.0,0.0,0.0,0.0,0.0,0.0,0.0,0.0,0.0,0.0,0.0,0.0,0.0,0.0,0.0,0.0,0.0,0.0,0.0,0.0,0.0,0.0,0.0,0.0,0.0,0.0,0.0,0.0,0.0,0.0,0.0,0.0,0.0,0.0,0.0,0.0,0.0,0.0,0.0,0.0,0.0,0.0,0.0,0.0,0.0,0.0,0.0,0.0,0.0,0.0,0.0,0.0,0.0,0.0,0.0,0.0,0.0,0.0,0.0,0.0,0.0,0.0,0.0,0.0,0.0,0.0,0.0,0.0,0.0,0.0,0.0,0.0,0.0,0.0,0.0,0.0,0.0,0.0,0.0,0.0,0.0,0.0,0.0,0.0,0.0,0.0,0.0,0.0,0.0,0.0,0.0,0.0,0.0,0.0,0.0,0.0,0.0,0.0,0.0,0.0,0.0,0.0,0.0,0.0,0.0,0.0,0.0,0.0,0.0,0.0,0.0,0.0,0.0,0.0,0.0,0.0,0.0,0.0,0.0,0.0,0.0,0.0,0.0,0.0,0.0,0.0,0.0,0.0,0.0,0.0,0.0,0.0,0.0,0.0,0.0,0.0,0.0,0.0,0.0,0.0,0.0,0.0,0.0,0.0,0.0,0.0,0.0,0.0,0.0,0.0,0.0,0.0,0.0,0.0,0.0,0.0,0.0,0.0,0.0,0.0,0.0,0.0,0.0,0.0,0.0,0.0,0.0,0.0,0.0,0.0,0.0,0.0,0.0,0.0,0.0,0.0,0.0,0.0,0.0,0.0,0.0,0.0,0.0,0.0,0.0,0.0,0.0,0.0,0.0,0.0,0.0,0.0,0.0,0.0,0.0,0.0,0.0,0.0,0.0,0.0,0.0,0.0,0.0,0.0,0.0,0.0,0.0,4.6376,4.5525,0.0,0.0,0.0,0.0,0.0,0.0,0.0,0.0,0.0,0.0,0.0,0.0,0.0,0.0,0.0,0.0,0.0,0.0,0.0,0.0,0.0,0.0,0.0,0.0,0.0,0.0,0.0,0.0,0.0,0.0,0.0,0.0,0.0,0.0,0.0,0.0,0.0,0.0,0.0,0.0,0.0,0.0,0.0,0.0,0.0,0.0,0.0,0.0,0.0,0.0,0.0,0.0,0.0,0.0,0.0,0.0,0.0,0.0,0.0,0.0,0.0,0.0,0.0,0.0,0.0,0.0,0.0,0.0,0.0,0.0,0.0,0.0,0.0,0.0,0.0,0.0,0.0,0.0,0.0,0.0,0.0,0.0,0.0,0.0,0.0,0.0,0.0,0.0,0.0,0.0,0.0,0.0,0.0,0.0,0.0,0.0,0.0,0.0,0.0,0.0,0.0,0.0,0.0,0.0,0.0,0.0,0.0,0.0,0.0,0.0,0.0,0.0,0.0,0.0,4.7462,4.6638,0.0,0.0,0.0,0.0,0.0,0.0,0.0,0.0,0.0,0.0,0.0,0.0,0.0,0.0,0.0,0.0,0.0,0.0,0.0,0.0,0.0,0.0,0.0,0.0,0.0,0.0,0.0,0.0,0.0,0.0,0.0,0.0,0.0,0.0,0.0,0.0,0.0,0.0,0.0,0.0,0.0,0.0,0.0,0.0,0.0,0.0,0.0,0.0,0.0,0.0,0.0,0.0,0.0,0.0,0.0,0.0,0.0,0.0,0.0,0.0,0.0,0.0,0.0,0.0,0.0,0.0,0.0,0.0,0.0,0.0,0.0,0.0,0.0,0.0,0.0,0.0,0.0,0.0,0.0,0.0,0.0,0.0,0.0,0.0,0.0,0.0,0.0,0.0,0.0,0.0,0.0,0.0,0.0,0.0,0.0,0.0,0.0,0.0,0.0,0.0,0.0,0.0,0.0,0.0,0.0,0.0,0.0,0.0,4.8849,4.9145,4.9182,5.0036,5.045,5.0396,4.933,4.8563,4.7986,4.7392,0.0,0.0,0.0,0.0,0.0,0.0,0.0,0.0,0.0,0.0,0.0,0.0,0.0,0.0,0.0,0.0,0.0,0.0,0.0,0.0,0.0,0.0,0.0,0.0,0.0,0.0,0.0,0.0,0.0,0.0,0.0,0.0,0.0,0.0,0.0,0.0,0.0,0.0,4.2139,4.1654,4.2098,4.3359,4.3437,0.0,0.0,0.0,0.0,0.0,0.0,0.0,0.0,0.0,0.0,0.0,0.0,0.0,0.0,0.0,0.0,0.0,0.0,0.0,0.0,0.0,0.0,0.0,0.0,0.0,0.0,0.0,0.0,0.0,0.0,0.0,0.0,0.0,0.0,0.0,0.0,0.0,0.0,0.0,0.0,0.0,0.0,0.0,4.9358,5.0091,0.0,0.0,0.0,0.0,0.0,0.0,0.0,0.0,0.0,0.0,0.0,0.0,0.0,4.8952,4.9077,4.984,5.0285,5.0414,5.185,5.2553,5.259,5.3408,5.3781,5.3744,5.3582,0.0,4.9392,4.9936,0.0,0.0,0.0,0.0,0.0,0.0,0.0,0.0,0.0,0.0,0.0,0.0,0.0,0.0,0.0,0.0,0.0,0.0,0.0,0.0,0.0,0.0,0.0,0.0,0.0,0.0,0.0,0.0,0.0,0.0,0.0,0.0,0.0,0.0,0.0,0.0,4.0965,4.1703,4.2286,4.2396,4.3057,4.4158,4.4158,4.4158,4.4158,4.369,0.0,0.0,0.0,0.0,0.0,0.0,0.0,0.0,0.0,0.0,0.0,0.0,0.0,0.0,0.0,0.0,0.0,0.0,0.0,0.0,0.0,0.0,0.0,0.0,0.0,0.0,0.0,0.0,0.0,0.0,0.0,0.0,0.0,0.0,0.0,0.0,0.0,0.0,0.0,4.8396,4.9358,4.9243,4.932,4.8704,0.0,0.0,0.0,0.0,0.0,0.0,0.0,0.0,0.0,5.0091,4.9886,5.0104,5.0836,5.1423,5.2089,5.2858,5.3995,5.4546,5.4583,5.5385,5.5752,5.5752,5.6235,5.5354,5.3519,5.2023,5.0333,4.8539,0.0,0.0,0.0,0.0,4.7762,4.843,0.0,0.0,0.0,0.0,0.0,0.0,0.0,0.0,0.0,0.0,0.0,0.0,0.0,0.0,0.0,4.0024,0.0,0.0,0.0,0.0,0.0,0.0,0.0,0.0,0.0,0.0,0.0,0.0,4.2621,4.2988,4.2616,4.3212,4.4052,4.4993,4.4773,4.47,4.4663,4.4048,4.3575,0.0,0.0,0.0,0.0,0.0,0.0,0.0,0.0,0.0,0.0,0.0,0.0,0.0,0.0,0.0,0.0,0.0,0.0,0.0,0.0,0.0,0.0,0.0,0.0,0.0,0.0,0.0,0.0,0.0,0.0,0.0,0.0,0.0,0.0,0.0,0.0,0.0,0.0,4.9548,5.0048,4.9197,5.0202,4.9935,0.0,0.0,0.0,0.0,0.0,0.0,5.163,5.1669,5.1826,5.2127,5.1773,5.2058,5.2981,5.3286,5.3975,5.5023,5.5616,5.6025,5.624,5.6822,5.711,5.7147,5.774,5.7666,5.689,5.4074,5.2202,5.0957,4.9276,4.8504,4.8427,4.8793,4.9364,5.0054,0.0,0.0,0.0,0.0,0.0,0.0,0.0,0.0,0.0,0.0,0.0,0.0,0.0,0.0,4.0455,4.0388,4.1529,4.1418,0.0,0.0,0.0,0.0,0.0,0.0,0.0,0.0,0.0,4.2249,4.2319,4.2731,4.3433,4.3474,4.435,4.581,4.5035,4.47,4.47,4.4663,4.375,4.2433,0.0,0.0,0.0,0.0,0.0,0.0,0.0,0.0,0.0,0.0,0.0,0.0,0.0,0.0,0.0,0.0,0.0,0.0,0.0,0.0,0.0,0.0,0.0,0.0,0.0,0.0,0.0,0.0,0.0,0.0,0.0,0.0,0.0,0.0,0.0,0.0,0.0,0.0,0.0,5.181,5.3895,0.0,0.0,0.0,0.0,5.1695,5.2505,5.3392,5.4244,5.4321,5.4835,5.5998,5.6005,5.5962,5.5984,5.5987,5.6238,5.6669,5.6706,5.7147,5.7886,5.7929,5.7923,5.7923,5.7966,5.7966,5.7819,5.6136,5.4043,5.1881,5.1338,5.0195,4.8911,4.925,5.0152,5.1217,0.0,0.0,0.0,0.0,0.0,0.0,0.0,0.0,0.0,0.0,0.0,0.0,0.0,3.986,4.1302,4.1589,4.2507,4.243,4.0872,0.0,0.0,0.0,0.0,0.0,0.0,0.0,4.1997,4.3061,4.3061,4.3212,4.3506,4.3506,4.4089,4.5108,4.4847,4.47,4.47,4.47,4.437,4.3787,4.302,4.2396,0.0,0.0,0.0,0.0,0.0,0.0,0.0,0.0,0.0,0.0,0.0,0.0,0.0,0.0,0.0,0.0,0.0,0.0,0.0,0.0,0.0,0.0,0.0,0.0,0.0,0.0,0.0,0.0,0.0,0.0,0.0,0.0,0.0,0.0,0.0,0.0,0.0,5.4333,5.5629,0.0,5.3362,5.3395,5.3777,5.4318,5.5167,5.6013,5.6896,5.6655,5.6702,5.7104,5.6549,5.6489,5.6987,5.6726,5.6938,5.7556,5.7556,5.7703,5.8002,5.8002,5.8002,5.8002,5.8002,5.8002,5.7966,5.7378,5.6314,5.4924,5.3181,5.2337,5.204,5.1912,5.2294,5.3022,0.0,0.0,0.0,0.0,0.0,0.0,0.0,0.0,0.0,0.0,0.0,3.6984,3.7816,4.0214,4.1913,4.2241,4.3164,4.2937,4.1154,0.0,0.0,0.0,0.0,0.0,0.0,4.1447,4.2415,4.3228,4.3391,4.3506,4.3506,4.3506,4.3942,4.47,4.47,4.4847,4.5108,4.481,4.4406,4.3819,4.302,4.2396,4.1768,0.0,0.0,0.0,0.0,0.0,0.0,0.0,0.0,0.0,0.0,0.0,0.0,0.0,0.0,0.0,0.0,0.0,0.0,0.0,0.0,0.0,0.0,0.0,0.0,0.0,0.0,0.0,0.0,0.0,0.0,0.0,0.0,0.0,0.0,5.3728,5.5835,5.5517,5.7375,5.7827,5.5555,5.6129,5.6706,5.6975,5.7786,5.8469,5.8893,5.8622,5.8284,5.7998,5.7356,5.721,5.7614,5.7332,5.7483,5.8002,5.8002,5.8002,5.8002,5.8002,5.8002,5.8002,5.8002,5.8002,5.8002,5.8002,5.7703,5.7,5.484,5.4012,5.3962,5.3559,5.3667,5.4186,0.0,0.0,0.0,0.0,0.0,0.0,0.0,0.0,0.0,0.0,3.4161,3.5723,3.7398,4.0271,4.2108,4.22,4.3346,4.2893,4.0107,3.9844,0.0,0.0,0.0,0.0,4.0554,4.1129,4.1849,4.2688,4.3236,4.3506,4.3506,4.3506,4.3906,4.4663,4.4663,4.5108,4.5778,4.4998,4.3746,4.2396,4.3171,4.2543,4.1283,0.0,0.0,0.0,0.0,0.0,0.0,0.0,0.0,0.0,0.0,0.0,0.0,0.0,0.0,0.0,0.0,0.0,0.0,0.0,0.0,0.0,0.0,0.0,0.0,0.0,0.0,0.0,0.0,0.0,0.0,0.0,0.0,0.0,5.1983,5.5299,5.7083,5.5445,5.9358,6.0825,5.7544,5.9387,6.0456,5.9595,6.0293,6.0578,6.011,6.0078,5.9625,5.8711,5.8698,5.8471,5.8008,5.8002,5.8002,5.8002,5.8002,5.8002,5.8002,5.8002,5.8002,5.8002,5.8002,5.8002,5.8002,5.8002,5.7997,5.7819,5.6209,5.5102,5.4396,5.3969,5.4096,5.4602,0.0,0.0,0.0,0.0,0.0,0.0,0.0,0.0,0.0,0.0,3.5603,3.7252,3.9123,4.0923,4.2015,4.2031,4.3032,4.2702,4.0403,0.0,0.0,0.0,0.0,0.0,4.0011,4.1543,4.2467,4.2688,4.3236,4.3506,4.3506,4.3506,4.3616,4.3832,4.3832,4.3942,4.4167,4.3906,4.3575,4.3139,4.2767,4.2359,4.1952,0.0,0.0,0.0,0.0,0.0,0.0,0.0,0.0,0.0,0.0,0.0,0.0,0.0,0.0,0.0,0.0,0.0,0.0,0.0,0.0,0.0,0.0,0.0,0.0,0.0,0.0,0.0,0.0,0.0,0.0,0.0,5.1824,5.3905,5.4951,5.7342,5.9596,6.1199,6.2339,6.2679,6.199,6.1524,6.0986,6.0349,5.997,5.9744,5.9588,5.9262,5.898,5.8723,5.8359,5.813,5.8002,5.8002,5.8002,5.8002,5.8002,5.8002,5.8002,5.8002,5.8002,5.8002,5.8002,5.8002,5.8002,5.8002,5.7666,5.7036,5.5983,5.5475,5.5136,5.4154,5.4096,5.452,0.0,0.0,0.0,0.0,0.0,0.0,0.0,0.0,0.0,0.0,3.6109,3.7695,3.9549,4.0883,4.1573,4.1486,4.192,4.1448,3.9716,0.0,0.0,0.0,0.0,3.9393,3.9918,4.1319,4.2134,4.2322,4.2935,4.3317,4.3506,4.3506,4.3506,4.3506,4.3506,4.3506,4.3506,4.3869,4.3795,4.3506,4.3718,4.3603,4.3273,4.3158,4.3383,4.3791,4.3791,4.4415,4.5145,4.4676,0.0,0.0,0.0,0.0,0.0,0.0,0.0,0.0,0.0,0.0,0.0,0.0,0.0,0.0,0.0,0.0,0.0,0.0,0.0,0.0,0.0,0.0,0.0,0.0,5.4173,5.6141,5.8217,5.9965,6.1644,6.3318,6.3828,6.4008,6.3814,6.2465,6.1338,6.0654,5.9867,5.9306,5.9102,5.8845,5.8611,5.8413,5.8147,5.8002,5.8002,5.8002,5.8002,5.8002,5.8002,5.8002,5.8002,5.8002,5.8002,5.8002,5.8002,5.8002,5.7966,5.7629,5.722,5.6706,0.0,0.0,0.0,0.0,5.4096,5.4484,0.0,0.0,0.0,0.0,0.0,0.0,0.0,0.0,0.0,0.0,0.0,3.7625,3.9197,4.0343,4.085,4.0529,4.0465,3.9936,0.0,0.0,0.0,3.8094,3.8814,3.9479,4.0079,4.075,4.1325,4.1805,4.2552,4.3096,4.3506,4.3506,4.3506,4.3506,4.3506,4.3506,4.3543,4.4264,4.4195,4.3763,4.5301,4.5402,4.4773,4.559,4.5961,4.603,4.603,4.6177,4.6292,4.6214,0.0,0.0,0.0,0.0,0.0,0.0,0.0,0.0,0.0,0.0,0.0,0.0,0.0,0.0,0.0,0.0,0.0,0.0,0.0,0.0,0.0,0.0,0.0,0.0,5.6787,5.8358,6.13,6.2641,6.3248,6.3173,6.4322,6.4758,6.3847,6.2687,6.161,6.0773,5.9889,5.9187,5.8796,5.8659,0.0,0.0,0.0,5.8002,5.8002,5.8002,5.8002,5.8002,5.8002,5.8002,5.8002,5.8002,5.8002,5.8002,5.8002,5.8002,5.7923,5.7147,5.6701,5.6449,5.5726,5.4955,5.4238,5.3869,5.4019,5.4338,0.0,0.0,0.0,0.0,0.0,0.0,0.0,0.0,0.0,3.5555,3.6904,3.8107,3.9116,3.9807,3.9804,3.8802,3.9989,4.0437,0.0,0.0,3.7603,3.8749,3.9071,3.9479,4.0079,4.075,4.1325,4.1805,4.2552,4.3096,4.3506,4.3506,4.3506,4.3506,4.3506,4.3506,4.351,4.3653,4.4011,4.4557,4.5516,4.5402,4.4773,4.559,4.6319,4.686,4.686,4.7755,4.8793,4.8086,4.8311,4.8756,4.8049,0.0,0.0,0.0,0.0,0.0,0.0,0.0,0.0,0.0,0.0,0.0,0.0,0.0,0.0,0.0,0.0,0.0,0.0,0.0,0.0,5.548,5.8501,6.1117,6.2395,6.3679,6.4235,6.3563,6.4454,6.471,6.3733,6.2815,6.2045,6.147,6.0064,5.9201,5.9119,5.8499,5.8085,5.8002,5.8002,5.8002,5.8002,5.8002,5.8002,5.8002,5.8002,0.0,5.8002,5.8002,5.8002,5.8002,5.8002,5.8002,5.7923,5.7147,5.6046,5.484,5.4693,5.4142,5.3413,5.3335,5.3369,5.3461,0.0,0.0,0.0,0.0,0.0,0.0,0.0,0.0,0.0,0.0,3.6865,3.791,3.8965,3.9411,3.9141,3.7966,3.8687,0.0,0.0,3.8144,3.8325,3.8983,3.9411,3.9796,4.0079,4.0545,4.1128,4.1805,4.2292,4.2896,4.3506,4.3506,4.3506,4.3506,4.3506,4.3506,4.3543,4.435,4.4709,4.4847,4.6466,4.6608,4.598,4.6796,4.7347,4.7746,4.8191,4.8903,4.9605,4.9554,4.9848,5.0159,4.9949,4.915,4.8138,0.0,0.0,0.0,0.0,0.0,0.0,0.0,0.0,0.0,0.0,0.0,0.0,0.0,0.0,5.1621,5.2648,0.0,5.6466,5.83,6.0639,6.2358,6.2756,6.431,6.5098,6.4285,6.4307,6.4163,6.3637,6.2621,6.1878,6.1624,6.0487,5.9636,5.9227,5.8829,5.8437,5.7997,5.8002,5.8002,5.8002,5.8002,5.8002,5.8002,5.8002,5.8002,5.8002,5.8002,5.8002,5.8002,5.8002,5.8002,5.7923,5.6712,5.55,5.4363,5.3953,5.3544,5.3214,5.3214,5.3214,5.3214,0.0,0.0,0.0,0.0,0.0,0.0,0.0,0.0,0.0,0.0,3.6522,3.7424,3.8491,3.8692,3.8389,0.0,0.0,0.0,0.0,3.8155,3.8828,3.9208,3.9661,3.9965,4.0113,4.0368,4.0931,4.1805,4.2067,4.2732,4.3722,4.3579,4.3579,4.3722,4.3722,4.3722,4.3832,4.5443,4.5842,4.5581,4.7526,4.8113,4.7888,4.8375,4.8558,4.8636,4.9348,4.9605,4.9752,5.0692,5.0949,5.0934,5.1648,5.1097,4.9925,4.8641,4.8247,0.0,0.0,0.0,0.0,0.0,0.0,0.0,0.0,4.8044,4.8994,5.0665,5.2281,5.4001,5.5946,5.7079,5.8615,6.1374,6.2652,6.3343,6.349,6.5016,6.585,6.5219,6.451,6.3905,6.349,6.2631,6.2004,6.1857,6.108,6.0266,5.949,5.9264,5.8829,5.8039,5.8002,5.8002,5.8002,5.8002,5.8002,5.8002,5.8002,5.8002,5.8002,5.8002,5.8002,5.8002,5.8002,5.7819,5.7452,5.6314,5.5176,5.41,5.3623,5.3324,5.3214,5.3214,5.3214,5.3214,0.0,0.0,0.0,0.0,0.0,0.0,0.0,0.0,0.0,0.0,0.0,0.0,0.0,0.0,0.0,0.0,0.0,0.0,3.8667,3.7919,3.817,3.9893,3.9525,3.9559,4.01,4.0368,4.0931,4.1805,4.2067,4.3015,4.4553,4.3832,4.3869,4.4557,4.4557,4.4557,4.4663,4.6273,4.7342,4.7934,4.8191,4.9145,5.032,4.9674,4.9459,4.9459,4.9569,4.9605,4.9826,5.1363,5.1389,5.1118,5.2967,5.2948,5.1967,5.039,4.8932,4.7363,4.5167,4.4704,4.5328,4.7273,4.7897,4.8962,0.0,5.3518,5.4027,5.5678,5.7288,5.8499,5.875,6.0052,6.141,6.2505,6.4004,6.5258,6.5999,6.6284,6.6403,6.633,6.5987,6.4961,6.307,6.3436,6.3509,6.2719,6.1924,6.1117,6.0303,5.96,5.8829,5.8039,5.8002,5.8002,5.8002,5.8002,5.8002,5.8002,5.8002,5.8002,5.8002,5.8002,5.8002,5.8002,5.8002,5.7195,5.5915,5.6455,5.5348,5.3398,5.4032,5.3843,5.3214,5.3214,5.3214,5.3214,0.0,0.0,0.0,0.0,0.0,0.0,0.0,0.0,0.0,0.0,0.0,0.0,0.0,0.0,0.0,0.0,0.0,0.0,3.7318,3.767,3.836,3.9519,3.9734,4.0134,4.0724,4.1363,4.2149,4.3145,4.3314,4.4103,4.5402,4.5039,4.508,4.5406,4.5406,4.5659,4.6163,4.7301,4.8301,4.9082,4.9586,5.0173,5.0765,5.044,5.0004,4.9605,4.9605,4.927,0.0,0.0,5.0522,5.0652,5.226,5.1997,5.0872,4.953,4.8646,4.7784,4.6448,4.642,4.7053,4.8044,4.9407,5.1022,5.3219,5.4064,5.4987,5.7079,5.8762,6.0046,6.0523,6.1924,6.3178,6.3503,6.4934,6.5955,6.5809,6.6623,6.6666,6.5271,6.5808,6.557,6.3711,6.3876,6.3723,6.2866,6.2505,6.1734,6.045,6.0083,5.9312,5.8033,5.8002,5.8002,5.8002,5.8002,5.8002,5.8002,5.8002,5.8002,5.8002,5.8002,5.8002,5.8002,5.8002,5.7635,5.6974,5.6853,5.6223,5.5238,5.462,5.4179,5.3843,5.3361,5.3214,5.3214,0.0,0.0,0.0,0.0,0.0,0.0,0.0,0.0,0.0,0.0,0.0,0.0,0.0,0.0,0.0,0.0,0.0,0.0,0.0,3.7461,3.8626,3.9406,4.019,4.0882,4.1495,4.2567,4.3541,4.4436,4.4985,4.5818,4.6916,4.6654,4.6691,4.6916,4.6916,4.7241,4.7861,4.8888,4.9669,5.0303,5.0917,5.1274,5.1421,5.098,5.0293,4.9569,4.9344,4.8568,0.0,0.0,4.8915,4.9213,5.0701,5.0537,4.9583,4.8532,4.7781,4.7232,4.6865,4.7526,4.8448,4.9145,5.1174,5.3193,5.4027,5.4981,5.6266,5.8253,5.9758,6.0915,6.1504,6.2979,6.4075,6.4071,6.544,6.6366,6.5992,6.6776,6.6703,6.4977,6.5595,6.5632,6.4243,6.4316,6.409,6.3203,6.3166,6.2358,6.0487,6.0413,5.9648,5.8033,5.8002,5.8002,5.8002,5.8002,5.8002,5.8002,5.8002,5.8002,5.8002,5.8002,5.8002,5.8002,5.8002,5.7886,5.7629,5.7293,5.6853,5.6376,5.5427,5.4913,5.462,5.3843,5.3398,5.3214,0.0,0.0,0.0,0.0,0.0,0.0,0.0,0.0,0.0,0.0,0.0,0.0,0.0,0.0,0.0,0.0,0.0,0.0,0.0,3.7357,3.8769,4.0016,4.091,4.1649,4.2252,4.3819,4.4839,4.5255,4.6829,4.8249,4.9463,4.86,4.8678,4.9495,4.9417,4.9454,4.9647,5.1216,5.1908,5.1914,5.195,5.2417,5.2957,5.1384,5.0293,4.9495,4.8636,0.0,0.0,0.0,4.6654,4.6373,4.8447,4.9069,4.8874,4.8074,4.6387,4.4957,4.5736,4.709,4.8888,5.1284,5.3712,5.569,5.6523,5.7912,5.93,6.0156,6.097,6.1585,6.1595,6.2954,6.4067,6.3991,6.5417,6.6769,6.7517,6.6996,6.6512,6.6439,6.5772,6.5001,6.417,6.4824,6.4928,6.4133,6.4059,6.2995,6.0523,6.0413,5.9648,5.8033,5.8002,5.8002,5.8002,5.8002,5.8002,5.8002,5.8002,5.8002,5.8002,5.8002,5.8002,5.8002,5.8002,5.7556,5.689,5.7666,5.7048,5.5695,5.6455,5.6235,5.5475,5.4656,5.388,5.3214,0.0,0.0,0.0,0.0,0.0,0.0,0.0,0.0,0.0,0.0,0.0,0.0,0.0,0.0,0.0,0.0,3.4334,0.0,0.0,3.6426,3.7833,3.868,4.0428,4.1683,4.2286,4.4742,4.63,4.6891,4.8376,4.9522,5.0403,5.0105,5.01,5.0403,5.0362,5.0986,5.1977,5.1982,5.2606,5.356,5.3004,5.2962,5.3067,5.2013,5.0775,4.9422,0.0,0.0,0.0,0.0,0.0,0.0,4.6966,4.6985,4.6349,4.5267,4.5222,4.5773,4.7131,4.9077,5.1358,5.3786,5.5396,5.6602,5.7409,5.8431,5.9151,5.8916,5.912,5.9193,5.8664,6.0334,6.1963,6.2457,6.4758,6.6776,6.759,6.748,6.6886,6.5845,6.5478,6.4964,6.417,6.4353,6.4163,6.3313,6.3239,6.2395,6.0487,6.0413,5.9648,5.8033,5.8002,5.8002,5.8002,5.8002,5.8002,5.8002,5.8002,5.8002,5.8002,5.8002,5.8002,5.8002,5.8002,5.785,5.7629,5.7892,5.7672,5.7158,5.689,5.6633,5.6235,5.4876,5.4216,5.3917,0.0,0.0,0.0,0.0,0.0,0.0,0.0,0.0,0.0,0.0,0.0,0.0,0.0,0.0,0.0,0.0,0.0,3.4274,0.0,0.0,3.7441,3.8287,4.0287,4.1683,4.2286,4.4675,4.6234,4.685,4.8563,4.975,5.0362,5.0954,5.1242,5.1242,5.1531,5.2223,5.3177,5.2637,5.2863,5.3487,5.2669,5.2155,5.1788,5.0655,4.9449,0.0,0.0,0.0,0.0,0.0,0.0,0.0,0.0,4.5069,4.4613,4.441,4.5105,4.6426,4.8581,5.0586,5.2539,5.4671,5.6243,5.74,5.7917,5.8635,5.9058,5.8618,5.8108,5.742,5.6365,5.8379,6.0041,5.9716,6.2751,6.5558,6.6703,6.6592,6.6336,6.6182,6.5662,6.5111,6.4567,6.428,6.3876,6.3313,6.3276,6.2542,6.0933,6.0823,6.0236,5.8914,5.8584,5.8431,5.8431,5.8143,5.8002,5.8002,5.8002,5.8002,5.8002,5.8002,5.8002,5.8002,5.8002,5.8002,5.8002,5.8002,5.8002,5.7966,5.7446,5.7036,5.6633,5.5317,5.4662,5.4289,0.0,0.0,0.0,0.0,0.0,0.0,0.0,0.0,0.0,0.0,0.0,0.0,0.0,0.0,0.0,0.0,0.0,0.0,0.0,0.0,0.0,3.8846,4.0491,4.1643,4.2212,4.373,4.4754,4.529,4.7549,4.894,4.9569,5.1106,5.1803,5.1835,5.2595,5.2957,5.2994,5.2957,5.2522,5.1803,5.0986,5.022,4.9348,4.7709,0.0,0.0,0.0,0.0,0.0,0.0,4.3543,4.3616,4.3616,4.369,4.4052,4.5521,4.6106,4.6908,4.9986,5.1502,5.2615,5.4154,5.6315,5.8034,5.7998,5.8585,5.9112,5.9024,5.7759,5.6207,5.4695,5.6993,5.8392,5.6226,5.9793,6.3452,6.5178,6.4751,6.5131,6.737,6.6329,6.5385,6.5236,6.4589,6.4106,6.4031,6.4021,6.3325,6.1673,6.16,6.1227,6.0413,5.9673,5.9264,5.9264,5.851,5.8107,5.807,5.807,5.8033,5.8002,5.8002,5.8002,5.8002,5.8002,5.8002,5.8002,5.8002,5.8002,5.8002,5.8002,5.7519,5.6706,5.5946,5.5144,5.4289,0.0,0.0,0.0,0.0,0.0,0.0,0.0,0.0,0.0,0.0,0.0,0.0,0.0,0.0,0.0,0.0,0.0,0.0,0.0,0.0,0.0,0.0,0.0,0.0,0.0,0.0,0.0,0.0,4.6969,4.8099,4.8636,4.904,4.9255,4.9255,4.9476,4.9879,5.0398,4.9806,4.9816,5.0156,0.0,4.8815,4.8521,0.0,0.0,0.0,0.0,0.0,4.3506,4.3506,4.4314,4.5301,4.5301,4.6104,4.7047,4.6984,4.819,4.9779,5.0692,5.2371,5.4146,5.5122,5.6312,5.7064,5.6438,5.7391,5.7738,5.5433,5.4266,5.2971,5.0841,5.3003,5.5466,5.6667,6.0702,6.4494,6.6776,6.693,6.6776,6.6813,6.696,6.6342,6.4444,6.4619,6.4347,6.3071,6.3057,6.2689,6.1637,6.16,6.1227,6.0413,6.0193,6.0077,6.0077,5.9899,5.9496,5.8902,5.8902,5.8578,5.8002,5.8002,5.8002,5.8002,5.8002,5.8002,5.8002,5.8002,5.8002,5.8002,5.8002,5.7519,5.678,5.6559,5.5611,5.4363,0.0,0.0,0.0,0.0,0.0,0.0,0.0,0.0,0.0,0.0,0.0,0.0,0.0,0.0,0.0,0.0,0.0,0.0,0.0,0.0,0.0,0.0,0.0,0.0,0.0,0.0,0.0,0.0,0.0,0.0,4.6387,4.7321,4.7636,4.745,4.8026,4.8558,4.893,4.8485,0.0,0.0,0.0,0.0,0.0,0.0,0.0,0.0,0.0,4.4346,4.4572,4.4697,4.5712,4.7021,4.7398,4.8158,4.8925,4.9278,5.0103,5.1055,5.1836,5.3033,5.4236,5.5016,5.6066,5.6628,5.55,5.6195,5.6222,5.3192,5.1968,5.0853,4.8873,5.1287,5.4027,5.5389,5.9463,6.3401,6.6236,6.6659,6.6729,6.6955,6.7066,6.6395,6.4552,6.481,6.4724,6.3773,6.3443,6.2937,6.2136,6.2452,6.2291,6.1478,6.1117,6.075,6.0413,6.0413,6.0003,5.919,5.919,5.8798,5.8002,5.8002,5.8002,5.8002,5.8002,5.8002,5.8002,5.8002,5.8002,5.8002,5.8002,5.7299,5.6308,5.6669,5.5568,5.3917,0.0,0.0,0.0,0.0,0.0,0.0,0.0,0.0,0.0,0.0,0.0,0.0,0.0,0.0,0.0,0.0,0.0,0.0,0.0,0.0,0.0,0.0,0.0,0.0,0.0,0.0,0.0,0.0,0.0,0.0,0.0,0.0,0.0,0.0,0.0,0.0,0.0,0.0,0.0,0.0,0.0,0.0,0.0,0.0,0.0,0.0,0.0,4.4367,4.5731,4.6405,4.7578,4.8911,4.969,5.0083,5.0489,5.17,5.1682,5.1585,5.2881,5.3442,5.3788,5.4439,5.567,5.6322,5.4736,5.4867,5.4521,5.1654,5.0313,4.9297,4.8124,5.0651,5.3108,5.3815,5.7585,6.1649,6.5131,6.5603,6.6091,6.7427,6.6968,6.6117,6.4925,6.5062,6.5141,6.492,6.4481,6.3877,6.3089,6.3709,6.3686,6.2829,6.2101,6.141,6.0743,6.0707,6.0266,5.938,5.938,5.8866,5.8002,5.8002,5.8002,5.8002,5.8002,5.8002,5.8002,5.8002,5.8002,5.8002,5.8002,5.7085,5.5873,5.6675,5.5495,5.3623,0.0,0.0,0.0,0.0,0.0,0.0,0.0,0.0,0.0,0.0,3.5092,3.5579,0.0,0.0,0.0,0.0,0.0,0.0,0.0,0.0,0.0,0.0,0.0,0.0,0.0,4.0113,4.0411,4.1076,4.1685,0.0,0.0,0.0,0.0,0.0,0.0,0.0,0.0,0.0,0.0,0.0,0.0,0.0,0.0,0.0,0.0,0.0,4.3013,4.3452,4.4657,4.7383,4.9633,5.1381,5.1534,5.2527,5.3466,5.2509,5.2592,5.2908,5.258,5.3423,5.4439,5.4575,5.5262,5.5349,5.3191,5.2817,5.2239,4.9909,4.8327,4.7462,4.7819,4.893,5.1028,5.4872,5.8343,6.2107,6.6574,6.7244,6.7355,6.7579,6.7481,6.6487,6.4165,6.52,6.5428,6.4044,6.5185,6.562,6.4888,6.4356,6.3686,6.2829,6.2646,6.2536,6.2389,6.2389,6.1655,6.0193,6.0193,5.9422,5.8002,5.8002,5.8002,5.8002,5.8002,5.8002,5.8002,5.8002,5.8002,5.8002,5.8002,5.7409,5.6706,5.7483,5.6681,5.5212,0.0,0.0,0.0,0.0,0.0,0.0,0.0,3.4304,3.5163,3.5095,3.5683,3.5952,3.5566,3.5489,0.0,0.0,0.0,0.0,0.0,0.0,0.0,0.0,0.0,0.0,0.0,4.0113,4.0526,4.1357,0.0,4.2093,4.2703,4.3245,4.3339,4.3105,4.3397,4.3506,4.3506,0.0,0.0,4.3506,4.3506,4.3506,0.0,0.0,0.0,0.0,0.0,4.2971,4.4797,4.6422,4.8959,5.1662,5.2948,5.3915,5.4336,5.325,5.29,5.2931,5.3356,5.4329,5.5356,5.6158,5.661,5.6154,5.3491,5.2299,5.1005,4.8323,4.7226,4.703,4.7752,4.9138,5.1178,5.4237,5.7329,6.0735,6.4657,6.5925,6.6392,6.6259,6.6253,6.5382,6.3243,6.4158,6.4734,6.441,6.5637,6.6061,6.5258,6.4915,6.4347,6.3503,6.3466,6.3276,6.2793,6.2793,6.2205,6.1006,6.0597,5.9789,5.8615,5.818,5.8002,5.8002,5.8002,5.8002,5.8002,5.8002,5.8002,5.8002,5.8002,5.7519,5.689,5.7703,5.6974,5.5658,0.0,0.0,0.0,0.0,0.0,0.0,0.0,3.5152,3.6168,3.5829,3.6684,3.6886,3.5843,3.5741,3.5967,0.0,0.0,0.0,0.0,0.0,0.0,0.0,0.0,0.0,0.0,0.0,0.0,4.1622,4.1746,0.0,0.0,0.0,0.0,0.0,4.3303,4.3506,4.3506,4.3506,4.3506,0.0,0.0,4.3506,0.0,0.0,0.0,0.0,0.0,4.2359,4.4327,4.5194,4.7481,5.0328,5.2495,5.3617,5.3943,5.3028,5.2672,5.2875,5.4236,5.5509,5.6756,5.7948,5.8221,5.7411,5.4401,5.2445,5.047,4.75,4.6824,4.7056,4.7954,4.9442,5.1133,5.3084,5.5549,5.857,6.2429,6.4028,6.4954,6.5439,6.5178,6.434,6.2804,6.3268,6.4069,6.4933,6.6036,6.6294,6.5453,6.5503,6.5185,6.439,6.4206,6.3766,6.3092,6.2903,6.2395,6.16,6.0786,5.9967,5.9153,5.8364,5.8002,5.8002,5.8002,5.8002,5.8002,5.8002,5.8002,5.8002,5.8002,5.7593,5.7147,5.7776,5.7195,5.6172,0.0,0.0,0.0,0.0,0.0,0.0,0.0,3.6406,3.8069,3.6605,3.8278,3.8772,3.6646,3.6452,3.6546,0.0,0.0,0.0,0.0,0.0,0.0,0.0,0.0,0.0,0.0,0.0,0.0,4.0967,4.1511,0.0,0.0,0.0,0.0,0.0,0.0,4.3506,4.3506,4.3506,0.0,0.0,0.0,0.0,0.0,0.0,0.0,0.0,0.0,4.1065,4.1737,4.4682,4.6207,4.711,4.8165,5.0405,5.2307,5.0831,5.1824,5.3585,5.4372,5.6705,5.8912,5.9031,5.9137,5.8381,5.5364,5.2929,5.063,4.8266,4.727,4.7225,4.8646,4.8529,4.9135,5.1982,5.3379,5.6155,6.2094,6.2985,6.4045,6.6751,6.5723,6.4443,6.3495,6.3567,6.4069,6.4933,6.6598,6.7233,6.6413,6.6369,6.6029,6.5221,6.4494,6.4059,6.3986,6.3203,6.2395,6.16,6.0786,5.9967,5.9153,5.8364,5.8002,5.8002,5.8002,5.8002,5.8002,5.8002,5.8002,5.8002,5.8002,5.7966,5.7886,5.7966,5.7892,5.7703,0.0,0.0,0.0,0.0,0.0,0.0,3.4698,3.5938,3.7126,3.7849,3.8317,3.8591,3.8592,3.9072,3.8821,0.0,0.0,0.0,0.0,0.0,0.0,0.0,0.0,0.0,0.0,0.0,4.0708,4.1979,4.1863,0.0,0.0,0.0,0.0,0.0,0.0,4.3506,4.3506,4.3506,0.0,0.0,0.0,0.0,0.0,0.0,0.0,0.0,0.0,0.0,4.1099,4.2366,4.3872,4.5105,4.4561,4.6542,4.908,4.9363,5.0702,5.2686,5.5265,5.7907,6.0148,6.1124,6.0629,5.923,5.6712,5.3578,5.0702,4.8842,4.7936,4.7793,4.8808,4.8774,4.9078,5.071,5.2081,5.4256,5.8153,5.945,6.096,6.3491,6.3597,6.3301,6.2885,6.3285,6.3774,6.4209,6.5896,6.6562,6.5801,6.6707,6.6849,6.6035,6.5705,6.5087,6.4103,6.3766,6.3172,6.2322,6.1,6.023,5.9899,5.8584,5.8002,5.8002,5.8002,5.8002,5.8002,5.8002,5.8002,5.8002,5.8002,5.8002,5.8002,5.8002,5.8002,5.7966,0.0,0.0,0.0,0.0,0.0,3.4747,3.5496,3.6114,3.7142,3.8972,3.8885,3.9103,4.017,4.0808,4.0502,3.894,0.0,0.0,0.0,0.0,0.0,0.0,0.0,0.0,0.0,0.0,4.1157,4.2791,4.2537,4.3048,0.0,0.0,4.3869,4.3832,0.0,0.0,0.0,0.0,0.0,0.0,0.0,0.0,0.0,0.0,0.0,0.0,0.0,0.0,0.0,0.0,0.0,4.3836,4.2796,4.4183,4.6394,4.7665,4.9518,5.1953,5.5341,5.8462,6.1182,6.2751,6.1916,6.0118,5.789,5.4343,5.103,4.924,4.8695,4.8706,4.9221,4.9484,4.9822,5.0338,5.1346,5.2954,5.5521,5.6811,5.8474,6.1173,6.1518,6.1757,6.2351,6.3105,6.3593,6.369,6.5109,6.5873,6.5637,6.6692,6.7101,6.6587,6.6536,6.5852,6.4463,6.4206,6.3649,6.2793,6.1404,6.0633,6.034,5.8982,5.8217,5.8002,5.8002,5.8002,5.8002,5.8002,5.8002,5.8002,5.8002,5.8002,5.8002,5.8002,5.8002,5.8002,0.0,0.0,0.0,0.0,0.0,0.0,3.5496,3.7456,3.9107,3.9796,4.0513,4.0983,4.0986,4.1006,4.1039,4.1158,0.0,0.0,0.0,0.0,0.0,0.0,0.0,0.0,0.0,0.0,4.159,4.3009,4.3586,4.4566,4.5851,4.5071,4.47,4.4663,0.0,0.0,0.0,0.0,0.0,0.0,0.0,0.0,0.0,0.0,0.0,0.0,0.0,0.0,0.0,0.0,0.0,0.0,0.0,4.3951,4.477,4.5534,4.8326,5.1723,5.4094,5.8121,6.206,6.3595,6.2771,6.0997,5.8787,5.5162,5.1665,4.9438,4.9567,5.0075,5.0083,5.0676,5.1167,5.1201,5.1209,5.2318,5.5477,5.5789,5.7175,6.1038,6.0038,5.9926,6.2169,6.3179,6.3692,6.3701,6.453,6.5426,6.6351,6.6411,6.6493,6.6699,6.6583,6.6109,6.5288,6.4494,6.3649,6.2793,6.1998,6.1153,6.0376,5.9563,5.8762,5.8002,5.8002,5.8002,5.8002,5.8002,5.8002,5.8002,5.8002,5.8002,5.8002,5.8002,5.8002,5.8002,0.0,0.0,0.0,0.0,0.0,0.0,0.0,3.7324,3.8609,3.9877,4.0238,4.0979,4.2468,4.2628,4.2667,4.2695,0.0,0.0,0.0,0.0,0.0,0.0,0.0,0.0,0.0,0.0,0.0,4.4144,4.4002,4.4575,4.5888,4.5067,4.47,4.4659,4.3869,4.3506,0.0,0.0,0.0,0.0,0.0,0.0,4.1104,0.0,0.0,0.0,0.0,0.0,0.0,0.0,0.0,0.0,0.0,0.0,0.0,4.5466,4.759,5.0429,5.374,5.65,5.8795,6.0332,5.9186,5.7308,5.6121,5.3204,5.0416,4.9241,4.9601,5.0109,5.0109,5.071,5.137,5.1886,5.1953,5.2474,5.4053,5.5094,5.6707,5.9482,6.1151,6.2377,6.3067,6.2949,6.2807,6.2807,6.3628,6.4033,6.388,6.486,6.6043,6.7357,6.7349,6.6923,6.6139,6.5331,6.4494,6.3686,6.2261,6.149,6.1196,6.0376,5.9899,5.9612,5.9055,5.8829,5.8798,5.8217,5.8002,5.8002,5.8002,5.8002,5.8002,5.8002,5.8002,5.8002,0.0,0.0,0.0,0.0,0.0,0.0,0.0,3.7659,3.8466,4.0278,4.0281,4.095,4.3172,4.3152,4.3227,4.3802,0.0,0.0,0.0,0.0,0.0,0.0,0.0,0.0,0.0,4.1784,4.3013,4.5764,4.5608,4.6151,4.7288,4.6466,4.5727,4.5108,4.4305,4.3795,0.0,0.0,0.0,0.0,0.0,0.0,4.085,0.0,0.0,0.0,0.0,0.0,0.0,0.0,0.0,0.0,0.0,0.0,0.0,0.0,4.7522,4.9331,5.2831,5.5314,5.727,5.8829,5.748,5.5597,5.487,5.2264,4.9824,4.9146,4.9796,5.0507,5.0507,5.1378,5.2224,5.2672,5.2739,5.301,5.3822,5.5166,5.6824,5.8776,6.1644,6.3174,6.2299,6.2584,6.2685,6.2424,6.2912,6.3171,6.3074,6.3989,6.5223,6.6751,6.6787,6.6308,6.5318,6.5009,6.4357,6.3244,6.2454,6.1887,6.1563,6.108,6.0523,5.993,5.9416,5.9049,0.0,5.8217,5.8002,5.8002,5.8002,5.8002,5.8002,5.8002,5.8002,5.8002,0.0,0.0,0.0,0.0,0.0,0.0,0.0,0.0,3.8653,4.0825,4.0574,4.0973,4.3085,4.276,4.2976,4.4472,0.0,0.0,0.0,0.0,0.0,0.0,0.0,0.0,0.0,4.2758,4.4507,4.7569,4.8055,4.8783,4.9679,4.8746,4.7457,4.5957,4.5067,4.4246,0.0,0.0,0.0,0.0,0.0,0.0,0.0,0.0,0.0,0.0,0.0,0.0,0.0,0.0,0.0,0.0,0.0,0.0,0.0,0.0,0.0,0.0,0.0,5.4337,5.687,5.8401,5.7122,5.5281,5.4594,5.211,0.0,4.913,5.0161,5.1201,5.1201,5.2461,5.3509,5.3509,5.3509,5.3754,5.4507,5.6055,5.7611,5.8912,6.1735,6.2691,6.0402,6.2134,6.3149,6.2526,6.2424,6.274,6.3556,6.361,6.4086,6.5084,6.5161,6.4589,6.3405,6.3891,6.3411,6.1983,6.2466,6.2322,6.16,6.152,6.0695,5.9252,5.9215,5.8744,5.8058,5.8033,5.8002,5.8002,5.8002,5.8002,5.8002,5.8002,5.8002,5.8002,0.0,0.0,0.0,0.0,0.0,0.0,0.0,0.0,0.0,0.0,4.0703,4.1339,4.2455,4.2922,4.3538,0.0,0.0,0.0,0.0,0.0,0.0,0.0,0.0,0.0,0.0,4.2932,4.4688,4.8104,4.8248,4.9072,5.0472,4.8999,4.7783,4.675,4.5324,0.0,0.0,0.0,0.0,0.0,0.0,0.0,0.0,0.0,0.0,0.0,4.165,4.2259,0.0,0.0,0.0,0.0,0.0,0.0,0.0,0.0,4.8649,0.0,5.1069,0.0,5.2811,5.4245,5.3393,5.2142,0.0,5.0535,4.9173,4.9015,5.0161,5.1201,5.1201,5.2461,5.3509,5.3509,5.3509,5.3754,5.4507,5.7848,6.0148,5.9868,6.2489,6.3488,6.1216,6.2009,6.2821,6.3217,6.2719,6.2498,6.2697,6.2851,6.3111,6.3515,6.3705,6.3903,6.4221,6.3639,6.3185,6.28,6.2186,6.1777,6.16,6.0872,6.0311,5.9938,5.931,5.8938,5.873,5.8213,5.8002,5.8002,5.8002,5.8002,5.8002,5.8002,5.8002,5.8002,0.0,0.0,0.0,0.0,0.0,0.0,0.0,0.0,0.0,0.0,0.0,0.0,0.0,0.0,0.0,0.0,0.0,0.0,0.0,0.0,0.0,0.0,0.0,0.0,4.3518,4.3884,4.5823,4.9439,4.9439,5.0105,5.1321,5.0031,4.8478,4.664,4.4396,0.0,0.0,0.0,0.0,0.0,4.0858,0.0,0.0,0.0,0.0,0.0,4.2523,4.3037,0.0,4.4695,4.5365,4.5831,0.0,0.0,0.0,0.0,4.9166,5.0156,5.0902,5.1586,5.2236,5.3022,5.2143,5.1099,5.1099,4.999,4.9011,4.9011,5.0161,5.1201,5.1201,5.2731,5.389,5.3551,5.4084,5.4997,5.6427,5.8718,6.0612,6.1559,6.3396,6.414,6.2922,6.3463,6.3812,6.3511,6.3115,6.2753,6.2424,6.2576,6.278,6.3,6.2881,6.304,6.3587,6.3361,6.3233,6.3199,6.2538,6.2367,6.2552,6.1487,6.0538,5.9765,5.9403,5.8702,5.785,5.7951,5.7762,5.7437,5.7826,5.7898,5.7763,5.7939,5.8217,5.8505,0.0,0.0,0.0,0.0,0.0,0.0,0.0,0.0,0.0,0.0,0.0,0.0,0.0,0.0,0.0,0.0,0.0,0.0,0.0,0.0,0.0,0.0,0.0,4.294,4.4339,4.4983,4.7038,5.0618,5.0729,5.1206,5.1982,5.1192,4.9133,4.6017,4.3125,0.0,0.0,0.0,0.0,0.0,4.14,0.0,0.0,0.0,0.0,0.0,0.0,0.0,0.0,4.5263,4.5669,4.6102,4.7346,0.0,0.0,0.0,0.0,0.0,5.1044,5.2162,5.3034,5.3022,5.2072,5.1066,5.0955,4.9939,4.9044,4.9146,5.0254,5.1235,5.1336,5.3044,5.4262,5.3754,5.5099,5.6984,5.9225,5.9699,6.0704,6.3047,6.4164,6.4681,6.4444,6.4986,6.4884,6.3758,6.3453,6.3047,6.2424,6.2576,6.277,6.2952,6.2554,6.2415,6.246,6.3031,6.3314,6.3229,6.2933,6.3042,6.3434,6.201,6.0544,5.9137,5.913,5.8183,5.6658,5.7443,5.7308,5.6704,5.7443,5.7547,5.732,5.7855,5.8405,5.882,0.0,0.0,0.0,0.0,0.0,0.0,0.0,0.0,0.0,0.0,0.0,0.0,0.0,0.0,0.0,0.0,0.0,0.0,0.0,0.0,0.0,0.0,4.2935,4.3181,4.509,4.5255,4.6787,4.9789,5.0477,5.1206,5.1971,5.122,4.8902,4.5259,4.3063,4.1984,4.1894,0.0,0.0,0.0,4.2388,0.0,0.0,0.0,0.0,0.0,0.0,0.0,0.0,4.4492,4.5616,4.6658,4.6887,0.0,0.0,0.0,0.0,0.0,5.1727,5.2222,5.2344,5.2287,5.1667,5.0935,5.03,4.9573,4.9187,4.9804,5.06,5.137,5.2021,5.2976,5.3822,5.4338,5.6722,5.9293,6.1579,6.2956,6.3463,6.2661,6.4319,6.5019,6.3792,6.3758,6.3994,6.441,6.326,6.2526,6.2391,6.2576,6.2693,6.2765,6.2992,6.2865,6.224,6.2837,6.3041,6.2884,6.2198,6.1941,6.1961,5.9803,5.8708,5.8402,5.7804,5.7391,5.7064,5.6718,5.6486,5.6378,5.6512,5.6579,5.6773,5.7857,5.8012,5.7662,0.0,0.0,0.0,0.0,0.0,0.0,0.0,0.0,0.0,0.0,0.0,0.0,0.0,0.0,0.0,0.0,0.0,0.0,0.0,0.0,0.0,4.4522,4.3878,4.4096,4.5262,4.6141,4.7844,5.0355,5.1543,5.2527,5.3214,5.0053,4.7228,4.4672,4.2552,4.1828,4.2219,0.0,0.0,0.0,0.0,0.0,0.0,0.0,0.0,0.0,0.0,0.0,0.0,0.0,4.6481,4.7455,4.7868,0.0,0.0,0.0,0.0,0.0,5.1368,5.1617,5.1705,5.2043,5.1962,5.1654,5.1331,5.0709,5.0296,5.0634,5.1277,5.2021,5.2799,5.4532,5.6537,5.85,5.9235,6.025,6.2154,6.2651,6.3024,6.3531,6.4488,6.5155,6.5269,6.5269,6.5077,6.4647,6.3971,6.3236,6.2424,6.2576,6.2741,6.2856,6.3142,6.295,6.2194,6.2882,6.2972,6.2511,6.173,6.1525,6.1743,6.0013,5.895,5.8493,5.8217,5.7477,5.6531,5.6773,5.6383,5.565,5.6111,5.6465,5.6851,5.8368,5.8427,5.7725,0.0,0.0,0.0,0.0,0.0,0.0,0.0,0.0,0.0,0.0,0.0,0.0,0.0,0.0,0.0,0.0,0.0,0.0,0.0,0.0,4.4474,4.479,4.4827,4.5102,4.5587,4.6992,4.8786,5.0973,5.2478,5.345,5.3826,4.9085,4.6111,4.4632,4.2605,4.2043,4.2591,4.3152,4.3524,0.0,0.0,0.0,0.0,0.0,0.0,0.0,0.0,0.0,0.0,0.0,0.0,0.0,0.0,0.0,0.0,4.9011,4.9342,4.9981,5.0908,5.1011,5.1085,5.2036,5.1996,5.1857,5.2222,5.1731,5.1336,5.1886,5.2469,5.301,5.3653,5.603,5.877,6.1443,6.1603,6.1873,6.3236,6.3091,6.3429,6.4942,6.5121,6.555,6.669,6.6633,6.6058,6.4952,6.4546,6.3869,6.2719,6.2629,6.2693,6.2856,6.3047,6.2828,6.2121,6.274,6.2752,6.2157,6.1388,6.1214,6.1585,6.0256,5.931,5.8722,5.8526,5.7554,5.6174,5.6882,5.6393,5.5232,5.6036,5.662,5.7168,5.8413,5.8545,5.8109,0.0,0.0,0.0,0.0,0.0,0.0,0.0,0.0,0.0,0.0,0.0,0.0,0.0,0.0,0.0,0.0,0.0,0.0,0.0,0.0,4.4075,4.539,4.5561,4.5909,4.6504,4.7294,4.8767,5.0923,5.2437,5.2927,5.239,4.9218,4.6948,4.5538,4.3958,4.3288,4.3321,4.3382,4.3836,0.0,0.0,0.0,0.0,0.0,0.0,0.0,0.0,0.0,0.0,0.0,0.0,0.0,0.0,0.0,4.9011,4.9011,4.9023,4.9396,5.0868,5.0729,5.0525,5.1998,5.1269,5.0535,5.1983,5.1723,5.181,5.3932,5.4406,5.4439,5.4507,5.6368,5.8432,6.0013,6.3101,6.5571,6.6362,6.7049,6.7218,6.67,6.6633,6.6667,6.6802,6.617,6.574,6.5639,6.4333,6.3511,6.3419,6.2806,6.242,6.244,6.2625,6.2443,6.1838,6.2123,6.2119,6.1821,6.1097,6.0739,6.0756,5.928,5.8675,5.8746,5.7818,5.7157,5.6718,5.6627,5.6162,5.5614,5.6249,5.6945,5.7562,5.7154,5.7761,5.8541,0.0,0.0,0.0,0.0,0.0,0.0,0.0,0.0,0.0,0.0,0.0,0.0,0.0,0.0,0.0,0.0,0.0,0.0,0.0,0.0,4.3858,4.4899,4.4985,4.5337,4.6012,4.8113,5.0051,5.1846,5.3343,5.2998,5.0864,4.8324,4.6371,4.4966,4.3862,4.3666,4.4154,4.4154,4.433,4.4642,0.0,0.0,0.0,0.0,0.0,0.0,0.0,0.0,0.0,0.0,4.7752,4.8571,4.8571,4.8774,4.9011,4.9011,4.9011,4.9229,5.0219,5.0297,5.0456,5.1953,5.1056,0.0,5.2546,5.3179,5.3551,5.4406,5.5691,5.6808,5.7239,5.8795,6.0486,6.1965,6.4184,6.5977,6.67,6.7039,6.7106,6.6836,6.6802,6.6802,6.6802,6.6531,6.6,6.5087,6.4512,6.3792,6.2854,6.256,6.2449,6.2567,6.278,6.2605,6.204,6.2286,6.1796,6.0626,6.035,5.9909,5.9314,5.8742,5.8543,5.8605,5.8218,5.7741,5.7285,5.7209,5.6771,5.6245,5.6934,5.7216,5.7264,5.735,5.7286,5.7087,0.0,0.0,0.0,0.0,0.0,0.0,0.0,0.0,0.0,0.0,0.0,0.0,0.0,0.0,0.0,0.0,0.0,0.0,4.2645,4.2916,4.3396,4.4188,4.4702,4.5169,4.5696,4.8375,5.0506,5.2061,5.3296,5.261,5.0062,4.7783,4.6213,4.5244,4.4248,4.4215,4.4939,4.4709,4.4608,4.4675,4.5399,4.5399,0.0,0.0,0.0,0.0,0.0,0.0,0.0,0.0,4.8394,4.9011,4.9011,4.9011,4.9011,4.9011,4.9011,4.91,4.9573,4.9703,4.9968,5.0903,0.0,4.9946,5.2308,5.3376,5.4165,5.5259,5.6331,5.7245,5.7781,5.9077,6.0648,6.232,6.4534,6.6203,6.6734,6.7005,6.7072,6.6836,6.6802,6.67,6.6474,6.6667,6.6294,6.5053,6.4715,6.4174,6.3135,6.2661,6.2459,6.2586,6.2741,6.2704,6.2445,6.2297,6.1542,6.0175,5.9864,5.9288,5.8499,5.8375,5.8419,5.8587,5.8464,5.8098,5.7621,5.781,5.7578,5.7175,5.7475,5.7463,5.726,5.7085,5.6803,5.6379,0.0,0.0,0.0,0.0,0.0,0.0,0.0,0.0,0.0,0.0,0.0,0.0,0.0,0.0,0.0,0.0,0.0,0.0,4.1163,4.188,4.2625,4.3382,4.4843,4.5696,4.5696,4.7861,4.9752,5.1283,5.2012,5.1596,5.0006,4.7834,4.6793,4.6725,4.5244,4.5007,4.5628,4.4905,4.4608,4.4675,4.5399,4.5696,0.0,0.0,0.0,0.0,0.0,0.0,0.0,0.0,4.8402,4.9011,4.9011,4.9011,4.9011,4.9011,4.9011,4.9011,4.9003,4.9003,4.892,4.8646,4.8608,4.9104,5.099,5.1865,5.3275,5.672,5.6295,5.5352,5.542,5.6564,5.8203,6.0255,6.4088,6.6768,6.6768,6.7421,6.7624,6.6869,6.6768,6.6497,6.5774,6.6328,6.6474,6.574,6.503,6.458,6.458,6.3203,6.2391,6.2391,6.2391,6.2596,6.3,6.2069,6.1328,6.0782,5.9795,5.9037,5.8481,5.8072,5.8241,5.8753,5.8375,5.7976,5.7647,5.8262,5.8499,5.8457,5.7835,5.7706,5.7694,5.6176,5.6213,5.6853,0.0,0.0,0.0,0.0,0.0,0.0,0.0,0.0,0.0,0.0,0.0,0.0,0.0,0.0,0.0,0.0,0.0,0.0,4.1921,4.1677,4.2077,4.3348,4.3829,4.4343,4.4905,4.659,4.8444,5.0472,5.0688,4.9756,4.7744,4.7121,4.6259,4.5244,4.5338,4.5203,4.4905,4.4709,4.4608,4.4709,4.5981,4.6143,0.0,0.0,0.0,0.0,0.0,0.0,0.0,0.0,0.0,0.0,4.9011,4.9011,4.9011,4.9011,4.9011,4.8853,4.8193,4.8397,4.8737,4.8453,4.8561,4.9249,5.1226,5.1721,5.2853,5.6871,5.6808,5.6495,5.7886,5.8924,5.987,6.0936,6.3421,6.5246,6.5246,6.5899,6.6068,6.5358,6.5246,6.5358,6.5672,6.5425,6.5155,6.4952,6.4231,6.3599,6.3067,6.2627,6.2391,6.2391,6.2528,6.2654,6.278,6.216,6.1375,6.0508,5.9679,5.8867,5.8063,5.7945,5.7991,5.8144,5.8027,5.8015,5.8034,5.8219,5.8464,5.8692,5.8365,5.7775,5.7116,5.7211,5.6726,5.6069,0.0,0.0,0.0,0.0,0.0,0.0,0.0,0.0,0.0,0.0,0.0,0.0,0.0,0.0,0.0,0.0,0.0,0.0,0.0,4.1441,4.1738,4.2922,4.3254,4.3896,4.5,4.6184,4.73,4.8342,4.8927,4.8236,4.638,4.6658,4.6327,4.5481,4.5947,4.5879,4.5447,4.5169,4.5034,4.5135,4.6319,4.6718,4.6677,0.0,0.0,0.0,0.0,0.0,0.0,0.0,0.0,0.0,4.9011,4.9011,4.9011,4.9011,4.8751,4.8372,4.8068,4.8051,4.8149,4.8415,4.8799,4.9592,5.1186,5.2455,5.4016,5.6625,5.6684,5.6868,5.886,5.9554,6.0247,6.166,6.3428,6.4613,6.4613,6.4986,6.5097,6.4647,6.4613,6.4647,6.4816,6.4681,6.4478,6.4208,6.3758,6.3318,6.2854,6.256,6.2391,6.2391,6.2227,6.2164,6.2251,6.1278,6.0495,5.9939,5.9127,5.8449,5.7924,5.8195,5.8277,5.8117,5.8045,5.8072,5.818,5.818,5.8357,5.8526,5.8254,5.7913,5.7567,5.7504,5.7245,5.6961,0.0,0.0,0.0,0.0,0.0,0.0,0.0,0.0,0.0,0.0,0.0,0.0,0.0,0.0,0.0,0.0,0.0,0.0,0.0,0.0,4.1542,4.2266,4.3159,4.4302,4.5763,4.638,4.638,4.5696,4.7041,4.6974,4.5628,4.6421,4.6793,4.6793,4.6793,4.6793,4.6759,4.594,4.5628,4.5763,4.6481,4.7259,4.7913,4.7913,0.0,0.0,0.0,0.0,0.0,0.0,0.0,0.0,4.9011,4.9011,4.8969,4.8892,4.8265,4.7704,4.8208,4.7758,4.7398,4.8407,4.9333,5.0264,5.1248,5.3837,5.605,5.6117,5.609,5.6765,5.8954,5.9249,6.0013,6.254,6.3873,6.458,6.4512,6.4512,6.4478,6.441,6.441,6.4174,6.3555,6.4038,6.413,6.3555,6.3453,6.3409,6.3409,6.2753,6.2391,6.2391,6.167,6.1395,6.1561,5.987,5.9081,5.925,5.8354,5.7891,5.7924,5.8583,5.8751,5.8437,5.8234,5.8153,5.8153,5.8153,5.8162,5.8182,5.7817,5.8093,5.853,5.7411,5.7763,5.8746,0.0,0.0,0.0,0.0,0.0,0.0,0.0,0.0,0.0,0.0,0.0,0.0,0.0,0.0,0.0,0.0,0.0,0.0,0.0,0.0,4.1542,4.2266,4.4174,4.5628,4.6556,4.6143,4.5865,4.5696,4.6034,4.5696,4.4871,4.6184,4.6793,4.6793,4.6793,4.6793,4.6725,4.5413,4.5169,4.5763,4.6481,4.7259,4.7913,4.7913,4.836,0.0,0.0,0.0,0.0,0.0,0.0,0.0,4.9011,4.9011,4.8853,4.8129,4.777,4.7419,4.6565,4.6566,4.7074,4.8122,5.0434,5.2623,5.3402,5.4895,5.6025,5.5524,5.62,5.7775,6.0759,6.128,6.1907,6.3875,6.4427,6.441,6.3825,6.3758,6.3521,6.2932,6.2864,6.3024,6.3453,6.3125,6.3057,6.3477,6.2956,6.2627,6.2627,6.2492,6.2391,6.2391,6.167,6.1318,6.1366,5.9785,5.9007,5.9053,5.8281,5.7891,5.79,5.806,5.8105,5.8018,5.7972,5.7954,5.7954,5.7954,5.8045,5.8207,5.8293,5.8039,5.7671,5.8179,5.8084,5.7766,0.0,0.0,0.0,0.0,0.0,0.0,0.0,0.0,0.0,0.0,0.0,0.0,0.0,0.0,0.0,0.0,0.0,0.0,0.0,0.0,4.1705,4.2787,4.4681,4.5703,4.5751,4.5703,4.5534,4.5169,4.5169,4.4973,0.0,4.6123,4.6793,4.6827,4.7158,4.7124,4.6759,4.5988,4.5887,4.6278,4.7022,4.7556,4.7913,4.7913,4.7928,0.0,0.0,0.0,0.0,0.0,0.0,0.0,0.0,0.0,4.8822,4.7868,4.7518,4.7227,4.6406,4.6566,4.7509,4.9629,5.1959,5.3832,5.4521,5.5461,5.6192,5.6119,5.6885,5.8572,6.1821,6.2416,6.2904,6.4345,6.4613,6.4208,6.3125,6.2956,6.2821,6.2458,6.2391,6.256,6.2956,6.2627,6.256,6.2946,6.2627,6.2391,6.2391,6.2391,6.2255,6.1873,6.1129,6.0554,6.0206,5.9066,5.8457,5.8457,5.8094,5.7891,5.7891,5.7891,5.8094,5.8423,5.806,5.7891,5.79,5.7991,5.8036,5.8072,5.8393,5.8164,5.7795,5.8441,5.8305,5.797,0.0,0.0,0.0,0.0,0.0,0.0,0.0,0.0,0.0,0.0,0.0,0.0,0.0,0.0,0.0,0.0,0.0,0.0,0.0,0.0,0.0,4.3524,4.4952,4.5466,4.498,4.5466,4.5399,4.4804,4.4675,0.0,0.0,0.0,0.0,4.7199,4.7556,4.7522,4.7165,4.6759,4.6691,4.6861,4.7455,4.7718,4.7684,4.7582,0.0,0.0,0.0,0.0,0.0,0.0,0.0,0.0,0.0,0.0,4.8569,4.7614,4.7088,4.67,4.6365,4.6952,4.8386,5.1439,5.3204,5.4401,5.5192,5.588,5.6521,5.7167,5.7709,5.9119,6.2404,6.3016,6.3402,6.458,6.4681,6.414,6.2797,6.2492,6.2391,6.2391,6.2391,6.2391,6.2391,6.2391,6.2391,6.2391,6.2391,6.2391,6.2391,6.2289,6.1917,6.1332,6.0419,5.9631,5.9022,5.8263,5.7891,5.7891,5.7891,5.7891,5.7891,5.7891,5.822,5.8786,5.8152,5.7891,5.7909,5.8072,5.8036,5.7927,5.8312,5.8339,5.8153,5.8384,5.8437,5.8437,0.0,0.0,0.0,0.0,0.0,0.0,0.0,0.0,0.0,0.0,0.0,0.0,0.0,0.0,0.0,0.0,0.0,0.0,0.0,0.0,0.0,4.4364,4.5263,4.594,4.6488,4.5974,4.5662,4.5561,0.0,0.0,0.0,0.0,0.0,4.8638,0.0,4.7597,4.8578,4.6643,4.621,4.6827,4.6928,4.6962,4.6887,0.0,0.0,0.0,0.0,0.0,0.0,0.0,4.9011,0.0,0.0,0.0,4.7581,4.6653,4.5787,4.5053,4.4709,4.6768,4.9546,5.1678,5.3204,5.4521,5.5773,5.6539,5.7154,5.7829,5.8038,5.9119,6.2404,6.3016,6.3575,6.5274,6.5019,6.4309,6.3487,6.2787,6.2391,6.2391,6.2391,6.2391,6.2391,6.2391,6.2391,6.2391,6.2391,6.2391,6.2391,6.1772,6.14,6.1298,5.9902,5.909,5.9013,5.8263,5.7891,5.7891,5.7891,5.7891,5.7891,5.7891,5.7958,5.8026,5.7924,5.7891,5.7891,5.7927,5.7918,5.7918,5.8135,5.8099,5.7954,5.8187,5.8117,5.8018,0.0,0.0,0.0,0.0,0.0,0.0,0.0,0.0,0.0,0.0,0.0,0.0,0.0,0.0,0.0,0.0,0.0,0.0,0.0,0.0,0.0,4.3876,4.4241,4.4783,4.5548,4.4816,4.4613,4.5067,0.0,0.0,0.0,4.6244,4.6981,0.0,0.0,0.0,0.0,4.5264,4.4988,4.6174,4.6095,4.5883,0.0,0.0,0.0,0.0,0.0,0.0,0.0,0.0,4.6873,4.6931,4.73,0.0,0.0,0.0,4.5357,4.5503,4.6305,4.8147,5.0272,5.2258,5.3473,5.4461,5.5431,5.6389,5.7184,5.7483,5.8128,5.9544,6.2468,6.3016,6.3575,6.5409,6.5097,6.4333,6.3612,6.2854,6.2391,6.2391,6.2391,6.2391,6.2391,6.2391,6.2391,6.2391,6.2391,6.2391,6.2391,6.1704,6.1095,6.0655,5.9564,5.8786,5.8389,5.806,5.7891,5.7891,5.7891,5.7891,5.7891,5.7891,5.7891,5.7891,5.7891,5.7891,5.7891,5.7891,5.7891,5.79,5.7991,5.7972,5.7909,5.7991,5.8036,5.814,0.0,0.0,0.0,0.0,0.0,0.0,0.0,0.0,0.0,0.0,0.0,0.0,0.0,0.0,0.0,0.0,0.0,0.0,0.0,0.0,0.0,4.278,4.3186,4.3599,4.3992,4.344,4.341,0.0,0.0,0.0,4.6451,4.6123,4.688,0.0,4.6802,4.6671,0.0,0.0,0.0,0.0,0.0,4.4397,0.0,0.0,0.0,0.0,0.0,0.0,0.0,4.4746,4.5186,4.5314,4.5984,4.6023,0.0,0.0,0.0,4.5468,4.7074,4.8345,4.974,5.1887,5.3054,5.4012,5.5192,5.6299,5.7197,5.7543,5.8411,5.9802,6.2057,6.2755,6.3575,6.5409,6.5233,6.4546,6.3622,6.3024,6.2627,6.2424,6.2391,6.2391,6.2391,6.2391,6.2391,6.2391,6.2391,6.2391,6.2391,6.1501,6.0723,6.0114,5.9191,5.8457,5.79,5.7891,5.7891,5.7891,5.7891,5.7789,5.762,5.762,5.762,5.762,5.7823,5.7891,5.7891,5.7891,5.7891,5.7891,5.7891,5.7891,5.79,5.7954,5.8027,5.8228,0.0,0.0,0.0,0.0,0.0,0.0,0.0,0.0,0.0,0.0,0.0,0.0,0.0,0.0,0.0,4.0276,4.0113,4.0113,4.014,4.0804,4.1231,4.1299,4.2645,0.0,4.2428,4.2375,4.2367,0.0,0.0,0.0,4.5596,4.6365,4.7909,4.994,4.8431,4.8566,4.9723,0.0,0.0,0.0,0.0,0.0,0.0,0.0,0.0,0.0,0.0,0.0,4.341,4.4763,4.5186,4.5314,4.5984,4.5588,4.4868,0.0,0.0,0.0,4.5085,4.5982,4.7127,4.9699,5.1337,5.2965,5.5564,5.6628,5.7453,5.874,5.9069,5.9496,6.0866,6.2144,6.3575,6.5409,6.5672,6.5121,6.369,6.3477,6.3183,6.2492,6.2391,6.2391,6.2391,6.2391,6.2391,6.2391,6.2391,6.2391,6.2391,6.0994,6.0148,6.0114,5.8703,5.7934,5.7891,5.7891,5.7891,5.7891,5.7891,5.7518,5.6867,5.6867,5.6867,5.69,5.7586,5.7891,5.7891,5.7891,5.7891,5.7891,5.7891,5.7891,5.7918,5.8099,5.8054,5.7997,0.0,0.0,0.0,0.0,0.0,0.0,0.0,0.0,0.0,0.0,0.0,0.0,0.0,4.2591,4.1887,4.0906,4.0377,4.0113,4.0113,4.0337,4.0912,4.1853,4.2422,4.3037,4.3755,4.2763,0.0,0.0,0.0,4.2353,4.5492,4.5326,4.6732,4.9307,4.7263,4.6903,4.7623,4.396,0.0,0.0,0.0,0.0,0.0,0.0,0.0,0.0,3.9042,3.982,4.0918,4.18,4.2683,4.3503,0.0,0.0,0.0,4.3839,4.3907,4.4147,4.5035,4.6112,4.7358,4.9164,5.0601,5.1905,5.3336,5.4803,5.6149,5.7047,5.7902,5.8987,6.0684,6.2094,6.3479,6.4962,6.5091,6.4816,6.4265,6.3396,6.2685,6.2424,6.2391,6.2391,6.2391,6.2391,6.2391,6.2391,6.2391,6.2391,6.2391,6.1434,6.0622,6.0114,5.9124,5.8389,5.7891,5.7891,5.7891,5.7891,5.7891,5.7755,5.7518,5.7518,5.7518,5.7518,5.7789,5.7891,5.7891,5.7891,5.7891,5.7891,5.7891,5.7972,5.814,5.8551,5.8837,5.9119,0.0,0.0,0.0,0.0,0.0,0.0,0.0,0.0,0.0,0.0,0.0,0.0,0.0,0.0,4.1988,4.1265,4.0973,4.0851,4.0851,4.0851,4.1291,4.2266,4.253,4.2915,4.3378,4.2565,0.0,0.0,0.0,0.0,0.0,4.4372,4.5882,4.8494,4.6455,4.6406,0.0,0.0,0.0,4.3307,0.0,0.0,4.0032,0.0,0.0,3.8202,3.8361,3.8823,3.9511,4.0178,4.0825,4.1583,0.0,0.0,0.0,0.0,4.3638,4.4117,4.4785,4.5783,4.707,4.8858,4.9924,5.096,5.2516,5.3892,5.5179,5.6282,5.7363,5.857,6.0093,6.1451,6.2755,6.4035,6.4509,6.4516,6.4036,6.3502,6.3067,6.2787,6.256,6.2492,6.2753,6.2313,6.2018,6.2018,6.2018,6.2018,6.2018,6.1569,6.0825,5.9766,5.9022,5.8389,5.7891,5.7891,5.7789,5.7518,5.7518,5.7408,5.7171,5.7171,5.7315,5.7518,5.7518,5.7688,5.7891,5.7891,5.7891,5.7891,5.762,5.776,5.814,5.8576,5.8997,5.9518,0.0,0.0,0.0,0.0,0.0,0.0,0.0,0.0,0.0,0.0,0.0,0.0,0.0,0.0,0.0,4.1234,4.1848,4.2273,4.226,4.226,4.2266,4.2327,4.3003,4.2632,4.1084,4.1645,0.0,0.0,0.0,0.0,0.0,0.0,4.5505,4.7531,4.6282,4.7293,4.9774,0.0,4.627,4.5987,4.0572,3.9291,4.0478,3.894,3.8751,3.9391,4.0058,3.9909,3.9511,4.0148,3.9969,3.984,0.0,0.0,0.0,0.0,0.0,0.0,0.0,0.0,0.0,4.8539,4.9198,5.0085,5.3282,5.4059,5.4628,5.6585,5.75,5.8218,5.8949,6.008,6.1339,6.2658,6.4,6.4374,6.2925,6.3823,6.4333,6.3622,6.2888,6.2719,6.3443,6.2202,6.1332,6.1332,6.1332,6.1332,6.1332,6.1298,6.0578,5.909,5.8287,5.7891,5.7891,5.7891,5.7518,5.6833,5.6799,5.6418,5.5767,5.5733,5.6139,5.6833,5.6833,5.7239,5.7891,5.7891,5.79,5.7789,5.7103,5.7282,5.7927,5.8176,5.8588,5.9146,0.0,0.0,0.0,0.0,0.0,0.0,0.0,0.0,0.0,0.0,0.0,0.0,0.0,0.0,0.0,4.0867,4.1036,4.1207,4.1368,4.1377,4.1869,4.303,4.274,4.2572,4.2674,4.1613,0.0,0.0,0.0,0.0,0.0,0.0,0.0,0.0,4.5853,4.6035,4.5725,4.3951,4.3063,4.2576,3.9586,3.8657,3.8888,3.7545,3.7144,3.7323,3.7503,3.8353,3.9421,3.9601,4.0516,4.1733,0.0,0.0,0.0,0.0,0.0,0.0,4.3539,0.0,0.0,0.0,0.0,0.0,4.9613,5.0649,5.1864,5.3875,5.482,5.5914,5.7995,5.8657,5.9174,6.0023,6.2401,6.3957,6.355,6.4124,6.4512,6.4333,6.3622,6.3284,6.3477,6.2651,6.2086,6.2086,6.2086,6.2086,6.2086,6.1028,6.025,5.981,5.8558,5.7891,5.7891,5.7383,5.7273,5.7586,5.6519,5.6452,5.7273,5.6722,5.69,5.7586,5.7586,5.7721,5.7891,5.7891,5.7586,5.7137,5.7485,5.7812,5.8226,5.922,6.0111,6.0821,0.0,0.0,0.0,0.0,0.0,0.0,0.0,0.0,0.0,0.0,0.0,0.0,0.0,0.0,0.0,4.1565,4.1876,4.1997,4.1843,4.1841,4.2141,4.2786,4.237,4.2276,4.2615,4.1926,4.1234,0.0,0.0,0.0,0.0,0.0,0.0,0.0,0.0,0.0,0.0,4.2071,4.1491,4.1404,3.9559,3.899,3.911,3.8093,3.8071,3.8529,3.8529,3.9448,4.0516,3.969,4.0546,4.2012,4.2063,0.0,0.0,0.0,0.0,0.0,0.0,0.0,0.0,4.6292,0.0,0.0,4.8824,4.9482,5.0391,5.2378,5.3336,5.4491,5.6885,5.7304,5.7603,5.8517,6.0702,6.2429,6.2947,6.3737,6.4457,6.5002,6.44,6.3961,6.3961,6.299,6.2255,6.1951,6.1941,6.1941,6.1941,6.0757,5.9945,5.9631,5.85,5.7891,5.7891,5.7476,5.7315,5.7417,5.6249,5.6316,5.7417,5.6697,5.69,5.7891,5.7891,5.7891,5.7891,5.7891,5.7654,5.7239,5.7036,5.7616,5.8612,5.9373,6.0374,6.1394,0.0,0.0,0.0,0.0,0.0,0.0,0.0,0.0,0.0,0.0,0.0,0.0,0.0,0.0,0.0,0.0,4.3438,4.354,4.2903,4.2848,4.2586,4.2045,4.1989,4.1833,4.1594,4.2204,4.1845,0.0,0.0,0.0,0.0,0.0,0.0,0.0,0.0,0.0,0.0,4.1242,4.1043,4.1317,3.9858,3.9729,4.0307,3.949,3.9969,4.1074,4.1074,4.1502,4.1783,3.9939,4.0244,4.1294,4.0724,4.2225,0.0,0.0,4.4307,0.0,0.0,0.0,0.0,0.0,4.7698,0.0,4.9489,4.9523,4.9696,5.151,5.2348,5.3408,5.5474,5.5863,5.6269,5.747,5.8852,6.0241,6.1591,6.2906,6.4178,6.5451,6.4969,6.4538,6.4603,6.3328,6.2221,6.1467,6.1366,6.1298,6.1298,6.0452,5.9665,5.9013,5.8287,5.7891,5.7891,5.7721,5.7417,5.69,5.6012,5.6046,5.69,5.6147,5.6587,5.7891,5.7891,5.7891,5.7891,5.7823,5.7789,5.7654,5.6519,5.7255,5.9013,5.9081,6.0037,6.1182,0.0,0.0,0.0,0.0,0.0,0.0,0.0,0.0,0.0,0.0,0.0,0.0,0.0,0.0,0.0,0.0,4.2898,4.2493,4.198,4.1961,4.196,4.1981,4.1838,4.1496,4.0916,4.1377,4.1252,0.0,0.0,0.0,0.0,0.0,0.0,0.0,0.0,0.0,0.0,4.0932,4.0399,3.9042,3.872,3.932,4.0217,3.8473,3.8302,3.8999,3.8999,3.9409,3.9879,3.9145,4.0017,4.141,4.1505,4.2442,4.3688,4.4636,0.0,0.0,0.0,0.0,0.0,4.6491,4.6999,0.0,4.7777,4.8177,4.8768,4.9666,4.9977,5.0803,5.3318,5.3797,5.4054,5.4837,5.6487,5.8485,6.0838,6.2333,6.362,6.4895,6.4421,6.4137,6.4555,6.3792,6.299,6.2255,6.1637,6.1298,6.1298,5.9969,5.9158,5.9013,5.8287,5.7891,5.7891,5.6722,5.6655,5.7654,5.5725,5.5827,5.7654,5.6934,5.707,5.7891,5.7891,5.7891,5.7857,5.7273,5.7002,5.7103,5.7999,5.8607,5.9081,5.9674,6.0486,6.1114,0.0,0.0,0.0,0.0,0.0,0.0,0.0,0.0,0.0,0.0,0.0,0.0,0.0,0.0,0.0,0.0,0.0,0.0,4.2077,4.2043,4.1805,4.1244,4.1421,4.1383,4.1066,4.1597,4.1733,4.1403,0.0,0.0,0.0,0.0,0.0,0.0,0.0,0.0,0.0,3.9978,4.0226,3.9817,3.879,3.879,3.9269,3.7904,3.8024,3.8901,3.8901,3.9101,3.9396,3.9315,4.047,4.1838,4.144,4.2928,4.4865,4.5214,4.5544,4.5802,4.5802,4.6052,4.6471,4.7119,4.7309,0.0,0.0,4.7788,4.8098,4.9108,4.9037,4.9516,5.1768,5.1947,5.2235,5.394,5.5029,5.6333,5.8349,6.0558,6.25,6.3779,6.3314,6.3095,6.3613,6.3016,6.2383,6.1878,6.1501,6.095,6.0172,5.9419,5.8819,5.8457,5.8094,5.7891,5.7891,5.7171,5.7171,5.7891,5.6402,5.647,5.7857,5.7137,5.7205,5.7891,5.7891,5.7891,5.7857,5.7485,5.7349,5.7383,5.7771,5.8583,5.9597,5.9969,6.0622,6.1139,0.0,0.0,0.0,0.0,0.0,0.0,0.0,0.0,0.0,0.0,0.0,0.0,0.0,0.0,0.0,0.0,0.0,0.0,4.261,4.2341,4.1682,4.0457,4.1035,4.1283,4.1005,4.1922,4.2351,4.2191,0.0,0.0,0.0,0.0,0.0,0.0,0.0,0.0,0.0,3.8982,3.971,4.0365,3.8979,3.87,3.9068,3.8153,3.8533,3.9571,3.9451,3.9354,3.9271,3.9409,4.077,4.2288,4.1443,4.3525,4.6271,4.6112,4.6651,4.7249,4.6939,4.7358,4.7927,4.8218,4.8087,4.7897,0.0,0.0,0.0,4.8708,4.8487,4.8637,5.032,5.0189,5.0548,5.2713,5.3503,5.4162,5.5102,5.7796,6.0272,6.1872,6.1691,6.1714,6.2454,6.1975,6.1524,6.1332,6.1028,6.0308,5.9081,5.8853,5.8524,5.7924,5.7891,5.7891,5.7891,5.7755,5.7755,5.7891,5.7137,5.7171,5.7891,5.7282,5.7349,5.7891,5.7891,5.7891,5.7891,5.7891,5.7891,5.7857,5.7543,5.8524,6.0114,6.0114,6.0622,6.1163,4.33,4.33,0.0,0.0,0.0,0.0,0.0,0.0,0.0,0.0,0.0,0.0,0.0,0.0,0.0,0.0,0.0,4.273,4.3249,4.2182,4.1194,4.0427,4.1035,4.0825,3.966,4.1463,4.2101,4.1523,4.2631,0.0,0.0,0.0,0.0,0.0,3.905,3.8575,3.8669,3.8545,3.8028,3.7311,3.808,3.9817,4.1742,3.9888,3.964,4.0208,3.9601,3.9132,3.8706,3.8282,4.0096,4.2572,4.2587,4.4285,4.6629,4.8338,4.8098,4.7549,4.8648,4.9404,4.962,4.8566,4.9093,4.9441,4.7777,0.0,4.8068,4.7608,0.0,4.7668,4.8487,0.0,0.0,4.8936,5.09,5.2276,5.1846,5.3638,5.5881,5.8346,5.9126,6.0052,6.1665,6.1541,6.1341,6.1289,6.0037,5.9182,5.9013,5.8389,5.7992,5.7891,5.7891,5.7891,5.7891,5.7239,5.7239,5.7891,5.7137,5.7171,5.7891,5.7823,5.7823,5.7891,5.7891,5.7891,5.7891,5.7891,5.7891,5.8026,5.9235,5.9877,6.0114,6.0114,6.0622,6.1095,0.0,0.0,0.0,0.0,0.0,0.0,0.0,0.0,0.0,4.5523,0.0,0.0,0.0,0.0,0.0,0.0,4.4207,4.3639,4.3888,4.302,0.0,4.1583,4.2162,4.1883,4.0576,4.1772,4.2261,4.1982,4.2511,4.2661,0.0,0.0,0.0,3.9349,3.8126,3.7438,3.7269,3.83,3.8663,3.863,4.0134,4.1392,4.2141,3.9718,3.923,3.9707,3.8802,3.8551,3.8414,3.6975,3.9489,4.2876,4.1187,4.4055,4.7996,4.7691,4.8021,4.8577,4.9168,4.9486,4.9565,4.9007,4.8996,4.8884,4.8068,4.7788,4.7758,4.7848,0.0,0.0,0.0,0.0,0.0,0.0,4.9786,5.0552,5.0607,5.1684,5.344,5.6094,5.5633,5.5663,5.7096,5.9064,5.9725,5.8444,5.8737,5.865,5.7771,5.7857,5.7891,5.7891,5.7485,5.7273,5.7273,5.6519,5.6519,5.7273,5.6934,5.7171,5.7891,5.7891,5.7891,5.7891,5.7891,5.7891,5.7891,5.7891,5.7891,5.7992,5.9066,5.9708,6.0148,6.0612,6.1028,6.1231,0.0,0.0,0.0,0.0,0.0,0.0,0.0,0.0,4.664,4.633,4.6869,4.7029,4.636,4.63,4.6091,0.0,4.4785,4.4366,4.4546,4.3778,4.302,4.244,4.283,4.2542,4.1433,4.2071,4.241,4.241,4.258,4.2551,4.2371,0.0,0.0,0.0,3.7729,3.6822,3.6307,3.8294,3.8993,3.8988,4.1016,4.1742,4.1383,3.9628,3.9059,3.9118,3.833,3.8107,3.7995,3.6652,3.9147,4.2486,4.046,4.3578,4.7734,4.6521,4.7399,4.8812,4.8978,4.9534,4.9977,4.9438,4.9067,4.8686,4.8158,4.8057,4.8136,4.8278,4.8476,0.0,0.0,0.0,4.8356,4.9168,0.0,4.9396,4.965,5.011,5.1247,5.3563,5.3309,5.352,5.4905,5.7292,5.8029,5.6316,5.7296,5.7588,5.6849,5.7306,5.7688,5.7891,5.7374,5.7002,5.6799,5.6452,5.6452,5.6799,5.7002,5.7374,5.7891,5.7891,5.7891,5.7891,5.7891,5.7891,5.7891,5.7891,5.7891,5.7958,5.8718,5.9462,6.0182,6.0757,6.1129,6.1298,0.0,4.2538,0.0,0.0,4.3319,4.3579,4.4267,4.4945,4.5603,4.6211,4.6869,4.7029,4.636,4.63,4.63,4.6271,4.5044,4.4576,4.5225,4.4027,4.302,4.244,4.241,4.2101,4.1403,4.2071,4.241,4.241,4.299,4.296,4.2381,4.119,4.0261,3.9537,3.8237,3.7152,3.6447,3.8562,3.8218,3.6459,3.9317,4.0098,3.9571,4.0127,3.9653,3.8716,3.8678,3.8003,3.7234,3.7734,3.9274,4.1061,4.1485,4.3017,4.4783,4.5363,4.6445,4.7599,4.8182,5.0175,5.166,4.9756,4.9733,4.9639,4.7747,4.8783,4.977,4.8547,5.0313,5.1636,5.0357,5.0117,0.0,0.0,0.0,0.0,0.0,4.8368,4.8895,5.0207,5.3059,5.5655,5.7508,5.7128,5.6624,5.6224,5.5578,5.5705,5.6745,5.6833,5.7171,5.7891,5.7891,5.7518,5.6799,5.7485,5.7485,5.6799,5.7518,5.7891,5.7891,5.7891,5.7891,5.7891,5.7891,5.7891,5.7891,5.7891,5.7891,5.7958,5.8718,5.9462,6.0114,6.0148,6.0622,6.1298,0.0,0.0,0.0,0.0,4.267,4.2563,4.3664,4.4723,4.5922,4.7421,4.7818,4.8027,4.8248,4.8278,4.8098,4.7668,4.68,4.5843,4.4781,4.4658,4.397,4.2482,4.3622,4.3258,4.0937,4.2278,4.2039,4.0084,4.103,4.1191,4.0597,3.9827,3.9131,3.8493,3.7295,3.6197,3.5398,3.7723,3.8253,3.7655,3.9723,4.0362,4.0071,3.9498,3.9044,3.8569,3.748,3.7107,3.7075,3.6982,3.8695,4.0769,4.0061,4.2295,4.4967,4.3899,4.5677,4.8134,4.8781,5.0545,5.2037,5.139,5.0709,4.9908,4.8876,4.9452,4.9968,4.9127,5.0702,5.1947,5.1026,5.0877,0.0,0.0,0.0,0.0,0.0,4.7919,4.8405,5.0531,5.2185,5.2884,5.2245,5.3803,5.4063,5.2099,5.3503,5.4387,5.4283,5.5893,5.69,5.7171,5.7171,5.7036,5.6799,5.6553,5.6553,5.6799,5.7036,5.7417,5.7891,5.7891,5.7891,5.7891,5.7891,5.8186,5.8626,5.8626,5.8626,5.8684,5.9428,5.9564,5.9496,6.052,6.1366,6.2018,3.9903,0.0,0.0,4.1881,4.1653,4.181,4.3355,4.4616,4.609,4.8033,4.8528,4.8828,4.9258,4.9288,4.9048,4.8368,4.7919,4.6923,4.5193,4.545,4.499,4.3515,4.4202,4.3567,4.1367,4.2212,4.1638,3.9527,4.0459,4.0714,4.031,3.936,3.8696,3.8275,3.734,3.6194,3.5159,3.7753,3.856,3.8297,3.9664,3.9986,3.9479,3.8491,3.8254,3.828,3.7042,3.6821,3.7083,3.678,3.8256,4.0038,3.9171,4.1126,4.3558,4.282,4.4959,4.7799,4.8688,5.0345,5.1846,5.1846,5.1176,5.0458,5.0074,5.0828,5.1385,5.0493,5.2091,5.3264,5.2127,5.1905,0.0,0.0,0.0,0.0,0.0,4.7578,4.7983,4.9887,5.0748,5.0917,5.0318,5.1655,5.1714,4.9605,5.1401,5.257,5.2631,5.4443,5.5851,5.6781,5.6799,5.6799,5.6799,5.6596,5.6383,5.6206,5.6864,5.7226,5.7316,5.7735,5.7891,5.7891,5.7891,5.8161,5.8626,5.8887,5.9013,5.9081,5.981,5.9979,5.9936,6.0917,6.1782,6.2391,3.9829,4.0153,4.042,3.9892,4.0355,4.1413,4.3274,4.4669,4.6189,4.8123,4.9007,4.9438,4.9438,4.9438,4.9168,4.8397,4.8338,4.7736,4.6335,4.6298,4.5978,4.5208,4.4093,4.3182,4.2488,4.1848,4.1235,4.0574,4.115,4.1391,4.1327,3.9641,3.8868,3.8836,3.8289,3.7099,3.5701,3.8588,3.9194,3.827,3.9221,3.8945,3.7927,3.7329,3.749,3.7962,3.7333,3.7142,3.7198,3.7274,3.8002,3.8894,3.8919,3.966,4.0789,4.2183,4.4361,4.6599,4.7974,4.9804,5.1295,5.1325,5.1325,5.1307,5.1307,5.2803,5.3832,5.2516,5.4354,5.5593,5.3588,5.3198,5.2558,0.0,0.0,0.0,4.7489,4.7309,4.7549,4.8158,4.8768,4.9859,5.1638,5.0807,4.9729,4.8738,4.9326,5.0387,5.1816,5.2607,5.4189,5.6671,5.6745,5.6761,5.6761,5.7391,5.6826,5.511,5.6897,5.7194,5.6175,5.726,5.7763,5.7763,5.7824,5.7876,5.7977,5.8773,5.9096,5.9173,5.9892,6.068,6.1366,6.1366,6.1806,6.2391,3.8403,3.8597,3.8647,3.8518,4.0465,4.2235,4.2837,4.5194,4.7573,4.9472,5.0739,5.145,5.145,5.145,5.0792,4.9187,4.9048,4.8071,4.5779,4.6522,4.5892,4.3336,4.4292,4.3511,4.0572,4.1648,4.1081,3.8699,3.9737,4.0003,3.9536,3.8641,3.8228,3.8241,3.8553,3.7487,3.5701,3.8588,3.965,3.9448,3.9705,3.9618,3.9172,3.7711,3.7809,3.8546,3.753,3.7199,3.7336,3.819,3.8668,3.8969,3.9358,3.9948,4.0789,4.2183,4.4361,4.6696,4.8555,5.0839,5.2827,5.3312,5.3054,5.2677,5.2677,5.3473,5.3952,5.3126,5.4695,5.5593,5.3588,5.3198,5.2558,5.0536,0.0,0.0,4.7429,4.7309,4.7369,4.7549,4.7279,4.7649,4.9112,4.9408,4.8808,4.7074,4.8264,4.9343,5.0042,5.2445,5.447,5.5943,5.6213,5.6369,5.6369,5.5742,5.5201,5.4722,5.5385,5.55,5.5247,5.552,5.5683,5.5746,5.679,5.7536,5.8171,5.9602,6.028,6.0483,6.1234,6.178,6.212,6.212,6.2255,6.2391,3.8642,3.8743,3.8743,3.8743,4.1006,4.2976,4.3456,4.5003,4.7103,4.9839,5.1116,5.1636,5.1367,5.1846,5.142,4.9468,4.8794,4.761,4.552,4.5565,4.4818,4.3018,4.344,4.2637,4.0283,4.0923,4.0326,3.8391,3.9303,3.9571,3.9245,3.8655,3.8241,3.804,3.863,3.8233,3.7203,3.9347,4.0144,3.9943,3.9593,3.9142,0.0,3.7843,3.7952,3.8454,3.809,3.7939,3.8039,3.8693,3.9044,3.9283,3.9609,4.0642,4.2048,4.3438,4.5633,4.8005,5.0009,5.1622,5.3007,5.3952,5.3922,5.3725,5.3994,5.4371,5.4521,5.4144,5.4743,5.4803,5.3097,5.2516,5.1678,4.9692,4.8536,4.7728,4.7369,4.7309,4.7309,4.7309,4.7249,4.7369,4.7829,4.741,4.689,4.633,4.6899,4.7746,4.8865,5.072,5.261,5.4409,5.4845,5.5175,5.5488,5.5189,5.4624,5.386,5.4484,5.4505,5.4041,5.4846,5.5194,5.53,5.6788,5.7671,5.8201,5.9888,6.0674,6.0859,6.1664,6.2086,6.2229,6.2361,6.2391,6.2391,3.9509,3.971,3.9772,3.9697,4.166,4.3688,4.4912,4.5233,4.6602,5.0138,5.1236,5.1445,5.0697,5.1464,5.1262,4.9337,4.7975,4.6698,4.543,4.4333,4.3601,4.3364,4.2301,4.1385,4.0671,4.0045,3.9459,3.8994,3.9459,3.9647,3.9584,3.912,3.858,3.804,3.863,3.9018,3.927,4.0431,4.0545,3.9894,3.9269,3.839,3.7475,3.7939,3.8153,3.8291,3.8818,3.8944,3.8894,3.8969,3.9358,3.9798,3.9798,4.1518,4.3772,4.5186,4.7378,4.9753,5.1672,5.2336,5.2755,5.391,5.4281,5.4478,5.5072,5.5192,5.5192,5.5192,5.473,5.388,5.2456,5.1427,5.023,4.8457,4.7668,4.7339,4.7429,4.7429,4.7429,4.7429,4.7948,0.0,4.7369,4.5802,4.5234,4.6241,4.5832,4.6346,4.8157,4.8808,5.0365,5.2978,5.3428,5.4015,5.4834,5.5038,5.442,5.2956,5.3804,5.3677,5.2776,5.4445,5.5205,5.5291,5.6968,5.7694,5.7832,5.9552,6.0384,6.0642,6.1672,6.2047,6.21,6.2423,6.2526,6.2526,3.9019,3.9747,4.0211,3.9772,4.1828,4.4492,4.7291,4.8949,5.0543,5.2412,5.3755,5.4012,5.2797,5.1856,5.0515,4.8564,4.7112,4.599,4.5194,4.4946,4.4159,4.2669,4.2379,4.1525,3.9943,3.9776,3.9647,3.9559,3.9647,3.9484,3.9044,3.8944,3.858,3.804,3.863,3.9187,3.9753,4.1018,4.059,3.914,3.9488,3.9205,3.8617,3.8718,3.9007,3.9421,3.9534,3.9296,3.8969,3.9409,3.9923,4.0362,4.0362,4.2045,4.4332,4.5755,4.7991,5.0332,5.1791,5.3025,5.391,5.4149,5.461,5.5072,5.5162,5.5192,5.5192,5.5192,5.5089,5.4431,5.2546,5.0331,4.8517,4.7608,4.7369,4.7489,4.8038,4.8128,4.8128,4.8128,4.8218,4.8038,4.7369,4.7489,4.7249,4.636,4.67,4.7222,4.7862,4.9866,5.1923,5.3837,5.4138,5.4878,5.6155,5.3924,5.2913,5.3134,5.2438,5.2025,5.1849,5.2744,5.313,5.3249,5.524,5.6116,5.6228,5.7849,5.9219,6.0398,6.177,6.2332,6.2409,6.3071,6.3318,6.3318,3.9685,3.9923,4.0375,4.1267,4.3371,4.6034,4.9205,5.1594,5.3188,5.366,5.3994,5.3401,5.1334,5.11,5.0016,4.7352,4.5894,4.4833,4.4164,4.3486,4.2749,4.1852,4.1556,4.1015,4.0137,3.9848,3.9697,3.9697,3.9697,3.9559,0.0,3.9308,3.9007,3.8479,3.9147,3.9937,4.0766,4.0774,4.0462,3.9887,3.9509,3.9154,3.8919,3.9208,3.9484,3.9697,3.9697,3.9697,3.9772,4.0023,4.0462,4.1097,4.2173,4.4018,4.616,4.7853,4.9993,5.1957,5.2986,5.3713,5.4269,5.464,5.497,5.5192,5.5192,5.5192,5.5192,5.5192,5.4653,5.3545,5.1546,4.9583,4.8308,4.8338,4.8038,4.8038,4.8708,4.8828,4.8678,4.8338,4.8618,4.8409,4.7399,4.7919,4.7728,4.639,4.6281,4.6553,4.7182,4.8572,5.0363,5.2637,5.333,5.4149,5.5143,5.4491,5.3831,5.3198,5.269,5.2419,5.2449,5.3116,5.3434,5.3543,5.5363,5.6188,5.6308,5.8139,5.9279,6.0065,6.1894,6.2603,6.2734,6.3721,6.4062,6.4062,4.0752,4.0701,4.1153,4.3025,4.5488,4.8096,5.0727,5.3529,5.5233,5.4848,5.3943,5.2505,5.0245,5.0144,4.9078,4.63,4.4771,4.3728,4.3205,4.2221,4.1603,4.1503,4.0951,4.0625,4.0512,3.9973,3.9647,3.9534,3.9647,3.9584,3.9346,3.9484,3.9233,3.8743,3.9793,4.0489,4.0898,4.0446,4.0343,4.038,3.9461,3.9145,3.9296,3.971,3.9948,4.0049,4.0049,4.0387,4.0877,4.0989,4.1316,4.1959,4.3594,4.5737,4.7956,4.9548,5.1633,5.3516,5.4072,5.4299,5.4581,5.5251,5.5311,5.5251,5.5371,5.5311,5.5192,5.5192,5.4264,5.2887,5.1146,4.9912,4.9206,4.9445,4.9176,4.9116,4.9636,4.9816,4.9606,4.8805,4.9307,4.8966,4.707,4.7739,4.7619,4.6001,4.5514,4.5695,4.6556,4.719,4.8564,5.0813,5.2439,5.355,5.4106,5.5112,5.4938,5.3605,5.3348,5.3198,5.3216,5.3892,5.4209,5.4289,5.5688,5.6366,5.6659,5.8728,5.9646,5.9995,6.2175,6.3015,6.3167,6.4331,6.4779,6.4789,4.1909,4.2774,4.3639,4.4328,4.7783,5.0768,5.1669,5.4714,5.6861,5.6842,5.5099,5.3523,5.2728,4.943,4.6926,4.6003,4.4193,4.3083,4.3019,4.2894,4.2637,4.2149,4.1542,4.1001,4.0512,3.9973,3.9459,3.8969,3.9459,3.917,3.8165,3.8705,3.8655,3.8165,4.0446,4.0294,3.8475,4.0558,4.0529,3.9121,3.9485,3.9923,4.0362,4.0412,4.0738,4.1138,4.1138,4.153,4.2123,4.2612,4.2799,4.2877,4.3081,4.5734,4.8791,4.8993,5.1433,5.4119,5.4179,5.464,5.5281,5.5953,5.5641,5.5371,5.5983,5.5641,5.5192,5.5192,5.461,5.3862,5.3067,5.2306,5.1468,5.0297,5.0578,5.0948,5.1008,5.1558,5.1457,5.0177,5.0607,4.9572,4.5853,4.72,4.7249,4.4696,4.5005,4.5615,4.6288,4.7573,4.8574,4.9208,5.2439,5.4372,5.4784,5.4504,5.4585,5.5012,5.3785,5.3198,5.3216,5.3892,5.4209,5.4251,5.4993,5.5673,5.6404,5.8597,5.9859,6.0631,6.2911,6.381,6.3909,6.4963,6.5337,6.5459,4.3794,4.4242,4.478,4.6311,4.8512,5.0795,5.3059,5.4585,5.5703,5.6308,5.4938,5.2976,5.0573,4.8555,4.6769,4.5249,4.4105,4.3478,4.3478,4.3176,4.2914,4.2688,4.2121,4.158,4.1001,4.0462,3.9923,3.9383,3.9597,3.9471,3.9019,3.8944,3.8768,3.858,3.9561,3.9613,3.9082,4.0058,4.0223,3.9898,4.0437,4.0775,4.0976,4.0976,4.1113,4.1289,4.1289,4.1893,4.2713,4.2939,4.3201,4.3917,4.6354,4.8219,4.9928,5.2057,5.3979,5.5311,5.491,5.5538,5.6329,5.6222,5.6013,5.5863,5.6132,5.5671,5.5192,5.5192,5.467,5.4012,5.3306,5.2648,5.2157,5.2037,5.1887,5.1786,5.1786,5.1666,5.1128,4.9793,4.8824,4.7478,4.5484,4.6033,4.6232,4.5553,4.6132,4.6431,4.63,4.6844,4.7864,4.9502,5.1737,5.3548,5.4896,5.5947,5.6239,5.5803,5.5611,5.5132,5.4443,5.5478,5.5748,5.5431,5.606,5.6299,5.6402,5.8897,6.0083,6.0582,6.3309,6.4376,6.4508,6.5446,6.58,6.5888,4.5475,4.5899,4.6411,4.8294,4.9656,5.1238,5.3586,5.4211,5.4499,5.4709,5.3627,5.1807,4.9095,4.7748,4.6455,4.4982,4.4217,4.379,4.379,4.3302,4.3014,4.3014,4.25,4.192,4.1314,4.0775,4.0174,3.9459,3.9635,3.9635,3.9459,3.9409,3.9296,3.9145,3.9459,3.9722,3.9948,4.0099,4.0387,4.0775,4.1138,4.1403,4.1567,4.1567,4.1754,4.203,4.203,4.2646,4.3517,4.3753,4.4339,4.5454,4.8335,4.9735,5.0826,5.3714,5.5185,5.5863,5.5581,5.6149,5.6808,5.6778,5.6598,5.6521,5.6718,5.6239,5.57,5.5521,5.497,5.4341,5.3875,5.3396,5.3174,5.3456,5.3264,5.2995,5.2815,5.2217,5.1319,5.0014,4.8267,4.6531,4.4896,4.5424,4.5743,4.5433,4.658,4.6999,4.633,4.6417,4.7298,4.9084,5.115,5.3023,5.4668,5.6543,5.7083,5.6308,5.6758,5.6475,5.5648,5.6535,5.6646,5.6165,5.6603,5.6633,5.6576,5.8773,5.9905,6.048,6.2908,6.3946,6.4165,6.4892,6.5179,6.519,4.6747,4.7983,4.9079,5.0176,5.1701,5.2775,5.2817,5.3718,5.3835,5.2255,5.105,5.0113,4.9558,4.7114,4.5527,4.5487,4.4443,4.379,4.379,4.3302,4.3014,4.3014,4.25,4.192,4.1314,4.0775,3.9973,3.8894,3.9434,3.9434,3.8919,3.9998,4.0199,3.9747,4.08,4.0976,4.0538,4.1051,4.1289,4.1289,4.1289,4.1656,4.2199,4.2199,4.2838,4.3765,4.3765,4.4127,4.4708,4.5583,4.6656,4.7661,4.7703,4.9316,5.1427,5.2642,5.4042,5.5341,5.6013,5.6192,5.6509,5.7769,5.756,5.7274,5.7919,5.7573,5.6898,5.6312,5.5641,5.5192,5.5192,5.5162,5.494,5.4299,5.473,5.491,5.4281,5.3605,5.2677,5.1337,5.0044,4.7731,4.3818,4.5753,4.6191,4.3539,4.5802,4.6999,4.633,4.668,4.7026,4.7333,5.0872,5.3258,5.4186,5.5546,5.6346,5.6601,5.6601,5.6601,5.6571,5.6601,5.6378,5.5991,5.6021,5.6343,5.6995,5.8064,5.9205,6.0404,6.1414,6.2172,6.2639,6.2848,6.2935,6.3001,4.8151,4.9088,4.9439,4.9791,5.0268,5.0984,5.2081,5.1607,5.1044,5.0861,4.9572,4.8329,4.7425,4.6555,4.5899,4.5537,4.4794,4.4177,4.3815,4.3302,4.3014,4.3014,4.2838,4.2487,4.192,4.1758,4.1292,4.0538,4.07,4.0512,3.9998,4.07,4.075,4.0287,4.0988,4.1441,4.1708,4.2247,4.2459,4.2534,4.3274,4.3449,4.3327,4.3689,4.4066,4.4353,4.4353,4.4704,4.529,4.5735,4.6543,4.762,4.9032,5.0822,5.2797,5.4636,5.5814,5.6526,5.6748,5.7496,5.8171,5.8128,5.7935,5.7829,5.8055,5.7274,5.6432,5.6252,5.5683,5.5192,5.5192,5.5192,5.5132,5.4922,5.5059,5.4803,5.3695,5.2546,5.1199,4.9434,4.7649,4.5913,4.4197,4.5185,4.5773,4.5373,4.655,4.7209,4.6999,4.7544,4.81,4.8659,5.1542,5.367,5.485,5.6615,5.7553,5.7644,5.8094,5.8304,5.8274,5.7824,5.7564,5.7462,5.7913,5.7943,5.7854,5.9575,6.0808,6.1802,6.3007,6.3925,6.4519,6.4597,6.4586,6.4641,4.9061,4.9766,4.9916,4.9916,4.9916,5.0247,5.1258,5.0381,4.9697,4.9997,4.8991,4.7908,4.6988,4.6712,4.6286,4.5562,4.4955,4.4453,4.4127,4.3402,4.3176,4.3589,4.3402,4.3065,4.2526,4.2688,4.2423,4.1642,4.1843,4.1542,4.0826,4.1779,4.1843,4.1192,4.2105,4.2635,4.2838,4.3377,4.3589,4.3664,4.4328,4.4403,4.4127,4.4478,4.488,4.5231,4.5231,4.5837,4.6682,4.6942,4.7762,4.9021,5.0913,5.2575,5.4146,5.546,5.6439,5.7154,5.7423,5.8098,5.8697,5.8517,5.8487,5.8487,5.8487,5.7663,5.6838,5.6598,5.603,5.5491,5.5251,5.5192,5.5281,5.5521,5.5162,5.4521,5.3683,5.1995,5.029,4.8858,4.735,4.5973,4.4796,4.5973,4.6572,4.5982,4.7448,4.8286,4.8068,4.8468,4.9187,5.0354,5.2468,5.4431,5.6286,5.7487,5.8138,5.8274,5.8664,5.8791,5.8644,5.8374,5.8177,5.8059,5.8463,5.8403,5.8125,5.9386,6.0319,6.1026,6.1857,6.2573,6.3145,6.3269,6.3304,6.3327,4.9473,5.0017,5.0352,5.0352,5.0352,5.0352,5.0352,4.9916,4.9565,4.949,4.9053,4.8501,4.7857,4.7324,4.6637,4.5587,4.4995,4.464,4.4589,4.3664,4.3564,4.4564,4.4127,4.3614,4.3126,4.3589,4.3377,4.2375,4.2864,4.2559,4.1565,4.3123,4.3327,4.2425,4.394,4.4328,4.389,4.4428,4.4654,4.4614,4.4729,4.474,4.4729,4.479,4.5482,4.6411,4.6441,4.7323,4.8548,4.883,4.989,5.1355,5.2933,5.4315,5.5338,5.5473,5.6308,5.7304,5.7979,5.8205,5.8397,5.8949,5.9099,5.9099,5.9099,5.8547,5.7859,5.7304,5.6611,5.5953,5.5371,5.5281,5.5461,5.6042,5.5089,5.4209,5.4089,5.1834,4.9949,4.9307,4.8708,4.7619,4.5693,4.781,4.8289,4.5813,4.8424,4.9961,4.9516,4.9587,5.0474,5.2276,5.373,5.5645,5.8085,5.8175,5.8368,5.862,5.8559,5.8372,5.8014,5.8342,5.8325,5.8027,5.7979,5.7948,5.7923,5.7974,5.8319,5.8824,5.8836,5.9185,5.9702,5.9934,6.0019,6.0091,4.9282,4.969,4.9791,4.9791,4.9791,4.9791,4.9791,4.9665,4.9289,4.8435,4.8184,4.7757,4.6763,4.6562,4.621,4.5562,4.5386,4.5095,4.4629,4.4353,4.4328,4.4589,4.4478,4.4353,4.4227,4.4353,4.4278,4.4027,4.4152,4.4077,4.3837,4.4213,4.4278,4.4066,4.4428,4.4529,4.4453,4.5045,4.5006,4.4715,4.5995,4.6245,4.5984,4.6813,4.7305,4.7562,4.7865,4.8196,4.8578,4.9106,4.9538,5.0195,5.2176,5.4021,5.5723,5.7066,5.7633,5.8008,5.8667,5.9249,5.9548,5.9189,5.9099,5.9099,5.9099,5.8201,5.7453,5.7799,5.6585,5.5551,5.5893,5.5953,5.5863,5.5491,5.5162,5.4431,5.2905,5.1236,4.98,4.8667,4.8858,4.8689,4.7679,4.8618,4.9247,4.9052,4.9344,5.0103,5.145,5.2486,5.3264,5.37,5.5974,5.7457,5.8085,5.9129,5.9649,5.9717,5.9194,5.9028,5.9114,5.8686,5.8716,5.9083,5.881,5.8542,5.8385,5.884,5.9437,6.0086,6.0371,6.1183,6.2215,6.2308,6.2332,6.2356,4.9412,4.9791,4.9891,4.964,4.9791,4.9891,4.964,4.959,4.9364,4.8761,4.8686,4.836,4.7531,4.7205,4.6828,4.6261,4.5773,4.5347,4.5031,4.4754,4.483,4.5357,4.5131,4.5006,4.5006,4.5257,4.5257,4.5006,4.5257,4.5106,4.4614,4.5116,4.5106,4.4614,4.5156,4.5231,4.5056,4.5884,4.6035,4.5844,4.6998,4.729,4.7089,4.7666,4.8083,4.8382,4.902,4.951,4.9995,5.0704,5.146,5.2398,5.4166,5.5857,5.7499,5.9013,5.9474,5.955,5.9923,6.0296,6.0386,5.9727,5.9338,5.9099,5.9099,5.853,5.8022,5.8098,5.7261,5.6555,5.6598,5.6598,5.6389,5.576,5.4892,5.3695,5.1965,5.035,4.9194,4.8798,4.9325,4.9673,4.9643,5.0493,5.0971,5.0697,5.1199,5.2019,5.3054,5.464,5.5538,5.5538,5.7201,5.8534,5.9461,6.0192,6.0565,6.0565,6.0192,6.0095,6.0216,5.9555,5.9502,5.9938,5.9288,5.9053,5.9202,5.937,5.9775,6.0286,6.047,6.1017,6.1702,6.1828,6.1878,6.1891,4.959,4.9967,5.0142,4.9665,4.9992,5.0126,4.9665,4.959,4.9565,4.9506,4.948,4.928,4.8727,4.8209,4.7716,4.7249,4.6401,4.5773,4.5638,4.5131,4.5317,4.6386,4.5974,4.5788,4.5849,4.6225,4.62,4.5723,4.6125,4.5859,4.4991,4.5884,4.5884,4.5131,4.6035,4.621,4.5939,4.6838,4.7224,4.7274,4.7832,4.8033,4.8058,4.8234,4.8633,4.9247,5.0113,5.0985,5.181,5.2624,5.3985,5.5539,5.6814,5.8192,5.9597,6.0872,6.1329,6.1359,6.115,6.103,6.0791,6.025,5.9608,5.9099,5.9099,5.9026,5.8816,5.8367,5.8098,5.7799,5.7334,5.7154,5.6868,5.6162,5.4456,5.2707,5.1236,4.9643,4.8816,4.9366,5.0152,5.0877,5.1457,5.2606,5.2917,5.1876,5.3401,5.4418,5.464,5.6406,5.7466,5.7556,5.8112,5.9325,6.1239,6.115,6.115,6.1239,6.115,6.1118,6.113,6.0485,6.0292,6.0467,5.9692,5.9536,5.9772,5.962,5.9683,5.99,5.99,6.0018,6.0144,6.0364,6.0455,6.0495,4.959,4.9665,4.969,4.9615,4.9665,4.969,4.9615,4.959,4.9455,4.8978,4.8928,4.8702,4.8109,4.7958,4.7883,4.7767,4.7616,4.7154,4.625,4.6085,4.6336,4.6948,4.6898,4.7064,4.7531,4.7164,4.6923,4.6848,4.6486,4.6436,4.6722,4.6436,4.6687,4.738,4.7099,4.7189,4.7531,4.7707,4.7767,4.7817,4.8426,4.8667,4.8752,4.9665,5.0287,5.078,5.1648,5.2231,5.2666,5.3153,5.4219,5.5597,5.6814,5.8492,6.0297,6.157,6.2345,6.2555,6.1419,6.0685,6.022,6.013,5.9608,5.9099,5.9099,5.8667,5.8397,5.8846,5.8052,5.7393,5.7859,5.7483,5.6718,5.5551,5.4144,5.2516,5.0626,5.0088,4.9938,5.0039,5.1648,5.2767,5.2887,5.3593,5.4192,5.4551,5.485,5.5508,5.6585,5.8022,5.9039,5.9621,5.9741,6.0475,6.1942,6.1389,6.1389,6.1942,6.1359,6.123,6.142,6.0743,6.047,6.0494,6.0593,5.9884,5.8799,5.9528,5.97,5.95,5.95,5.9979,6.0677,6.0716,6.0729,6.0742,4.995,5.0293,5.0393,5.0092,5.0293,5.0309,4.969,4.959,4.9515,4.9254,4.9229,4.9129,4.8837,4.8576,4.8375,4.8375,4.8083,4.7707,4.7189,4.7164,4.7139,4.7099,4.739,4.7641,4.7892,4.7666,4.7541,4.7541,4.7265,4.729,4.7541,4.7265,4.7431,4.7892,4.7641,4.7666,4.7933,4.8234,4.8375,4.8426,4.9003,4.9405,4.9715,5.0201,5.0718,5.1293,5.238,5.2882,5.3139,5.4003,5.5698,5.748,5.8053,5.983,6.1892,6.2457,6.2854,6.2944,6.2345,6.1672,6.1074,6.0745,6.0116,5.9548,5.9189,5.8846,5.8726,5.9039,5.862,5.8261,5.8577,5.8098,5.7214,5.594,5.3994,5.2217,5.0936,5.014,5.0242,5.1648,5.2965,5.4132,5.5192,5.5568,5.6047,5.6692,5.6752,5.7334,5.8664,5.9308,5.9951,6.0625,6.1357,6.1836,6.2091,6.2151,6.2331,6.2644,6.2345,6.2236,6.2334,6.1673,6.1443,6.1551,6.0785,6.0203,5.979,5.9703,5.9694,5.9753,5.9879,6.0102,6.0407,6.0677,6.0599,6.0407,5.0126,5.0594,5.0761,5.0277,5.0594,5.0611,4.9715,4.959,4.959,4.959,4.959,4.959,4.959,4.9229,4.8994,4.8994,4.8661,4.8385,4.8134,4.8335,4.8193,4.75,4.8008,4.8309,4.8309,4.8184,4.8109,4.8109,4.7983,4.7983,4.8109,4.7983,4.8043,4.8284,4.8159,4.8184,4.8335,4.8777,4.8994,4.9028,4.9565,5.0026,5.0427,5.0703,5.1121,5.1766,5.2867,5.3373,5.3708,5.4999,5.7049,5.9142,5.9467,6.1197,6.3108,6.3108,6.2988,6.2868,6.2868,6.2495,6.1912,6.106,6.0595,6.016,5.9488,5.9458,5.9564,5.9564,5.9428,5.9338,5.9338,5.8667,5.7679,5.6402,5.4204,5.2396,5.1546,5.0852,5.1181,5.3186,5.4281,5.5448,5.6958,5.7363,5.7782,5.8308,5.8623,5.9235,6.0266,6.0489,6.0878,6.1553,6.2405,6.2704,6.2345,6.2824,6.3108,6.3108,6.3108,6.3108,6.3063,6.2555,6.2369,6.2343,6.1262,6.0768,6.0684,6.0092,5.9975,6.0118,6.0162,6.0209,6.0238,6.0503,6.0394,6.0144,4.964,4.969,4.9715,4.9665,4.9707,4.9707,4.9615,4.959,4.959,4.959,4.959,4.959,4.959,4.9565,4.954,4.954,4.995,4.9791,4.8802,4.9665,4.9766,4.8727,4.9204,4.9464,4.9464,4.8978,4.8727,4.8727,4.8159,4.8184,4.8718,4.8159,4.846,4.9439,4.8953,4.9003,4.9464,4.9515,4.954,4.9606,5.0126,5.0377,5.0528,5.1557,5.2203,5.2582,5.3233,5.3895,5.4617,5.5959,5.7599,5.9313,6.0565,6.1954,6.3108,6.3108,6.2674,6.2181,6.2181,6.2121,6.1792,6.0489,6.0595,6.0851,6.019,6.0505,6.094,6.094,6.0446,6.004,6.004,5.8966,5.7679,5.6402,5.497,5.3581,5.2306,5.3102,5.391,5.4089,5.5748,5.6944,5.7107,5.8231,5.8979,5.9026,6.0162,6.091,6.103,6.1613,6.2255,6.2914,6.2465,6.2465,6.3003,6.3078,6.3108,6.3108,6.3108,6.3108,6.3108,6.3048,6.2689,6.215,6.2659,6.1835,6.0185,6.0743,6.0789,6.0387,5.9811,6.0079,6.0779,6.0269,6.0197,6.0377,5.0026,5.0117,5.0117,5.0117,5.0117,4.9992,4.964,4.959,4.959,4.959,4.959,4.959,4.959,4.9891,5.0117,5.0117,5.0619,5.0787,5.0376,5.0736,5.0444,4.9355,4.9506,4.959,4.959,4.9405,4.9305,4.9305,4.9063,4.9063,4.928,4.9063,4.9188,4.959,4.938,4.9405,4.959,4.959,4.959,4.964,5.0176,5.0603,5.1046,5.1825,5.2387,5.285,5.3334,5.3665,5.403,5.4953,5.6812,5.8865,5.9606,6.1346,6.3018,6.2614,6.2315,6.2002,6.1583,6.1493,6.1373,6.0864,6.091,6.103,6.0775,6.091,6.109,6.109,6.088,6.0595,6.019,5.9338,5.8116,5.6253,5.5317,5.4446,5.3363,5.4133,5.5119,5.5897,5.7393,5.8501,5.8933,5.9787,6.0492,6.0924,6.1433,6.1912,6.2315,6.2584,6.2824,6.3108,6.2465,6.2435,6.3108,6.3108,6.3108,6.3108,6.3108,6.3108,6.3108,6.3108,6.2944,6.2704,6.2555,6.2046,6.1297,6.0715,6.0395,6.0249,6.0141,5.9974,5.984,6.0385,6.0146,5.9676,5.0076,5.0151,5.0151,5.0151,5.0151,5.0001,4.9665,4.959,4.959,4.959,4.9741,4.9841,4.9841,5.0343,5.0695,5.0695,5.1222,5.149,5.1314,5.1289,5.0862,4.9891,4.9841,4.9841,4.9841,4.9841,4.9941,5.0117,5.0117,5.0117,5.0134,4.9941,4.9941,5.0134,4.9941,4.9967,5.0134,4.9916,4.9841,4.9891,5.0252,5.077,5.1364,5.19,5.2435,5.2947,5.3204,5.3461,5.3776,5.4686,5.6623,5.8818,5.9514,6.1126,6.2704,6.2241,6.1792,6.1373,6.0924,6.0611,6.0521,6.0731,6.109,6.1359,6.115,6.1433,6.1732,6.1732,6.1539,6.1224,6.0535,5.9545,5.8154,5.6098,5.5645,5.5273,5.45,5.5567,5.6838,5.7902,5.9039,5.9907,6.0356,6.1014,6.1613,6.2061,6.2315,6.2614,6.3078,6.3108,6.3108,6.3108,6.2644,6.2644,6.3108,6.2884,6.2884,6.3108,6.3108,6.3108,6.3108,6.3108,6.3108,6.3063,6.2614,6.2301,6.2032,6.1118,6.0609,6.0413,6.0396,6.0115,5.9782,6.0287,6.0069,5.9612,4.959,4.959,4.959,4.959,4.959,4.959,4.959,4.959,4.959,4.9615,5.0051,5.0402,5.0402,5.0946,5.1314,5.1314,5.18,5.1875,5.1339,5.1314,5.1046,5.0427,5.0402,5.0402,5.0402,5.0402,5.0695,5.1289,5.1289,5.1289,5.1289,5.0695,5.072,5.1264,5.067,5.0745,5.1264,5.067,5.0402,5.0402,5.0402,5.077,5.1364,5.19,5.2435,5.2895,5.2895,5.3367,5.4191,5.5522,5.7364,5.9313,6.0686,6.1571,6.2091,6.2091,6.1148,6.01,6.0086,5.9608,5.9279,5.9951,6.1118,6.1912,6.1269,6.2121,6.3108,6.3108,6.2555,6.1912,6.1239,5.9525,5.7654,5.5988,5.6052,5.6192,5.5772,5.7657,5.9355,6.0027,6.0687,6.1106,6.112,6.1702,6.2121,6.2121,6.2734,6.3108,6.3108,6.3108,6.3108,6.3108,6.3093,6.3093,6.3108,6.2435,6.2435,6.3108,6.3108,6.3108,6.3108,6.3108,6.3108,6.3108,6.3108,6.2734,6.2121,6.2091,6.1702,6.103,6.037,6.0505,6.0968,5.9907,5.9925,6.0471,4.959,4.959,4.959,4.959,4.959,4.959,4.959,4.959,4.9741,5.0101,5.0302,5.0553,5.0987,5.1523,5.185,5.185,5.2335,5.2586,5.2435,5.241,5.2159,5.1624,5.1222,5.1021,5.1021,5.1021,5.1113,5.1289,5.1289,5.1289,5.1289,5.1113,5.1138,5.1289,5.1113,5.1138,5.1264,5.067,5.0402,5.0402,5.0402,5.0503,5.077,5.1732,5.2201,5.2385,5.2744,5.305,5.3367,5.4283,5.5647,5.733,5.9673,6.1188,6.1926,6.0968,6.0745,6.049,5.9073,5.9569,6.0551,6.0731,6.0745,6.0998,6.2225,6.2465,6.2525,6.3003,6.2555,6.2032,6.1852,6.0159,5.861,5.7917,5.8061,5.7816,5.6561,5.7713,5.8854,5.9331,5.9757,6.0471,6.1679,6.2405,6.2794,6.2794,6.2988,6.3108,6.3108,6.3108,6.3108,6.3108,6.2644,6.2614,6.3108,6.2884,6.2884,6.3108,6.3108,6.3108,6.3108,6.3108,6.3108,6.3108,6.3108,6.2988,6.2764,6.2301,6.1972,6.1732,6.106,6.0625,6.037,6.0046,5.9852,5.9841,4.959,4.959,4.959,4.959,4.959,4.959,4.959,4.959,4.9791,5.0327,5.0619,5.0896,5.1264,5.1975,5.2335,5.2126,5.2586,5.2895,5.2895,5.2895,5.2762,5.2435,5.2126,5.1825,5.1615,5.1615,5.1724,5.1925,5.1925,5.1925,5.1925,5.1716,5.1724,5.1925,5.1699,5.1724,5.1875,5.1096,5.077,5.072,5.0268,5.0201,5.0477,5.1155,5.1724,5.2151,5.246,5.2839,5.3238,5.381,5.5432,5.7601,5.9819,6.1218,6.1857,6.0497,6.0576,6.0734,5.897,5.976,6.115,6.1433,6.1194,6.1148,6.2106,6.2181,6.2211,6.2614,6.2181,6.1474,6.0802,5.9291,5.787,5.7048,5.7167,5.7083,5.6216,5.7864,5.9259,5.9608,6.0398,6.1336,6.2409,6.2854,6.3108,6.3108,6.3108,6.3108,6.3108,6.3108,6.3108,6.3108,6.2465,6.2435,6.3108,6.2824,6.2824,6.3108,6.3108,6.3108,6.3108,6.3108,6.3108,6.3108,6.3108,6.3108,6.3078,6.2674,6.2345,6.2061,6.1642,6.1104,6.0489,6.0314,6.0022,5.9783,4.959,4.959,4.959,4.959,4.959,4.959,4.959,4.959,4.9816,5.0402,5.0946,5.1339,5.144,5.231,5.2711,5.2209,5.2611,5.2895,5.2895,5.2862,5.2845,5.2895,5.2845,5.2611,5.2176,5.2176,5.241,5.2895,5.2895,5.2895,5.2895,5.241,5.2435,5.2887,5.2385,5.241,5.2744,5.1724,5.1264,5.1113,5.0042,4.9891,5.0327,5.0377,5.103,5.1975,5.2059,5.2648,5.3453,5.4005,5.6233,5.9058,6.0554,6.1278,6.1385,6.0224,6.0381,6.0641,5.9263,6.0057,6.1361,6.18,6.202,6.1942,6.1329,6.1613,6.2002,6.2002,6.141,6.0397,5.887,5.7464,5.6108,5.4801,5.4701,5.4921,5.5227,5.7894,5.9952,6.026,6.1763,6.2859,6.3093,6.3108,6.3108,6.3108,6.3108,6.3108,6.3108,6.3108,6.3063,6.3003,6.2495,6.2435,6.2928,6.2435,6.2495,6.3108,6.3108,6.3108,6.3108,6.3108,6.3108,6.3108,6.3108,6.3108,6.3108,6.3108,6.2734,6.2181,6.2121,6.1702,6.1058,6.0642,6.0344,6.0112,4.959,4.959,4.959,4.959,4.959,4.959,4.959,4.959,4.9967,5.0971,5.1214,5.1615,5.246,5.2744,5.2845,5.2737,5.282,5.2895,5.2895,5.2511,5.246,5.287,5.2511,5.241,5.2711,5.2737,5.2787,5.2895,5.2895,5.2895,5.2895,5.2787,5.2787,5.2895,5.2787,5.2561,5.2226,5.159,5.1021,5.0528,4.9866,4.9665,4.9816,5.0226,5.0553,5.0879,5.1774,5.2227,5.2717,5.4844,5.5939,5.6887,5.9517,5.9193,5.7909,5.816,5.8987,5.9448,5.7713,5.9873,6.2325,6.0896,6.133,6.2061,6.1912,6.1583,6.1299,6.1299,6.0114,5.9117,5.9256,5.712,5.5839,5.7331,5.6524,5.5784,5.5958,5.6965,5.7922,5.8612,5.9639,6.1028,6.2918,6.3108,6.3108,6.3108,6.3108,6.3108,6.3108,6.3108,6.2854,6.2331,6.2674,6.2465,6.1553,6.2435,6.2958,6.3108,6.3108,6.3108,6.3108,6.3108,6.3108,6.3108,6.3108,6.3108,6.3108,6.3108,6.3003,6.2824,6.2315,6.1702,6.1058,6.0642,6.0287,6.0105,4.959,4.959,4.959,4.959,4.959,4.969,4.9941,4.9363,4.9554,5.144,5.0777,5.0658,5.1991,5.2151,5.2251,5.2511,5.2744,5.2895,5.2895,5.2636,5.2611,5.2887,5.2636,5.2611,5.2895,5.2895,5.2895,5.2895,5.2895,5.2895,5.2895,5.2895,5.2895,5.2895,5.2636,5.236,5.2051,5.1222,5.0695,5.0352,4.9816,4.959,4.9615,4.9916,5.0176,5.0494,5.1262,5.1984,5.2767,5.3958,5.5034,5.609,5.7344,5.7558,5.7246,5.6959,5.8225,5.9421,5.7968,6.0153,6.2656,6.1746,6.1813,6.2002,6.1702,6.1104,6.0476,5.9981,5.89,5.7862,5.7225,5.5818,5.5046,5.5957,5.5383,5.4785,5.4733,5.6163,5.7432,5.7892,5.9602,6.1231,6.2498,6.2914,6.2988,6.2644,6.2914,6.3108,6.3108,6.3108,6.2944,6.2584,6.2614,6.2435,6.2061,6.2135,6.2465,6.3108,6.2764,6.2794,6.3108,6.2764,6.2794,6.3108,6.3108,6.3108,6.3108,6.3108,6.2914,6.2614,6.2584,6.1972,6.1074,6.0867,6.0458,6.0086,4.959,4.959,4.959,4.959,4.9396,4.9359,4.9816,4.86,4.8537,5.1093,4.9898,4.9451,5.1139,5.1389,5.1649,5.2201,5.2636,5.2895,5.2895,5.2795,5.2795,5.2912,5.2795,5.2812,5.2895,5.2895,5.2895,5.2895,5.2895,5.2895,5.2895,5.2895,5.2895,5.2887,5.2335,5.2051,5.19,5.0829,5.0352,5.0226,4.9766,4.959,4.959,4.959,4.9924,5.0391,5.0704,5.1666,5.2781,5.2788,5.3909,5.5316,5.5494,5.6244,5.6885,5.6024,5.7621,5.9472,5.851,6.0449,6.2716,6.2886,6.2435,6.1762,6.106,6.0323,5.9526,5.8682,5.7707,5.6491,5.481,5.4348,5.4081,5.3589,5.3444,5.3445,5.3519,5.5669,5.7462,5.8048,6.0487,6.2091,6.2091,6.2614,6.2704,6.2121,6.2734,6.3108,6.3108,6.3108,6.2974,6.2764,6.2345,6.2255,6.2584,6.1702,6.1762,6.2734,6.2301,6.2405,6.2914,6.2465,6.2525,6.2944,6.3048,6.3108,6.3108,6.2988,6.2674,6.2315,6.2614,6.2151,6.1239,6.1056,6.0724,6.038,4.959,4.959,4.959,4.959,4.8551,4.773,4.7803,4.6547,4.6353,4.8539,4.8556,4.9122,5.1089,5.1699,5.2226,5.2744,5.2845,5.2895,5.2895,5.246,5.241,5.2887,5.246,5.2435,5.2895,5.2895,5.2895,5.2895,5.2895,5.2895,5.2895,5.2895,5.2895,5.2887,5.2335,5.185,5.1364,5.0695,5.0126,4.969,4.9615,4.959,4.959,4.959,4.9817,5.0153,5.039,5.0944,5.1756,5.3153,5.3085,5.2881,5.598,5.5285,5.3535,5.4511,5.6422,5.8146,5.7541,6.0149,6.2886,6.2361,6.1732,6.106,6.0386,5.9325,5.8478,5.8478,5.6417,5.4558,5.4512,5.3735,5.3206,5.3452,5.3204,5.3555,5.5139,5.5842,5.7114,5.9574,6.12,6.2091,6.2091,6.2181,6.2181,6.2121,6.2734,6.3108,6.3108,6.3108,6.2555,6.1419,6.1852,6.1597,6.0519,6.1477,6.1762,6.1359,6.1882,6.2151,6.2241,6.2734,6.2704,6.2285,6.2854,6.3108,6.3048,6.2465,6.2525,6.2854,6.1792,6.1613,6.185,6.0932,6.1023,6.1548,4.959,4.895,4.8371,4.8371,4.7136,4.6278,4.6616,4.6333,4.6732,4.8516,4.8974,4.9672,5.1139,5.1774,5.2201,5.2435,5.2737,5.2895,5.2895,5.2686,5.2661,5.2895,5.2686,5.2661,5.2895,5.2895,5.2895,5.2895,5.2895,5.2895,5.2895,5.2895,5.2895,5.2887,5.2335,5.1975,5.1699,5.1147,5.077,5.0561,5.0561,5.0343,5.0083,5.0262,5.0125,4.9859,5.025,5.0684,5.1208,5.2102,5.2204,5.2252,5.3847,5.3622,5.2868,5.3477,5.5563,5.7712,5.7658,6.0185,6.2713,6.2228,6.1613,6.079,5.96,5.7787,5.6401,5.6626,5.4908,5.3328,5.3185,5.2785,5.2612,5.3085,5.3691,5.4378,5.5231,5.6717,5.8614,6.0982,6.1762,6.2091,6.2091,6.2091,6.2091,6.2091,6.2734,6.3108,6.3108,6.3108,6.2824,6.2255,6.2121,6.1822,6.1238,6.1433,6.1389,6.109,6.1389,6.1732,6.2091,6.2002,6.2225,6.2644,6.2584,6.2555,6.2525,6.2211,6.1836,6.1387,6.1194,6.1044,6.0936,6.0612,6.0532,6.0577]},{"header":{"parameterUnit":"m.s-1","parameterCategory":1,"la1":30.6,"la2":28.766,"lo1":-90.7593,"lo2":-88.6598,"dy":0.0162,"dx":0.0183,"nx":116,"ny":114,"refTime":"2023-03-14T18:00:00:Z","depth":0,"parameterNumber":3,"parameterNumberName":"V-component_of_WINDS"},"data":[0.0,0.0,0.0,0.0,0.0,0.0,0.0,0.0,0.0,0.0,0.0,0.0,0.0,0.0,0.0,0.0,0.0,0.0,0.0,0.0,0.0,0.0,0.0,0.0,0.0,0.0,0.0,0.0,0.0,0.0,0.0,0.0,0.0,0.0,0.0,0.0,0.0,0.0,0.0,0.0,0.0,0.0,0.0,0.0,0.0,0.0,0.0,0.0,0.0,0.0,0.0,0.0,0.0,0.0,0.0,0.0,0.0,0.0,0.0,0.0,0.0,0.0,0.0,0.0,0.0,0.0,0.0,0.0,0.0,0.0,0.0,0.0,0.0,0.0,0.0,0.0,0.0,0.0,0.0,0.0,0.0,0.0,0.0,0.0,0.0,0.0,0.0,0.0,0.0,0.0,0.0,0.0,0.0,0.0,0.0,0.0,0.0,0.0,0.0,0.0,0.0,0.0,0.0,0.0,0.0,0.0,0.0,0.0,0.0,0.0,0.0,0.0,0.0,0.0,0.0,0.0,0.0,0.0,0.0,0.0,0.0,0.0,0.0,0.0,0.0,0.0,0.0,0.0,0.0,0.0,0.0,0.0,0.0,0.0,0.0,0.0,0.0,0.0,0.0,0.0,0.0,0.0,0.0,0.0,0.0,0.0,0.0,0.0,0.0,0.0,0.0,0.0,0.0,0.0,0.0,0.0,0.0,0.0,0.0,0.0,0.0,0.0,0.0,0.0,0.0,0.0,0.0,0.0,0.0,0.0,0.0,0.0,0.0,0.0,0.0,0.0,0.0,0.0,0.0,0.0,0.0,0.0,0.0,0.0,0.0,0.0,0.0,0.0,0.0,0.0,0.0,0.0,0.0,0.0,0.0,0.0,0.0,0.0,0.0,0.0,0.0,0.0,0.0,0.0,0.0,0.0,0.0,0.0,0.0,0.0,0.0,0.0,0.0,0.0,0.0,0.0,0.0,0.0,0.0,0.0,0.0,0.0,0.0,0.0,0.0,0.0,0.0,0.0,0.0,0.0,0.0,0.0,0.0,0.0,0.0,0.0,0.0,0.0,0.0,0.0,0.0,0.0,0.0,0.0,0.0,0.0,0.0,0.0,0.0,0.0,0.0,0.0,0.0,0.0,0.0,0.0,0.0,0.0,0.0,0.0,0.0,0.0,0.0,0.0,0.0,0.0,0.0,0.0,0.0,0.0,0.0,0.0,0.0,0.0,0.0,0.0,0.0,0.0,0.0,0.0,0.0,0.0,0.0,0.0,0.0,0.0,0.0,0.0,0.0,0.0,0.0,0.0,0.0,0.0,0.0,0.0,0.0,0.0,0.0,0.0,0.0,0.0,0.0,0.0,0.0,0.0,0.0,0.0,0.0,0.0,0.0,0.0,0.0,0.0,0.0,0.0,0.0,0.0,0.0,0.0,0.0,0.0,0.0,0.0,0.0,0.0,0.0,0.0,0.0,0.0,0.0,0.0,0.0,0.0,0.0,0.0,0.0,0.0,0.0,0.0,0.0,0.0,0.0,0.0,0.0,0.0,0.0,0.0,0.0,0.0,0.0,0.0,0.0,0.0,0.0,0.0,0.0,0.0,0.0,0.0,0.0,0.0,0.0,0.0,0.0,0.0,0.0,0.0,0.0,0.0,0.0,0.0,0.0,0.0,0.0,0.0,0.0,0.0,0.0,0.0,0.0,0.0,0.0,0.0,0.0,0.0,0.0,0.0,0.0,0.0,0.0,0.0,0.0,0.0,0.0,0.0,0.0,0.0,0.0,0.0,0.0,0.0,0.0,0.0,0.0,0.0,0.0,0.0,0.0,0.0,0.0,0.0,0.0,0.0,0.0,0.0,0.0,0.0,0.0,0.0,0.0,0.0,0.0,0.0,0.0,0.0,0.0,0.0,0.0,0.0,0.0,0.0,0.0,0.0,0.0,0.0,0.0,0.0,0.0,0.0,0.0,0.0,0.0,0.0,0.0,0.0,0.0,0.0,0.0,0.0,0.0,0.0,0.0,0.0,0.0,0.0,0.0,0.0,0.0,0.0,0.0,0.0,0.0,0.0,0.0,0.0,0.0,0.0,0.0,0.0,0.0,0.0,0.0,0.0,0.0,0.0,0.0,0.0,0.0,0.0,0.0,0.0,0.0,0.0,0.0,0.0,0.0,0.0,0.0,0.0,0.0,0.0,0.0,0.0,0.0,0.0,0.0,0.0,0.0,0.0,0.0,0.0,0.0,0.0,0.0,0.0,0.0,0.0,0.0,0.0,0.0,0.0,0.0,0.0,0.0,0.0,0.0,0.0,0.0,0.0,0.0,0.0,0.0,0.0,0.0,0.0,0.0,0.0,0.0,0.0,0.0,0.0,0.0,0.0,0.0,0.0,0.0,0.0,0.0,0.0,0.0,0.0,0.0,0.0,0.0,0.0,0.0,0.0,0.0,0.0,0.0,0.0,0.0,0.0,0.0,0.0,0.0,0.0,0.0,0.0,0.0,0.0,0.0,0.0,0.0,0.0,0.0,0.0,0.0,0.0,0.0,0.0,0.0,0.0,0.0,0.0,0.0,0.0,0.0,0.0,0.0,0.0,0.0,0.0,0.0,0.0,0.0,0.0,0.0,0.0,0.0,0.0,0.0,0.0,0.0,0.0,0.0,0.0,0.0,0.0,0.0,0.0,0.0,0.0,0.0,0.0,0.0,0.0,0.0,0.0,0.0,0.0,0.0,0.0,0.0,0.0,0.0,0.0,0.0,0.0,0.0,0.0,0.0,0.0,0.0,0.0,0.0,0.0,0.0,0.0,0.0,0.0,0.0,0.0,0.0,0.0,0.0,0.0,0.0,0.0,0.0,0.0,0.0,0.0,0.0,0.0,0.0,0.0,0.0,0.0,0.0,0.0,0.0,0.0,0.0,0.0,0.0,0.0,0.0,0.0,0.0,0.0,0.0,0.0,0.0,0.0,0.0,0.0,0.0,0.0,0.0,0.0,0.0,0.0,0.0,0.0,0.0,0.0,0.0,0.0,0.0,0.0,0.0,0.0,0.0,0.0,0.0,0.0,0.0,0.0,0.0,0.0,0.0,0.0,0.0,0.0,0.0,0.0,0.0,0.0,0.0,0.0,0.0,0.0,0.0,0.0,0.0,0.0,0.0,0.0,0.0,0.0,0.0,0.0,0.0,0.0,0.0,0.0,0.0,0.0,0.0,0.0,0.0,0.0,0.0,0.0,0.0,0.0,0.0,0.0,0.0,0.0,0.0,0.0,0.0,0.0,0.0,0.0,0.0,0.0,0.0,0.0,0.0,0.0,0.0,0.0,0.0,0.0,0.0,0.0,0.0,0.0,0.0,0.0,0.0,0.0,0.0,0.0,0.0,0.0,0.0,0.0,0.0,0.0,0.0,0.0,0.0,0.0,0.0,0.0,0.0,0.0,0.0,0.0,0.0,0.0,0.0,0.0,0.0,0.0,0.0,0.0,0.0,0.0,0.0,0.0,0.0,0.0,0.0,0.0,0.0,0.0,0.0,0.0,0.0,0.0,0.0,0.0,0.0,0.0,0.0,0.0,0.0,0.0,0.0,0.0,0.0,0.0,0.0,0.0,0.0,0.0,0.0,0.0,0.0,0.0,0.0,0.0,0.0,0.0,0.0,0.0,0.0,0.0,0.0,0.0,0.0,0.0,0.0,0.0,0.0,0.0,0.0,0.0,0.0,0.0,0.0,0.0,0.0,0.0,0.0,0.0,0.0,0.0,0.0,0.0,0.0,0.0,0.0,0.0,0.0,0.0,0.0,0.0,0.0,0.0,0.0,0.0,0.0,0.0,0.0,0.0,0.0,0.0,0.0,0.0,0.0,0.0,0.0,0.0,0.0,0.0,0.0,0.0,0.0,0.0,0.0,0.0,0.0,0.0,0.0,0.0,0.0,0.0,0.0,0.0,0.0,0.0,0.0,0.0,0.0,0.0,0.0,0.0,0.0,0.0,0.0,0.0,0.0,0.0,0.0,0.0,0.0,0.0,0.0,0.0,0.0,0.0,0.0,0.0,0.0,0.0,0.0,0.0,0.0,0.0,0.0,0.0,0.0,0.0,0.0,0.0,0.0,0.0,0.0,0.0,0.0,0.0,0.0,0.0,0.0,0.0,0.0,0.0,0.0,0.0,0.0,0.0,0.0,0.0,0.0,0.0,0.0,0.0,0.0,0.0,0.0,0.0,0.0,0.0,0.0,0.0,0.0,0.0,0.0,0.0,0.0,0.0,0.0,0.0,0.0,0.0,0.0,0.0,0.0,0.0,0.0,0.0,0.0,0.0,0.0,0.0,0.0,0.0,0.0,0.0,0.0,0.0,0.0,0.0,0.0,0.0,0.0,0.0,0.0,0.0,0.0,0.0,0.0,0.0,0.0,0.0,0.0,0.0,0.0,0.0,0.0,0.0,0.0,0.0,0.0,0.0,0.0,0.0,0.0,0.0,0.0,0.0,0.0,0.0,0.0,0.0,0.0,0.0,0.0,0.0,0.0,0.0,0.0,0.0,0.0,0.0,0.0,0.0,0.0,0.0,0.0,0.0,0.0,0.0,0.0,0.0,0.0,0.0,0.0,0.0,0.0,0.0,0.0,0.0,0.0,0.0,0.0,0.0,0.0,0.0,0.0,0.0,0.0,0.0,0.0,0.0,0.0,0.0,0.0,0.0,0.0,0.0,0.0,0.0,0.0,0.0,0.0,0.0,0.0,0.0,0.0,0.0,0.0,0.0,0.0,0.0,0.0,0.0,0.0,0.0,0.0,0.0,0.0,0.0,0.0,0.0,0.0,0.0,0.0,0.0,0.0,0.0,0.0,0.0,0.0,0.0,0.0,0.0,0.0,0.0,0.0,0.0,0.0,0.0,0.0,0.0,0.0,0.0,0.0,0.0,0.0,0.0,0.0,0.0,0.0,0.0,0.0,0.0,0.0,0.0,0.0,0.0,0.0,0.0,0.0,0.0,0.0,0.0,0.0,0.0,0.0,0.0,0.0,0.0,0.0,0.0,0.0,0.0,0.0,0.0,0.0,0.0,0.0,0.0,0.0,0.0,0.0,0.0,0.0,0.0,0.0,0.0,0.0,0.0,0.0,0.0,0.0,0.0,0.0,0.0,0.0,0.0,0.0,0.0,0.0,0.0,0.0,0.0,0.0,0.0,0.0,0.0,0.0,0.0,0.0,0.0,0.0,0.0,0.0,0.0,0.0,0.0,0.0,0.0,0.0,0.0,0.0,0.0,0.0,0.0,0.0,0.0,0.0,0.0,0.0,0.0,0.0,0.0,0.0,0.0,0.0,0.0,0.0,0.0,0.0,0.0,0.0,0.0,0.0,0.0,0.0,0.0,0.0,0.0,0.0,0.0,0.0,0.0,0.0,0.0,0.0,0.0,0.0,0.0,0.0,0.0,0.0,0.0,0.0,0.0,0.0,0.0,0.0,0.0,0.0,0.0,0.0,0.0,0.0,0.0,0.0,0.0,0.0,0.0,0.0,0.0,0.0,0.0,0.0,0.0,0.0,0.0,0.0,0.0,0.0,0.0,0.0,0.0,0.0,0.0,0.0,0.0,0.0,0.0,0.0,0.0,0.0,0.0,0.0,0.0,0.0,0.0,0.0,0.0,0.0,0.0,0.0,0.0,0.0,0.0,0.0,0.0,0.0,0.0,0.0,0.0,0.0,0.0,0.0,0.0,0.0,0.0,0.0,0.0,0.0,0.0,0.0,0.0,0.0,0.0,0.0,0.0,0.0,0.0,0.0,0.0,0.0,0.0,0.0,0.0,0.0,0.0,0.0,0.0,0.0,0.0,0.0,0.0,0.0,0.0,0.0,0.0,0.0,0.0,0.0,0.0,0.0,0.0,0.0,0.0,0.0,0.0,0.0,0.0,0.0,0.0,0.0,0.0,0.0,0.0,0.0,0.0,0.0,0.0,0.0,0.0,0.0,0.0,0.0,0.0,0.0,0.0,0.0,0.0,0.0,0.0,0.0,0.0,0.0,0.0,0.0,0.0,0.0,0.0,0.0,0.0,0.0,0.0,0.0,0.0,0.0,0.0,0.0,0.0,0.0,0.0,0.0,0.0,0.0,0.0,0.0,0.0,0.0,0.0,1.1308,1.0667,0.0,0.0,0.0,0.0,0.0,0.0,0.0,0.0,0.0,0.0,0.0,0.0,0.0,0.0,0.0,0.0,0.0,0.0,0.0,0.0,0.0,0.0,0.0,0.0,0.0,0.0,0.0,0.0,0.0,0.0,0.0,0.0,0.0,0.0,0.0,0.0,0.0,0.0,0.0,0.0,0.0,0.0,0.0,0.0,0.0,0.0,0.0,0.0,0.0,0.0,0.0,0.0,0.0,0.0,0.0,0.0,0.0,0.0,0.0,0.0,0.0,0.0,0.0,0.0,0.0,0.0,0.0,0.0,0.0,0.0,0.0,0.0,0.0,0.0,0.0,0.0,0.0,0.0,0.0,0.0,0.0,0.0,0.0,0.0,0.0,0.0,0.0,0.0,0.0,0.0,0.0,0.0,0.0,0.0,0.0,0.0,0.0,0.0,0.0,0.0,0.0,0.0,0.0,0.0,0.0,0.0,0.0,0.0,0.0,0.0,0.0,0.0,0.0,0.0,1.375,1.2934,0.0,0.0,0.0,0.0,0.0,0.0,0.0,0.0,0.0,0.0,0.0,0.0,0.0,0.0,0.0,0.0,0.0,0.0,0.0,0.0,0.0,0.0,0.0,0.0,0.0,0.0,0.0,0.0,0.0,0.0,0.0,0.0,0.0,0.0,0.0,0.0,0.0,0.0,0.0,0.0,0.0,0.0,0.0,0.0,0.0,0.0,0.0,0.0,0.0,0.0,0.0,0.0,0.0,0.0,0.0,0.0,0.0,0.0,0.0,0.0,0.0,0.0,0.0,0.0,0.0,0.0,0.0,0.0,0.0,0.0,0.0,0.0,0.0,0.0,0.0,0.0,0.0,0.0,0.0,0.0,0.0,0.0,0.0,0.0,0.0,0.0,0.0,0.0,0.0,0.0,0.0,0.0,0.0,0.0,0.0,0.0,0.0,0.0,0.0,0.0,0.0,0.0,0.0,0.0,0.0,0.0,0.0,0.0,1.7224,1.7903,1.7916,1.8196,1.8316,1.8234,1.667,1.5882,1.5635,1.4928,0.0,0.0,0.0,0.0,0.0,0.0,0.0,0.0,0.0,0.0,0.0,0.0,0.0,0.0,0.0,0.0,0.0,0.0,0.0,0.0,0.0,0.0,0.0,0.0,0.0,0.0,0.0,0.0,0.0,0.0,0.0,0.0,0.0,0.0,0.0,0.0,0.0,0.0,1.5337,1.5186,1.5336,1.5755,1.577,0.0,0.0,0.0,0.0,0.0,0.0,0.0,0.0,0.0,0.0,0.0,0.0,0.0,0.0,0.0,0.0,0.0,0.0,0.0,0.0,0.0,0.0,0.0,0.0,0.0,0.0,0.0,0.0,0.0,0.0,0.0,0.0,0.0,0.0,0.0,0.0,0.0,0.0,0.0,0.0,0.0,0.0,0.0,0.8689,0.8804,0.0,0.0,0.0,0.0,0.0,0.0,0.0,0.0,0.0,0.0,0.0,0.0,0.0,0.9987,1.2892,1.3369,1.5089,1.8069,1.8808,1.916,1.9174,1.9439,1.9558,1.9545,1.9304,0.0,1.7445,1.5029,0.0,0.0,0.0,0.0,0.0,0.0,0.0,0.0,0.0,0.0,0.0,0.0,0.0,0.0,0.0,0.0,0.0,0.0,0.0,0.0,0.0,0.0,0.0,0.0,0.0,0.0,0.0,0.0,0.0,0.0,0.0,0.0,0.0,0.0,0.0,0.0,1.491,1.5166,1.5391,1.5431,1.5671,1.6072,1.6072,1.6072,1.6072,1.5875,0.0,0.0,0.0,0.0,0.0,0.0,0.0,0.0,0.0,0.0,0.0,0.0,0.0,0.0,0.0,0.0,0.0,0.0,0.0,0.0,0.0,0.0,0.0,0.0,0.0,0.0,0.0,0.0,0.0,0.0,0.0,0.0,0.0,0.0,0.0,0.0,0.0,0.0,0.0,0.852,0.8689,0.8669,0.8683,0.8574,0.0,0.0,0.0,0.0,0.0,0.0,0.0,0.0,0.0,0.8804,0.9697,1.1323,1.3725,1.4958,1.6784,1.9239,1.9653,1.9853,1.9867,2.0176,2.0309,2.0309,2.0468,2.0147,1.9364,1.7485,1.7116,1.7397,0.0,0.0,0.0,0.0,0.9162,0.8553,0.0,0.0,0.0,0.0,0.0,0.0,0.0,0.0,0.0,0.0,0.0,0.0,0.0,0.0,0.0,1.4977,0.0,0.0,0.0,0.0,0.0,0.0,0.0,0.0,0.0,0.0,0.0,0.0,1.5499,1.5633,1.5511,1.5701,1.602,1.6404,1.6324,1.6297,1.6284,1.6032,1.5847,0.0,0.0,0.0,0.0,0.0,0.0,0.0,0.0,0.0,0.0,0.0,0.0,0.0,0.0,0.0,0.0,0.0,0.0,0.0,0.0,0.0,0.0,0.0,0.0,0.0,0.0,0.0,0.0,0.0,0.0,0.0,0.0,0.0,0.0,0.0,0.0,0.0,0.0,0.8737,0.8825,0.8702,0.8852,0.8791,0.0,0.0,0.0,0.0,0.0,0.0,0.9075,0.9082,0.9313,0.9838,1.1005,1.2738,1.5052,1.6498,1.8175,2.0027,2.0225,2.0357,2.0452,2.0681,2.0804,2.0817,2.1015,2.0989,2.0724,1.9665,1.8984,1.8405,1.6338,1.4771,1.3501,1.2109,1.069,0.9446,0.0,0.0,0.0,0.0,0.0,0.0,0.0,0.0,0.0,0.0,0.0,0.0,0.0,0.0,1.6242,1.6305,1.5747,1.5486,0.0,0.0,0.0,0.0,0.0,0.0,0.0,0.0,0.0,1.5378,1.5416,1.554,1.5781,1.5783,1.6115,1.6673,1.6405,1.6297,1.6297,1.6284,1.5937,1.5444,0.0,0.0,0.0,0.0,0.0,0.0,0.0,0.0,0.0,0.0,0.0,0.0,0.0,0.0,0.0,0.0,0.0,0.0,0.0,0.0,0.0,0.0,0.0,0.0,0.0,0.0,0.0,0.0,0.0,0.0,0.0,0.0,0.0,0.0,0.0,0.0,0.0,0.0,0.0,0.9179,0.9503,0.0,0.0,0.0,0.0,0.9159,0.9288,0.943,0.9549,0.9563,1.0442,1.235,1.2496,1.4196,1.7685,1.7804,1.88,2.0643,2.0657,2.0817,2.1069,2.1066,2.1082,2.1082,2.108,2.108,2.1026,2.0397,1.9637,1.8723,1.7069,1.6038,1.5304,1.4035,1.2635,1.1355,0.0,0.0,0.0,0.0,0.0,0.0,0.0,0.0,0.0,0.0,0.0,0.0,0.0,1.6358,1.6439,1.5809,1.5695,1.5903,1.6461,0.0,0.0,0.0,0.0,0.0,0.0,0.0,1.5273,1.566,1.566,1.5701,1.5808,1.5808,1.6033,1.6432,1.6351,1.6297,1.6297,1.6297,1.6177,1.5951,1.5658,1.5431,0.0,0.0,0.0,0.0,0.0,0.0,0.0,0.0,0.0,0.0,0.0,0.0,0.0,0.0,0.0,0.0,0.0,0.0,0.0,0.0,0.0,0.0,0.0,0.0,0.0,0.0,0.0,0.0,0.0,0.0,0.0,0.0,0.0,0.0,0.0,0.0,0.0,0.9718,0.9793,0.0,0.9379,0.9415,0.9497,0.9578,0.9712,0.9861,1.0032,1.1109,1.2052,1.2774,1.4888,1.6699,1.8139,1.9187,2.0128,2.0949,2.0949,2.1002,2.1093,2.1093,2.1093,2.1093,2.1093,2.1093,2.108,2.0866,2.0479,1.9957,1.88,1.7655,1.6424,1.4671,1.3084,1.1694,0.0,0.0,0.0,0.0,0.0,0.0,0.0,0.0,0.0,0.0,0.0,1.7369,1.696,1.7329,1.7321,1.6613,1.6502,1.6657,1.7112,0.0,0.0,0.0,0.0,0.0,0.0,1.6496,1.6162,1.6445,1.6008,1.5808,1.5808,1.5808,1.598,1.6297,1.6297,1.6351,1.6432,1.6337,1.619,1.5976,1.5658,1.5431,1.5215,0.0,0.0,0.0,0.0,0.0,0.0,0.0,0.0,0.0,0.0,0.0,0.0,0.0,0.0,0.0,0.0,0.0,0.0,0.0,0.0,0.0,0.0,0.0,0.0,0.0,0.0,0.0,0.0,0.0,0.0,0.0,0.0,0.0,0.0,1.2296,1.1996,1.0823,1.0456,1.0148,0.9765,0.9881,0.9983,1.003,1.0157,1.0556,1.1264,1.241,1.3573,1.4747,1.6938,1.8468,1.9242,2.0302,2.0922,2.1093,2.1093,2.1093,2.1093,2.1093,2.1093,2.1093,2.1093,2.1093,2.1093,2.1093,2.1002,2.0764,1.996,1.9027,1.7843,1.5865,1.4176,1.2572,0.0,0.0,0.0,0.0,0.0,0.0,0.0,0.0,0.0,0.0,1.862,1.9346,1.9859,1.937,1.8941,1.883,1.8149,1.7712,1.7673,1.7688,0.0,0.0,0.0,0.0,1.914,1.787,1.7375,1.7696,1.6421,1.5808,1.5808,1.5808,1.5967,1.6284,1.6284,1.6432,1.6648,1.6392,1.5949,1.5431,1.57,1.5484,1.5064,0.0,0.0,0.0,0.0,0.0,0.0,0.0,0.0,0.0,0.0,0.0,0.0,0.0,0.0,0.0,0.0,0.0,0.0,0.0,0.0,0.0,0.0,0.0,0.0,0.0,0.0,0.0,0.0,0.0,0.0,0.0,0.0,0.0,1.4707,1.3627,1.2868,1.2498,1.1538,1.0691,1.0179,1.0522,1.0762,1.0693,1.0784,1.1604,1.3292,1.3439,1.5005,1.8388,1.856,1.9387,2.1077,2.1093,2.1093,2.1093,2.1093,2.1093,2.1093,2.1093,2.1093,2.1093,2.1093,2.1093,2.1093,2.1093,2.1109,2.1026,2.0424,2.0039,1.958,1.7698,1.5976,1.4153,0.0,0.0,0.0,0.0,0.0,0.0,0.0,0.0,0.0,0.0,1.9646,2.0213,2.0271,1.9547,1.9051,1.9016,1.7372,1.7145,1.9002,0.0,0.0,0.0,0.0,0.0,2.025,1.8482,1.7618,1.7696,1.6421,1.5808,1.5808,1.5808,1.5848,1.594,1.594,1.598,1.6048,1.5967,1.5847,1.5675,1.5553,1.5418,1.5282,0.0,0.0,0.0,0.0,0.0,0.0,0.0,0.0,0.0,0.0,0.0,0.0,0.0,0.0,0.0,0.0,0.0,0.0,0.0,0.0,0.0,0.0,0.0,0.0,0.0,0.0,0.0,0.0,0.0,0.0,0.0,1.734,1.838,1.6931,1.5701,1.4635,1.3795,1.217,1.1635,1.2912,1.285,1.3311,1.468,1.4588,1.4688,1.5151,1.6382,1.7506,1.848,1.9722,2.0621,2.1093,2.1093,2.1093,2.1093,2.1093,2.1093,2.1093,2.1093,2.1093,2.1093,2.1093,2.1093,2.1093,2.1093,2.0989,2.0777,2.0359,2.0157,1.983,1.7759,1.5976,1.4465,0.0,0.0,0.0,0.0,0.0,0.0,0.0,0.0,0.0,0.0,2.0183,2.0787,2.0973,2.0342,1.9635,1.8988,1.801,1.7821,1.8718,0.0,0.0,0.0,0.0,2.0932,2.1688,1.9985,1.8883,1.8457,1.7089,1.6209,1.5808,1.5808,1.5808,1.5808,1.5808,1.5808,1.5808,1.5953,1.5927,1.5808,1.5912,1.5884,1.5763,1.5735,1.5804,1.5939,1.5939,1.6166,1.6445,1.6247,0.0,0.0,0.0,0.0,0.0,0.0,0.0,0.0,0.0,0.0,0.0,0.0,0.0,0.0,0.0,0.0,0.0,0.0,0.0,0.0,0.0,0.0,0.0,0.0,1.8802,2.0036,1.9656,1.762,1.5942,1.5366,1.3658,1.2986,1.4092,1.4565,1.524,1.6323,1.6094,1.6221,1.6947,1.7956,1.8832,1.9562,2.0573,2.1093,2.1093,2.1093,2.1093,2.1093,2.1093,2.1093,2.1093,2.1093,2.1093,2.1093,2.1093,2.1093,2.108,2.0975,2.0844,2.0657,0.0,0.0,0.0,0.0,1.5976,1.4599,0.0,0.0,0.0,0.0,0.0,0.0,0.0,0.0,0.0,0.0,0.0,2.1233,2.1783,2.131,2.0409,1.9101,1.9328,1.9075,0.0,0.0,0.0,2.1594,2.1988,2.2478,2.3081,2.171,2.0505,1.9508,1.8021,1.6786,1.5808,1.5808,1.5808,1.5808,1.5808,1.5808,1.5821,1.6124,1.6086,1.5901,1.6474,1.6539,1.6324,1.6593,1.6714,1.6754,1.6754,1.6807,1.6835,1.682,0.0,0.0,0.0,0.0,0.0,0.0,0.0,0.0,0.0,0.0,0.0,0.0,0.0,0.0,0.0,0.0,0.0,0.0,0.0,0.0,0.0,0.0,0.0,0.0,1.9848,2.1259,2.2311,1.9432,1.7206,1.7186,1.5535,1.4523,1.4832,1.6121,1.6977,1.7068,1.675,1.7217,1.8768,1.8812,0.0,0.0,0.0,2.1093,2.1093,2.1093,2.1093,2.1093,2.1093,2.1093,2.1093,2.1093,2.1093,2.1093,2.1093,2.1093,2.1082,2.0817,2.0672,2.0563,2.0265,1.9985,1.9557,1.7877,1.637,1.5133,0.0,0.0,0.0,0.0,0.0,0.0,0.0,0.0,0.0,2.1748,2.1779,2.1808,2.2089,2.1152,2.0569,2.0713,1.9504,1.9112,0.0,0.0,2.1113,2.2259,2.2246,2.2478,2.3081,2.171,2.0505,1.9508,1.8021,1.6786,1.5808,1.5808,1.5808,1.5808,1.5808,1.5808,1.5796,1.5861,1.6019,1.6231,1.6567,1.6539,1.6324,1.6593,1.6873,1.7099,1.7099,1.7382,1.7729,1.7502,1.7569,1.7716,1.7488,0.0,0.0,0.0,0.0,0.0,0.0,0.0,0.0,0.0,0.0,0.0,0.0,0.0,0.0,0.0,0.0,0.0,0.0,0.0,0.0,1.9562,2.1094,2.2245,2.2729,2.1056,1.9696,1.949,1.6463,1.5592,1.8652,1.8999,1.9637,2.1128,2.0773,2.0638,2.0989,2.0751,2.0748,2.1093,2.1093,2.1093,2.1093,2.1093,2.1093,2.1093,2.1093,0.0,2.1093,2.1093,2.1093,2.1093,2.1093,2.1093,2.1082,2.0817,2.0416,1.996,1.9907,1.9706,1.9424,1.9067,1.8735,1.8473,0.0,0.0,0.0,0.0,0.0,0.0,0.0,0.0,0.0,0.0,2.2453,2.2456,2.2355,2.172,2.1073,2.0453,1.9579,0.0,0.0,2.1266,2.1821,2.2479,2.2597,2.2789,2.3081,2.2172,2.0984,1.9508,1.8526,1.729,1.5808,1.5808,1.5808,1.5808,1.5808,1.5808,1.5821,1.6115,1.6273,1.6351,1.6927,1.6993,1.6778,1.7047,1.7247,1.7408,1.7555,1.7769,1.8009,1.8036,1.8143,1.8086,1.7153,1.7194,1.7357,0.0,0.0,0.0,0.0,0.0,0.0,0.0,0.0,0.0,0.0,0.0,0.0,0.0,0.0,1.6835,1.7952,0.0,1.9702,2.1075,2.2071,2.2716,2.288,2.1635,2.0604,2.0327,1.8497,1.8001,1.9912,2.0649,2.1382,2.2334,2.2034,2.1743,2.1612,2.1448,2.1269,2.1109,2.1093,2.1093,2.1093,2.1093,2.1093,2.1093,2.1093,2.1093,2.1093,2.1093,2.1093,2.1093,2.1093,2.1093,2.1082,2.0641,2.0201,1.9786,1.9654,1.9522,1.9401,1.9401,1.9401,1.9401,0.0,0.0,0.0,0.0,0.0,0.0,0.0,0.0,0.0,0.0,2.2711,2.2584,2.2237,2.2044,2.1389,0.0,0.0,0.0,0.0,2.2349,2.29,2.2637,2.3101,2.3278,2.3101,2.2651,2.1449,1.9508,1.9032,1.7796,1.59,1.5835,1.5835,1.59,1.59,1.59,1.594,1.654,1.6699,1.6618,1.7327,1.7541,1.7474,1.7622,1.7689,1.7702,1.7916,1.8009,1.8062,1.845,1.8544,1.824,1.675,1.6927,1.7343,1.5512,1.5968,0.0,0.0,0.0,0.0,0.0,0.0,0.0,0.0,1.7502,1.7862,1.8409,1.8996,1.9638,2.0346,2.0775,2.1352,2.2338,2.2823,2.3094,2.3148,2.2228,2.1456,2.125,2.065,2.036,2.0629,2.1834,2.2548,2.2495,2.2231,2.1954,2.1689,2.1625,2.1448,2.1107,2.1093,2.1093,2.1093,2.1093,2.1093,2.1093,2.1093,2.1093,2.1093,2.1093,2.1093,2.1093,2.1093,2.1026,2.0893,2.0479,2.0065,1.9708,1.9534,1.9441,1.9401,1.9401,1.9401,1.9401,0.0,0.0,0.0,0.0,0.0,0.0,0.0,0.0,0.0,0.0,0.0,0.0,0.0,0.0,0.0,0.0,0.0,0.0,2.2324,2.394,2.4346,2.309,2.3867,2.3961,2.3123,2.2651,2.1449,1.9508,1.9032,1.7927,1.6244,1.594,1.5953,1.6231,1.6231,1.6231,1.6284,1.6885,1.726,1.7461,1.7555,1.7903,1.833,1.8049,1.7956,1.7956,1.7996,1.8009,1.8089,1.8663,1.8704,1.8306,1.7242,1.679,1.6525,1.5812,1.537,1.5275,1.6036,1.6285,1.6512,1.7221,1.7448,1.7836,0.0,1.9479,1.9681,2.0283,2.0886,2.1328,2.1438,2.1857,2.2352,2.2769,2.3335,2.3772,2.4022,2.3921,2.3821,2.3794,2.2039,2.1284,2.247,2.2952,2.3096,2.2867,2.2539,2.2245,2.1967,2.1729,2.1448,2.1107,2.1093,2.1093,2.1093,2.1093,2.1093,2.1093,2.1093,2.1093,2.1093,2.1093,2.1093,2.1093,2.1093,2.0799,2.0317,2.0548,2.0162,1.9468,1.9666,1.9614,1.9401,1.9401,1.9401,1.9401,0.0,0.0,0.0,0.0,0.0,0.0,0.0,0.0,0.0,0.0,0.0,0.0,0.0,0.0,0.0,0.0,0.0,0.0,2.3574,2.483,2.506,2.3951,2.4498,2.4444,2.3527,2.3432,2.2323,2.0147,1.9782,1.8565,1.6539,1.6393,1.6394,1.6526,1.6526,1.6632,1.6845,1.726,1.7595,1.7849,1.8063,1.8277,1.8477,1.8343,1.8169,1.8009,1.8009,1.7902,0.0,0.0,1.7767,1.6779,1.5573,1.5634,1.5842,1.4334,1.5105,1.6482,1.6748,1.6939,1.7141,1.7502,1.7983,1.8571,1.9387,1.9694,2.0013,2.0775,2.1406,2.1874,2.2047,2.2539,2.2976,2.3113,2.3634,2.4026,2.3973,2.4249,2.4244,2.3737,2.3163,2.2898,2.311,2.3229,2.3193,2.292,2.2769,2.2489,2.2021,2.1887,2.1606,2.1122,2.1093,2.1093,2.1093,2.1093,2.1093,2.1093,2.1093,2.1093,2.1093,2.1093,2.1093,2.1093,2.1093,2.096,2.0719,2.071,2.0498,2.0122,1.988,1.972,1.9614,1.9455,1.9401,1.9401,0.0,0.0,0.0,0.0,0.0,0.0,0.0,0.0,0.0,0.0,0.0,0.0,0.0,0.0,0.0,0.0,0.0,0.0,0.0,2.5701,2.5931,2.4803,2.5098,2.4869,2.3987,2.3762,2.2696,2.0706,2.0161,1.892,1.7061,1.6981,1.6994,1.7061,1.7061,1.7194,1.7435,1.7809,1.8063,1.8262,1.8517,1.8678,1.8732,1.8571,1.829,1.7996,1.7929,1.7662,0.0,0.0,1.7037,1.5901,1.4643,1.4925,1.5381,1.3702,1.5123,1.722,1.7086,1.7327,1.7649,1.7903,1.861,1.9344,1.9681,2.0028,2.0496,2.1203,2.175,2.2341,2.311,2.3293,2.348,2.4055,2.4183,2.4155,2.404,2.4284,2.4257,2.363,2.3875,2.3888,2.3363,2.3389,2.3327,2.3023,2.301,2.2716,2.2034,2.2007,2.171,2.1122,2.1093,2.1093,2.1093,2.1093,2.1093,2.1093,2.1093,2.1093,2.1093,2.1093,2.1093,2.1093,2.1093,2.1069,2.0975,2.0871,2.071,2.0537,2.0174,1.9987,1.988,1.9614,1.9468,1.9401,0.0,0.0,0.0,0.0,0.0,0.0,0.0,0.0,0.0,0.0,0.0,0.0,0.0,0.0,0.0,0.0,0.0,0.0,0.0,2.6801,2.7241,2.5447,2.5641,2.5336,2.4394,2.3176,2.2036,2.0983,1.9742,1.8733,1.7942,1.7689,1.7702,1.7969,1.7956,1.7969,1.8009,1.8609,1.8877,1.8863,1.8876,1.9078,1.9308,1.8718,1.829,1.7969,1.7702,0.0,0.0,0.0,1.6981,1.6493,1.5479,1.5192,1.5161,1.4841,1.5493,1.6391,1.6647,1.7154,1.7809,1.865,1.9517,2.0252,2.059,2.1114,2.1638,2.1914,2.2191,2.3007,2.5023,2.4244,2.3954,2.5976,2.5132,2.4302,2.4532,2.4364,2.4209,2.4182,2.3959,2.3679,2.3336,2.3594,2.3652,2.3323,2.3296,2.2909,2.2047,2.2007,2.171,2.1122,2.1093,2.1093,2.1093,2.1093,2.1093,2.1093,2.1093,2.1093,2.1093,2.1093,2.1093,2.1093,2.1093,2.0949,2.0724,2.0989,2.0746,2.0237,2.0548,2.0468,2.0157,1.9893,1.9627,1.9401,0.0,0.0,0.0,0.0,0.0,0.0,0.0,0.0,0.0,0.0,0.0,0.0,0.0,0.0,0.0,0.0,2.5247,0.0,0.0,2.7278,2.7142,2.5921,2.5818,2.5356,2.4414,2.3852,2.2958,2.1726,2.0597,1.9445,1.833,1.8237,1.825,1.833,1.833,1.8557,1.8918,1.8904,1.9131,1.9478,1.9292,1.9293,1.9348,1.8931,1.8449,1.7942,0.0,0.0,0.0,0.0,0.0,0.0,1.4851,1.4659,1.46,1.527,1.6,1.666,1.7154,1.7862,1.8677,1.9543,2.0145,2.0601,2.0895,2.1285,2.1932,2.3096,2.3325,2.3878,2.5641,2.501,2.4525,2.5393,2.4777,2.4284,2.4559,2.4519,2.4324,2.3986,2.3852,2.3665,2.3336,2.3403,2.3354,2.3063,2.3037,2.2729,2.2034,2.2007,2.171,2.1122,2.1093,2.1093,2.1093,2.1093,2.1093,2.1093,2.1093,2.1093,2.1093,2.1093,2.1093,2.1093,2.1093,2.1056,2.0975,2.1053,2.0973,2.0786,2.0724,2.063,2.0468,1.9973,1.9733,1.9641,0.0,0.0,0.0,0.0,0.0,0.0,0.0,0.0,0.0,0.0,0.0,0.0,0.0,0.0,0.0,0.0,0.0,2.7065,0.0,0.0,2.7218,2.6499,2.6038,2.5356,2.4414,2.3895,2.3004,2.1722,2.0755,1.9613,1.833,1.853,1.8651,1.8651,1.8772,1.904,1.9388,1.9158,1.9224,1.9451,1.9186,1.8999,1.8865,1.8437,1.7983,0.0,0.0,0.0,0.0,0.0,0.0,0.0,0.0,1.4875,1.4887,1.5835,1.6892,1.7923,1.874,1.9942,2.1161,2.1933,2.1995,2.1926,2.2105,2.2416,2.2948,2.3944,2.446,2.5172,2.664,2.5611,2.4697,2.5271,2.4442,2.3861,2.4257,2.4217,2.4124,2.4088,2.3919,2.3719,2.35,2.3376,2.3229,2.3063,2.305,2.2783,2.2178,2.2138,2.1924,2.1443,2.1323,2.1285,2.1285,2.1162,2.1093,2.1093,2.1093,2.1093,2.1093,2.1093,2.1093,2.1093,2.1093,2.1093,2.1093,2.1093,2.1093,2.108,2.0909,2.0777,2.063,2.0134,1.9878,1.976,0.0,0.0,0.0,0.0,0.0,0.0,0.0,0.0,0.0,0.0,0.0,0.0,0.0,0.0,0.0,0.0,0.0,0.0,0.0,0.0,0.0,2.6995,2.6154,2.527,2.4386,2.3343,2.2207,2.0999,2.0245,1.9217,1.7996,1.8569,1.8823,1.885,1.9159,1.9308,1.9321,1.9308,1.9133,1.8823,1.8557,1.8263,1.7916,1.7394,0.0,0.0,0.0,0.0,0.0,0.0,1.5821,1.5848,1.5848,1.5875,1.602,1.6667,1.8205,1.9956,2.1202,2.3099,2.4885,2.5468,2.4871,2.4131,2.4116,2.4435,2.4693,2.46,2.5565,2.6791,2.8,2.6124,2.4692,2.5642,2.4272,2.3252,2.3763,2.3567,2.3665,2.4479,2.4142,2.3879,2.3946,2.3668,2.3511,2.3602,2.3401,2.3029,2.2428,2.2402,2.2285,2.2007,2.1756,2.1625,2.1625,2.1296,2.1149,2.1136,2.1136,2.1122,2.1093,2.1093,2.1093,2.1093,2.1093,2.1093,2.1093,2.1093,2.1093,2.1093,2.1093,2.0935,2.0657,2.0346,2.0037,1.976,0.0,0.0,0.0,0.0,0.0,0.0,0.0,0.0,0.0,0.0,0.0,0.0,0.0,0.0,0.0,0.0,0.0,0.0,0.0,0.0,0.0,0.0,0.0,0.0,0.0,0.0,0.0,0.0,2.0013,1.8901,1.7702,1.7849,1.7943,1.7943,1.8023,1.817,1.8343,1.8143,1.8116,1.8209,0.0,1.7782,1.7675,0.0,0.0,0.0,0.0,0.0,1.5808,1.5808,1.6102,1.6474,1.6474,1.678,1.7386,1.8641,1.993,2.129,2.2901,2.43,2.5393,2.5795,2.5923,2.5874,2.5553,2.6004,2.656,2.6868,2.6853,2.7081,2.8091,2.7445,2.653,2.5899,2.5649,2.5242,2.4511,2.4319,2.4284,2.4297,2.4351,2.4784,2.5792,2.5985,2.6551,2.7752,2.4839,2.2836,2.2415,2.2402,2.2285,2.2007,2.1927,2.1903,2.1903,2.182,2.1673,2.1475,2.1475,2.1339,2.1093,2.1093,2.1093,2.1093,2.1093,2.1093,2.1093,2.1093,2.1093,2.1093,2.1093,2.0935,2.0684,2.0603,2.0241,1.9786,0.0,0.0,0.0,0.0,0.0,0.0,0.0,0.0,0.0,0.0,0.0,0.0,0.0,0.0,0.0,0.0,0.0,0.0,0.0,0.0,0.0,0.0,0.0,0.0,0.0,0.0,0.0,0.0,0.0,0.0,1.7806,1.7546,1.7707,1.8199,1.7777,1.7689,1.7809,1.7662,0.0,0.0,0.0,0.0,0.0,0.0,0.0,0.0,0.0,1.6127,1.6306,1.6976,1.7162,1.7114,1.7222,1.8095,1.9257,2.0364,2.2209,2.4164,2.5422,2.6786,2.7952,2.8316,2.8145,2.7715,2.7088,2.7446,2.7745,2.7249,2.7486,2.7827,2.8004,2.7847,2.7158,2.5498,2.5567,2.5455,2.4395,2.4262,2.4638,2.5702,2.5849,2.6489,2.8068,2.7468,2.737,2.8289,2.5975,2.4396,2.4085,2.3253,2.2672,2.2395,2.2245,2.2111,2.2007,2.2007,2.1877,2.1598,2.1598,2.1419,2.1093,2.1093,2.1093,2.1093,2.1093,2.1093,2.1093,2.1093,2.1093,2.1093,2.1093,2.0855,2.0494,2.0643,2.0242,1.9641,0.0,0.0,0.0,0.0,0.0,0.0,0.0,0.0,0.0,0.0,0.0,0.0,0.0,0.0,0.0,0.0,0.0,0.0,0.0,0.0,0.0,0.0,0.0,0.0,0.0,0.0,0.0,0.0,0.0,0.0,0.0,0.0,0.0,0.0,0.0,0.0,0.0,0.0,0.0,0.0,0.0,0.0,0.0,0.0,0.0,0.0,0.0,1.6409,1.7112,1.8616,1.8517,1.7862,1.8347,1.9728,2.1318,2.2262,2.4755,2.7374,2.8099,2.9604,3.1055,3.1411,3.066,2.9613,2.8684,2.8771,2.859,2.6907,2.7674,2.8444,2.7819,2.7788,2.7242,2.5363,2.5282,2.5202,2.4453,2.408,2.4896,2.7585,2.7675,2.8385,3.0469,2.8755,2.7588,2.7808,2.7143,2.6459,2.5911,2.4237,2.318,2.2907,2.2622,2.2352,2.2128,2.2114,2.1954,2.1649,2.1649,2.1462,2.1093,2.1093,2.1093,2.1093,2.1093,2.1093,2.1093,2.1093,2.1093,2.1093,2.1093,2.0759,2.0319,2.0628,2.0216,1.9534,0.0,0.0,0.0,0.0,0.0,0.0,0.0,0.0,0.0,0.0,2.7478,2.7039,0.0,0.0,0.0,0.0,0.0,0.0,0.0,0.0,0.0,0.0,0.0,0.0,0.0,2.3101,2.2414,2.1,2.0036,0.0,0.0,0.0,0.0,0.0,0.0,0.0,0.0,0.0,0.0,0.0,0.0,0.0,0.0,0.0,0.0,0.0,1.6998,1.7583,1.8043,1.9324,1.927,1.8955,2.0625,2.1707,2.2902,2.5557,2.705,2.8132,2.9465,3.0592,3.1411,3.1489,3.1625,3.1395,3.0132,2.992,2.9593,2.8237,2.7621,2.7402,2.7643,2.7984,2.8158,2.7996,2.7575,2.7227,2.7194,2.5602,2.5309,2.7626,2.7865,2.9104,3.2386,3.1164,3.0684,3.2018,2.915,2.6429,2.4321,2.3623,2.318,2.2907,2.284,2.28,2.2746,2.2746,2.2479,2.1927,2.1927,2.1646,2.1093,2.1093,2.1093,2.1093,2.1093,2.1093,2.1093,2.1093,2.1093,2.1093,2.1093,2.0895,2.0657,2.0922,2.0613,2.0079,0.0,0.0,0.0,0.0,0.0,0.0,0.0,2.6711,2.7196,2.7978,2.7863,2.7963,2.864,2.9352,0.0,0.0,0.0,0.0,0.0,0.0,0.0,0.0,0.0,0.0,0.0,2.3101,2.2205,2.0353,0.0,1.8879,1.7661,1.6398,1.615,1.6763,1.6104,1.5808,1.5808,0.0,0.0,1.5808,1.5808,1.5808,0.0,0.0,0.0,0.0,0.0,1.902,1.8527,1.99,2.0217,2.0301,2.1712,2.3042,2.4512,2.6877,2.8313,2.9397,3.0553,3.1367,3.1698,3.0989,3.1058,3.0589,2.8031,2.7863,2.7874,2.6511,2.6634,2.7136,2.7604,2.8406,2.8771,2.8121,2.7614,2.714,2.672,2.5224,2.5423,2.8746,2.9152,3.0597,3.4316,3.3088,3.1945,3.172,2.9095,2.69,2.5541,2.4251,2.342,2.3113,2.31,2.305,2.2893,2.2893,2.2679,2.2205,2.2074,2.178,2.1352,2.1176,2.1093,2.1093,2.1093,2.1093,2.1093,2.1093,2.1093,2.1093,2.1093,2.0935,2.0724,2.1002,2.0719,2.0224,0.0,0.0,0.0,0.0,0.0,0.0,0.0,2.6761,2.7425,2.793,2.8038,2.8544,2.9843,2.966,2.9077,0.0,0.0,0.0,0.0,0.0,0.0,0.0,0.0,0.0,0.0,0.0,0.0,1.9895,1.9633,0.0,0.0,0.0,0.0,0.0,1.6244,1.5808,1.5808,1.5808,1.5808,0.0,0.0,1.5808,0.0,0.0,0.0,0.0,0.0,2.0346,1.9332,2.0835,2.128,2.1396,2.2588,2.4206,2.6001,2.7568,2.914,3.0527,3.1294,3.1666,3.1602,3.0549,3.0026,2.9036,2.6222,2.6041,2.6221,2.5239,2.6072,2.7168,2.7721,2.8582,2.893,2.8133,2.7431,2.6808,2.6279,2.5464,2.6305,3.0103,3.0848,3.2386,3.5827,3.4352,3.2403,3.0451,2.8179,2.6742,2.6424,2.4796,2.3745,2.3416,2.3349,2.3189,2.2983,2.2934,2.2729,2.2402,2.2124,2.1863,2.1585,2.1243,2.1093,2.1093,2.1093,2.1093,2.1093,2.1093,2.1093,2.1093,2.1093,2.0962,2.0817,2.1029,2.0799,2.041,0.0,0.0,0.0,0.0,0.0,0.0,0.0,2.7434,2.7882,3.0025,2.891,2.8575,3.0343,2.9158,2.8217,0.0,0.0,0.0,0.0,0.0,0.0,0.0,0.0,0.0,0.0,0.0,0.0,2.1127,2.0036,0.0,0.0,0.0,0.0,0.0,0.0,1.5808,1.5808,1.5808,0.0,0.0,0.0,0.0,0.0,0.0,0.0,0.0,0.0,2.1192,2.1252,2.2613,2.235,2.1811,2.3769,2.5579,2.7175,2.8431,2.977,3.0937,3.1372,3.1129,3.0729,3.0586,2.9163,2.7768,2.7716,2.7078,2.6673,2.7255,2.7188,2.7266,2.8086,2.8054,2.8333,2.9729,2.8494,2.7616,2.84,2.8518,2.9208,3.1082,3.2589,3.431,3.6428,3.4537,3.2403,3.0451,2.6928,2.4741,2.448,2.4259,2.4053,2.3759,2.3474,2.3296,2.3269,2.3023,2.2729,2.2402,2.2124,2.1863,2.1585,2.1243,2.1093,2.1093,2.1093,2.1093,2.1093,2.1093,2.1093,2.1093,2.1093,2.108,2.1069,2.108,2.1053,2.1002,0.0,0.0,0.0,0.0,0.0,0.0,2.7724,2.8236,2.8681,2.8505,2.8467,2.8556,2.8818,2.7693,2.6962,0.0,0.0,0.0,0.0,0.0,0.0,0.0,0.0,0.0,0.0,0.0,2.1787,1.9131,1.9382,0.0,0.0,0.0,0.0,0.0,0.0,1.5808,1.5808,1.5808,0.0,0.0,0.0,0.0,0.0,0.0,0.0,0.0,0.0,0.0,2.1381,2.1908,2.2309,2.2642,2.2935,2.4877,2.724,2.8249,2.9291,3.0151,3.0261,3.0628,3.0461,2.8361,2.6994,2.6004,2.5324,2.4948,2.5072,2.6209,2.6966,2.7611,2.8197,2.8177,2.8353,2.9277,2.8186,2.757,2.8599,2.8157,2.871,3.1375,3.247,3.3879,3.6079,3.5691,3.4402,3.2211,2.8503,2.6703,2.7529,2.5585,2.4311,2.4035,2.3915,2.367,2.3292,2.3189,2.2993,2.2702,2.2221,2.194,2.182,2.1323,2.1093,2.1093,2.1093,2.1093,2.1093,2.1093,2.1093,2.1093,2.1093,2.1093,2.1093,2.1093,2.1093,2.108,0.0,0.0,0.0,0.0,0.0,2.8532,2.7468,2.8263,2.8596,2.7495,2.7753,2.8053,2.7964,2.6883,2.6208,2.6374,0.0,0.0,0.0,0.0,0.0,0.0,0.0,0.0,0.0,0.0,2.1183,1.8357,1.8842,1.8052,0.0,0.0,1.5953,1.594,0.0,0.0,0.0,0.0,0.0,0.0,0.0,0.0,0.0,0.0,0.0,0.0,0.0,0.0,0.0,0.0,0.0,2.3724,2.3101,2.4633,2.6752,2.7519,2.8607,2.9543,2.9213,2.9728,2.9696,2.6818,2.5271,2.4404,2.4275,2.4018,2.4306,2.6044,2.7288,2.8138,2.8418,2.8588,2.8783,2.9062,2.8389,2.8045,2.8614,2.8577,2.9094,3.0771,3.2152,3.3532,3.4963,3.5454,3.4979,3.331,3.0166,2.8557,2.9095,2.6798,2.5318,2.502,2.4485,2.3968,2.3443,2.3349,2.3166,2.2893,2.2368,2.2087,2.1981,2.1486,2.1189,2.1093,2.1093,2.1093,2.1093,2.1093,2.1093,2.1093,2.1093,2.1093,2.1093,2.1093,2.1093,2.1093,0.0,0.0,0.0,0.0,0.0,0.0,2.7468,2.7198,2.7304,2.7817,2.6974,2.6902,2.8433,2.7222,2.6239,2.6126,0.0,0.0,0.0,0.0,0.0,0.0,0.0,0.0,0.0,0.0,2.0849,1.9884,1.8684,1.7639,1.6674,1.6419,1.6297,1.6284,0.0,0.0,0.0,0.0,0.0,0.0,0.0,0.0,0.0,0.0,0.0,0.0,0.0,0.0,0.0,0.0,0.0,0.0,0.0,2.5359,2.5815,2.6289,2.7936,2.9394,2.8479,2.8308,2.8099,2.6729,2.4391,2.3129,2.5848,2.5339,2.5059,2.7722,2.86,2.8893,2.8879,2.9258,2.9579,2.9598,2.9584,2.9374,2.8784,3.0686,3.1327,2.9093,3.1944,3.3775,3.3012,3.3108,3.3222,3.3205,3.1386,2.9472,2.7632,2.7487,2.7288,2.6885,2.5143,2.4062,2.3803,2.3474,2.3166,2.2893,2.2565,2.2258,2.1994,2.1716,2.1406,2.1093,2.1093,2.1093,2.1093,2.1093,2.1093,2.1093,2.1093,2.1093,2.1093,2.1093,2.1093,2.1093,0.0,0.0,0.0,0.0,0.0,0.0,0.0,2.718,2.6582,2.6238,2.5897,2.5825,2.6168,2.5756,2.5463,2.5416,0.0,0.0,0.0,0.0,0.0,0.0,0.0,0.0,0.0,0.0,0.0,1.7431,1.789,1.7615,1.6688,1.6431,1.6297,1.6296,1.5953,1.5808,0.0,0.0,0.0,0.0,0.0,0.0,2.0859,0.0,0.0,0.0,0.0,0.0,0.0,0.0,0.0,0.0,0.0,0.0,0.0,2.625,2.7493,2.835,2.6684,2.6628,2.6408,2.3765,2.2942,2.3227,2.5115,2.5555,2.607,2.7912,2.8619,2.8912,2.8912,2.9277,2.9696,2.9975,3.0014,3.0048,3.0194,3.1369,3.2247,3.2401,3.4466,3.5787,3.5523,3.5253,3.5106,3.5106,3.3344,3.2473,3.2944,3.0698,2.8161,2.5414,2.4763,2.4337,2.4093,2.3799,2.3474,2.318,2.2642,2.2361,2.2255,2.1994,2.182,2.1697,2.1513,2.1448,2.1419,2.1189,2.1093,2.1093,2.1093,2.1093,2.1093,2.1093,2.1093,2.1093,0.0,0.0,0.0,0.0,0.0,0.0,0.0,2.6646,2.6099,2.4955,2.4654,2.4681,2.5067,2.4945,2.4973,2.5305,0.0,0.0,0.0,0.0,0.0,0.0,0.0,0.0,0.0,2.0634,1.9687,1.7467,1.7764,1.7658,1.7182,1.6927,1.6672,1.6432,1.6126,1.5927,0.0,0.0,0.0,0.0,0.0,0.0,2.1436,0.0,0.0,0.0,0.0,0.0,0.0,0.0,0.0,0.0,0.0,0.0,0.0,0.0,2.7454,2.7592,2.5429,2.5099,2.4735,2.2233,2.2263,2.3278,2.4753,2.5614,2.6527,2.8,2.875,2.916,2.916,2.9682,3.017,3.041,3.0449,3.0605,3.1074,3.187,3.2828,3.3977,3.4943,3.5651,3.5923,3.6133,3.6191,3.6018,3.4918,3.4366,3.4626,3.256,2.9918,2.6652,2.6561,2.6287,2.5709,2.4995,2.4403,2.3922,2.3021,2.2525,2.2388,2.2231,2.2047,2.185,2.1662,2.1529,0.0,2.1189,2.1093,2.1093,2.1093,2.1093,2.1093,2.1093,2.1093,2.1093,0.0,0.0,0.0,0.0,0.0,0.0,0.0,0.0,2.5751,2.3973,2.3396,2.3641,2.4906,2.4687,2.4781,2.5628,0.0,0.0,0.0,0.0,0.0,0.0,0.0,0.0,0.0,2.0509,1.97,1.928,1.8146,1.7756,1.8036,1.7742,1.7288,1.6727,1.6431,1.6173,0.0,0.0,0.0,0.0,0.0,0.0,0.0,0.0,0.0,0.0,0.0,0.0,0.0,0.0,0.0,0.0,0.0,0.0,0.0,0.0,0.0,0.0,0.0,2.3838,2.3266,2.1817,2.2213,2.3323,2.47,2.5662,0.0,2.8027,2.8978,2.9598,2.9598,3.0307,3.0913,3.0913,3.0913,3.1035,3.145,3.2363,3.3262,3.4055,3.3979,3.4105,3.4676,3.5896,3.6482,3.6077,3.6018,3.5226,3.3482,3.3378,3.2368,3.022,3.0147,2.952,2.825,2.673,2.564,2.5003,2.3549,2.2702,2.2402,2.2392,2.2147,2.1657,2.1644,2.1454,2.1167,2.1122,2.1093,2.1093,2.1093,2.1093,2.1093,2.1093,2.1093,2.1093,0.0,0.0,0.0,0.0,0.0,0.0,0.0,0.0,0.0,0.0,2.3485,2.3867,2.4512,2.4797,2.5137,0.0,0.0,0.0,0.0,0.0,0.0,0.0,0.0,0.0,0.0,2.0048,1.9286,1.8015,1.774,1.7876,1.837,1.7849,1.7421,1.7059,1.6524,0.0,0.0,0.0,0.0,0.0,0.0,0.0,0.0,0.0,0.0,0.0,2.4032,2.4383,0.0,0.0,0.0,0.0,0.0,0.0,0.0,0.0,2.6072,0.0,2.395,0.0,2.3134,2.0552,2.1759,2.3677,0.0,2.601,2.7874,2.8228,2.8978,2.9598,2.9598,3.0307,3.0913,3.0913,3.0913,3.1035,3.145,3.3398,3.4726,3.4587,3.567,3.6126,3.5299,3.5801,3.6269,3.6521,3.6211,3.5811,3.5382,3.5108,3.4557,3.3727,3.345,3.1774,2.853,2.6523,2.5468,2.5273,2.3405,2.2485,2.2402,2.2457,2.2399,2.228,2.2064,2.1944,2.1831,2.1314,2.1093,2.1093,2.1093,2.1093,2.1093,2.1093,2.1093,2.1093,0.0,0.0,0.0,0.0,0.0,0.0,0.0,0.0,0.0,0.0,0.0,0.0,0.0,0.0,0.0,0.0,0.0,0.0,0.0,0.0,0.0,0.0,0.0,0.0,2.0178,2.0318,1.9613,1.801,1.801,1.8237,1.8663,1.821,1.802,1.802,1.7853,0.0,0.0,0.0,0.0,0.0,2.3293,0.0,0.0,0.0,0.0,0.0,2.4551,2.4832,0.0,2.5789,2.6191,2.6477,0.0,0.0,0.0,0.0,2.6349,2.4412,2.3939,2.2816,2.1387,1.9808,2.1615,2.3794,2.3794,2.6127,2.8314,2.8314,2.8978,2.9598,2.9598,3.0464,3.1113,3.0918,3.1245,3.1773,3.2578,3.3922,3.5016,3.5564,3.6601,3.7031,3.6328,3.6641,3.6818,3.6714,3.6462,3.623,3.6018,3.5675,3.5316,3.4921,3.4408,3.3035,3.0735,2.8917,2.7576,2.6664,2.4772,2.359,2.3096,2.3487,2.3561,2.3392,2.3138,2.3105,2.3135,2.1685,2.1632,2.2372,2.1459,2.1378,2.174,2.1267,2.1189,2.1312,0.0,0.0,0.0,0.0,0.0,0.0,0.0,0.0,0.0,0.0,0.0,0.0,0.0,0.0,0.0,0.0,0.0,0.0,0.0,0.0,0.0,0.0,0.0,2.3163,2.0543,2.0827,2.0148,1.8424,1.8464,1.8637,1.8904,1.8902,1.9045,1.9356,1.9724,0.0,0.0,0.0,0.0,0.0,2.3917,0.0,0.0,0.0,0.0,0.0,0.0,0.0,0.0,2.6133,2.6367,2.6634,2.737,0.0,0.0,0.0,0.0,0.0,2.4278,2.2074,2.0109,1.9808,2.1785,2.3864,2.41,2.6309,2.8334,2.8392,2.9051,2.9618,2.9676,3.0625,3.1328,3.1035,3.1831,3.2941,3.4215,3.4489,3.5092,3.6423,3.7068,3.7344,3.7207,3.7519,3.7461,3.6834,3.6658,3.6423,3.6018,3.5675,3.5333,3.5007,3.4274,3.3712,3.3298,3.1598,2.9945,2.8358,2.6491,2.5091,2.4191,2.4936,2.5117,2.4836,2.4549,2.4585,2.4672,2.2573,2.2701,2.407,2.2357,2.2198,2.2778,2.1829,2.1583,2.17,0.0,0.0,0.0,0.0,0.0,0.0,0.0,0.0,0.0,0.0,0.0,0.0,0.0,0.0,0.0,0.0,0.0,0.0,0.0,0.0,0.0,0.0,2.3983,2.3293,2.0966,2.0983,2.0041,1.8076,1.8356,1.8637,1.8932,2.0144,2.0758,2.088,2.1397,2.171,2.1969,0.0,0.0,0.0,2.4473,0.0,0.0,0.0,0.0,0.0,0.0,0.0,0.0,2.5671,2.6303,2.6921,2.707,0.0,0.0,0.0,0.0,0.0,2.4569,2.3971,2.3322,2.1675,2.2533,2.4142,2.5439,2.7074,2.8398,2.8736,2.9232,2.9696,3.0053,3.0586,3.1074,3.1352,3.2769,3.4254,3.553,3.6348,3.6641,3.6155,3.7111,3.7539,3.6853,3.6834,3.697,3.7187,3.6523,3.6077,3.5999,3.5675,3.547,3.5421,3.4693,3.4111,3.3706,3.0669,2.9146,2.9115,2.6722,2.5519,2.5369,2.6158,2.6504,2.6423,2.6039,2.5909,2.5874,2.4827,2.4579,2.4825,2.4517,2.4363,2.4208,2.3431,2.2833,2.2442,0.0,0.0,0.0,0.0,0.0,0.0,0.0,0.0,0.0,0.0,0.0,0.0,0.0,0.0,0.0,0.0,0.0,0.0,0.0,0.0,0.0,2.4505,2.4857,2.3818,2.1061,2.1393,2.0943,1.9566,1.9191,1.9118,1.9401,2.0637,2.1554,2.2197,2.273,2.3081,2.3342,0.0,0.0,0.0,0.0,0.0,0.0,0.0,0.0,0.0,0.0,0.0,0.0,0.0,2.6836,2.7415,2.7637,0.0,0.0,0.0,0.0,0.0,2.4415,2.4069,2.3973,2.3324,2.4438,2.5877,2.6597,2.7928,2.9057,2.9252,2.9623,3.0053,3.0503,3.1484,3.2621,3.3754,3.4199,3.4785,3.5862,3.6172,3.6387,3.668,3.7209,3.7617,3.7731,3.7731,3.7596,3.7324,3.6934,3.6487,3.6018,3.5675,3.5384,3.5179,3.4663,3.4201,3.3791,3.1459,3.012,2.9816,2.8539,2.7574,2.6987,2.7785,2.8118,2.8076,2.7749,2.7666,2.7648,2.6041,2.5862,2.6507,2.5423,2.5398,2.5777,2.4345,2.3792,2.3653,0.0,0.0,0.0,0.0,0.0,0.0,0.0,0.0,0.0,0.0,0.0,0.0,0.0,0.0,0.0,0.0,0.0,0.0,0.0,0.0,2.5467,2.5228,2.5637,2.4584,2.1836,2.243,2.2185,2.0967,2.0358,2.0334,2.0881,2.171,2.2724,2.3809,2.4013,2.4289,2.459,2.4945,2.516,0.0,0.0,0.0,0.0,0.0,0.0,0.0,0.0,0.0,0.0,0.0,0.0,0.0,0.0,0.0,0.0,2.8314,2.7492,2.6314,2.483,2.4708,2.5002,2.5099,2.6066,2.7193,2.784,2.8823,2.9676,2.9975,3.0293,3.0605,3.0976,3.2328,3.391,3.5452,3.5566,3.5723,3.6487,3.6426,3.6621,3.7518,3.7598,3.7869,3.8552,3.8495,3.8162,3.75,3.7266,3.6875,3.6211,3.5818,3.547,3.5179,3.4835,3.4424,3.3926,3.2682,3.1544,3.0547,3.0252,2.9629,2.8758,2.9633,2.9955,2.9819,2.96,2.9444,2.9223,2.7551,2.7486,2.8237,2.6878,2.6741,2.7134,2.5436,2.4832,2.4759,0.0,0.0,0.0,0.0,0.0,0.0,0.0,0.0,0.0,0.0,0.0,0.0,0.0,0.0,0.0,0.0,0.0,0.0,0.0,0.0,2.4746,2.3881,2.545,2.5628,2.4112,2.4538,2.3605,2.1191,2.172,2.2671,2.3979,2.4372,2.5111,2.6126,2.5347,2.5024,2.5043,2.5094,2.5324,0.0,0.0,0.0,0.0,0.0,0.0,0.0,0.0,0.0,0.0,0.0,0.0,0.0,0.0,0.0,2.8314,2.8314,2.8214,2.7876,2.6639,2.7401,2.8259,2.7177,2.6547,2.6852,2.9411,2.9787,2.995,3.1118,3.1391,3.1411,3.145,3.2524,3.3714,3.4648,3.6408,3.7834,3.8338,3.8711,3.8809,3.8534,3.8495,3.8514,3.8592,3.8203,3.7931,3.7873,3.7166,3.6714,3.6638,3.6216,3.5947,3.5913,3.5589,3.5037,3.4277,3.384,3.2856,3.1308,3.0921,3.0677,3.0644,3.1706,3.2003,3.171,3.1618,3.1034,3.0118,3.0288,2.9999,2.9532,3.0085,2.9348,2.7939,2.7165,2.6228,2.5435,0.0,0.0,0.0,0.0,0.0,0.0,0.0,0.0,0.0,0.0,0.0,0.0,0.0,0.0,0.0,0.0,0.0,0.0,0.0,0.0,2.5051,2.4952,2.5597,2.5847,2.5604,2.5666,2.4802,2.2999,2.2591,2.3389,2.5273,2.4672,2.4948,2.5945,2.5356,2.5227,2.5476,2.5476,2.5562,2.5725,0.0,0.0,0.0,0.0,0.0,0.0,0.0,0.0,0.0,0.0,2.7604,2.806,2.806,2.8177,2.8314,2.8314,2.8314,2.8012,2.6614,2.754,2.8619,2.7515,2.8429,0.0,3.0471,3.0703,3.0918,3.1391,3.2133,3.2777,3.3047,3.3945,3.4922,3.5798,3.7033,3.8068,3.8534,3.8729,3.8768,3.8612,3.8592,3.8592,3.8592,3.8436,3.8105,3.7578,3.7246,3.6853,3.6289,3.6096,3.5896,3.5692,3.5316,3.4747,3.3992,3.3621,3.2966,3.2087,3.1941,3.1854,3.1808,3.2206,3.2326,3.2214,3.2188,3.1678,3.0881,3.1021,3.0764,3.034,3.0872,3.0262,2.8981,2.8107,2.7612,2.7306,0.0,0.0,0.0,0.0,0.0,0.0,0.0,0.0,0.0,0.0,0.0,0.0,0.0,0.0,0.0,0.0,0.0,0.0,2.4652,2.4809,2.507,2.5496,2.5776,2.6062,2.6399,2.6659,2.6152,2.4867,2.4253,2.462,2.5905,2.529,2.5402,2.6089,2.5547,2.5527,2.5913,2.5764,2.5706,2.5745,2.6211,2.6211,0.0,0.0,0.0,0.0,0.0,0.0,0.0,0.0,2.7976,2.8314,2.8314,2.8314,2.8314,2.8314,2.8314,2.8081,2.7074,2.7728,2.8686,2.8543,0.0,3.1743,3.2389,3.2889,3.3172,3.31,3.3514,3.4269,3.5495,3.5695,3.6037,3.7123,3.7753,3.8223,3.8553,3.871,3.8749,3.8612,3.8592,3.8534,3.8379,3.8514,3.8299,3.7559,3.7363,3.7051,3.6428,3.6155,3.5879,3.5658,3.5384,3.4891,3.4148,3.3847,3.3436,3.2843,3.2842,3.2674,3.2406,3.2629,3.2549,3.2246,3.2469,3.208,3.1326,3.1552,3.1486,3.1246,3.1267,3.0795,2.9927,2.8988,2.8767,2.8824,0.0,0.0,0.0,0.0,0.0,0.0,0.0,0.0,0.0,0.0,0.0,0.0,0.0,0.0,0.0,0.0,0.0,0.0,2.3781,2.418,2.4609,2.5094,2.5923,2.6399,2.6399,2.765,2.772,2.6519,2.6896,2.668,2.5928,2.6668,2.6999,2.696,2.6089,2.5952,2.636,2.5893,2.5706,2.5745,2.6211,2.6399,0.0,0.0,0.0,0.0,0.0,0.0,0.0,0.0,2.7962,2.8314,2.8314,2.8314,2.8314,2.8314,2.8314,2.8314,2.8327,2.8327,2.878,3.0656,3.1153,3.2041,3.5394,3.6528,3.6829,3.6593,3.5735,3.5903,3.8671,3.7616,3.6812,3.8317,3.858,3.8573,3.8573,3.8926,3.9043,3.8631,3.8573,3.8416,3.7951,3.8319,3.8379,3.7931,3.7521,3.7285,3.7285,3.6467,3.5999,3.5999,3.5999,3.5641,3.4921,3.4827,3.439,3.3605,3.353,3.3126,3.2438,3.3086,3.2867,3.1942,3.2629,3.2302,3.1361,3.2108,3.2406,3.232,3.1586,3.1088,3.0696,2.9889,2.9653,2.9694,0.0,0.0,0.0,0.0,0.0,0.0,0.0,0.0,0.0,0.0,0.0,0.0,0.0,0.0,0.0,0.0,0.0,0.0,2.4188,2.4062,2.4308,2.5074,2.5336,2.5618,2.5893,2.6882,2.7653,2.8193,2.6898,2.6404,2.6669,2.6898,2.6674,2.6089,2.6159,2.6081,2.5893,2.5764,2.5706,2.5764,2.653,2.6641,0.0,0.0,0.0,0.0,0.0,0.0,0.0,0.0,0.0,0.0,2.8314,2.8314,2.8314,2.8314,2.8314,2.8508,2.946,2.9949,3.0658,3.2528,3.43,3.6152,3.8339,3.747,3.6751,3.8768,3.8861,3.8557,3.845,3.822,3.7684,3.6546,3.7102,3.7693,3.7693,3.8047,3.8144,3.7734,3.7693,3.7734,3.7892,3.7773,3.7617,3.75,3.7107,3.6719,3.6389,3.6135,3.5999,3.5999,3.576,3.5538,3.5316,3.4744,3.4306,3.4016,3.3657,3.3348,3.3102,3.3307,3.3228,3.2959,3.3165,3.2949,3.2438,3.2667,3.2469,3.2054,3.2082,3.1369,3.0369,3.0439,3.0102,2.9675,0.0,0.0,0.0,0.0,0.0,0.0,0.0,0.0,0.0,0.0,0.0,0.0,0.0,0.0,0.0,0.0,0.0,0.0,0.0,2.3926,2.4113,2.4797,2.5004,2.5375,2.5964,2.6647,2.7292,2.791,2.7033,2.6669,2.6777,2.6921,2.6713,2.6225,2.6511,2.6472,2.6206,2.6062,2.5984,2.6042,2.6726,2.6973,2.6966,0.0,0.0,0.0,0.0,0.0,0.0,0.0,0.0,0.0,2.8314,2.8314,2.8314,2.8314,2.8681,2.9317,3.0328,3.1223,3.242,3.4774,3.6627,3.8485,4.0693,3.9888,3.9493,4.2404,4.2063,4.1151,4.0976,4.0241,3.9125,3.7462,3.7245,3.7305,3.7305,3.7519,3.756,3.7324,3.7305,3.7324,3.7422,3.7344,3.7226,3.707,3.6834,3.658,3.6289,3.6096,3.5999,3.5999,3.5656,3.5372,3.522,3.4559,3.4118,3.3912,3.3602,3.3449,3.3422,3.3578,3.3435,3.3007,3.3133,3.3086,3.2896,3.2896,3.2661,3.2275,3.2042,3.1526,3.0851,3.0636,3.0458,3.0327,0.0,0.0,0.0,0.0,0.0,0.0,0.0,0.0,0.0,0.0,0.0,0.0,0.0,0.0,0.0,0.0,0.0,0.0,0.0,0.0,2.3984,2.4371,2.4934,2.561,2.6438,2.6777,2.6777,2.6399,2.7194,2.7154,2.636,2.6784,2.6999,2.6999,2.6999,2.6999,2.6979,2.6523,2.636,2.6438,2.6836,2.7285,2.7715,2.7715,0.0,0.0,0.0,0.0,0.0,0.0,0.0,0.0,2.8314,2.8314,2.8308,2.8441,2.9342,3.0464,3.1269,3.2441,3.4181,3.7207,3.85,3.9781,4.2599,4.3257,4.3988,4.6517,4.5068,4.3705,4.4829,4.2924,4.0886,3.9819,3.8331,3.7285,3.7246,3.7246,3.7226,3.7187,3.7187,3.7051,3.6716,3.6973,3.7049,3.6716,3.6658,3.6656,3.6656,3.623,3.5999,3.5999,3.5605,3.5223,3.4852,3.4348,3.3918,3.3543,3.3458,3.3402,3.3422,3.3844,3.3473,3.2517,3.28,3.2943,3.2943,3.2943,3.2927,3.2813,3.1781,3.1603,3.1779,3.0727,3.0814,3.138,0.0,0.0,0.0,0.0,0.0,0.0,0.0,0.0,0.0,0.0,0.0,0.0,0.0,0.0,0.0,0.0,0.0,0.0,0.0,0.0,2.3984,2.4371,2.552,2.636,2.6862,2.6641,2.6497,2.6399,2.6595,2.6399,2.5874,2.6647,2.6999,2.6999,2.6999,2.6999,2.696,2.6186,2.6062,2.6438,2.6836,2.7285,2.7715,2.7715,2.7956,0.0,0.0,0.0,0.0,0.0,0.0,0.0,2.8314,2.8314,2.8508,2.9565,3.0068,3.0905,3.3599,3.4852,3.6121,3.9143,4.1621,4.3572,4.4711,4.5605,4.6261,4.6436,4.6663,4.6214,4.4169,4.3308,4.1782,3.8404,3.7549,3.7187,3.6873,3.6834,3.6697,3.6311,3.6272,3.6387,3.6658,3.6445,3.6406,3.6695,3.6348,3.6135,3.6135,3.6057,3.5999,3.5999,3.5605,3.5357,3.5273,3.4495,3.4046,3.3966,3.3585,3.3402,3.3386,3.35,3.3421,3.3181,3.326,3.3292,3.3292,3.3292,3.3133,3.2848,3.2375,3.2027,3.1803,3.1609,3.1619,3.1712,0.0,0.0,0.0,0.0,0.0,0.0,0.0,0.0,0.0,0.0,0.0,0.0,0.0,0.0,0.0,0.0,0.0,0.0,0.0,0.0,2.4093,2.4719,2.5813,2.6387,2.6381,2.6387,2.6289,2.6062,2.6062,2.5932,0.0,2.6596,2.6999,2.7018,2.7226,2.7207,2.6979,2.6518,2.6459,2.6719,2.7148,2.7474,2.7715,2.7715,2.7689,0.0,0.0,0.0,0.0,0.0,0.0,0.0,0.0,0.0,2.8561,2.9911,3.0969,3.225,3.487,3.6648,3.8472,4.1368,4.3575,4.5171,4.5748,4.6512,4.7099,4.7064,4.7732,4.7404,4.43,4.373,4.2329,3.7997,3.7305,3.707,3.6445,3.6348,3.6269,3.6038,3.5999,3.6096,3.6348,3.6135,3.6096,3.6365,3.6135,3.5999,3.5999,3.5999,3.592,3.5723,3.5293,3.4961,3.4782,3.4101,3.375,3.375,3.3519,3.3402,3.3402,3.3402,3.3519,3.373,3.35,3.3402,3.3386,3.3228,3.3149,3.3086,3.2597,3.2365,3.2305,3.2187,3.2111,3.2071,0.0,0.0,0.0,0.0,0.0,0.0,0.0,0.0,0.0,0.0,0.0,0.0,0.0,0.0,0.0,0.0,0.0,0.0,0.0,0.0,0.0,2.516,2.5969,2.625,2.592,2.625,2.6211,2.5835,2.5745,0.0,0.0,0.0,0.0,2.7233,2.7474,2.7454,2.7214,2.6979,2.694,2.7038,2.7415,2.7585,2.7565,2.7506,0.0,0.0,0.0,0.0,0.0,0.0,0.0,0.0,0.0,0.0,2.8913,3.0242,3.1967,3.3813,3.5698,3.8042,4.0601,4.3162,4.4644,4.5648,4.6286,4.6863,4.7375,4.7942,4.8451,4.7847,4.4693,4.4099,4.2639,3.8136,3.7344,3.7031,3.6233,3.6057,3.5999,3.5999,3.5999,3.5999,3.5999,3.5999,3.5999,3.5999,3.5999,3.5999,3.5999,3.594,3.5725,3.541,3.4883,3.445,3.4098,3.3617,3.3402,3.3402,3.3402,3.3402,3.3402,3.3402,3.3613,3.3961,3.3574,3.3402,3.3371,3.3086,3.3149,3.3339,3.274,3.2692,3.2943,3.2613,3.2517,3.2517,0.0,0.0,0.0,0.0,0.0,0.0,0.0,0.0,0.0,0.0,0.0,0.0,0.0,0.0,0.0,0.0,0.0,0.0,0.0,0.0,0.0,2.5581,2.6133,2.6523,2.6823,2.6543,2.638,2.6321,0.0,0.0,0.0,0.0,0.0,2.8099,0.0,2.748,2.8047,2.6946,2.668,2.7018,2.7077,2.7097,2.707,0.0,0.0,0.0,0.0,0.0,0.0,0.0,2.8314,0.0,0.0,0.0,3.0294,3.1635,3.3076,3.4649,3.6529,3.9005,4.1528,4.3363,4.4644,4.5748,4.6747,4.7415,4.7958,4.8551,4.8727,4.7847,4.4693,4.4099,4.2731,3.8497,3.7539,3.7129,3.6677,3.625,3.5999,3.5999,3.5999,3.5999,3.5999,3.5999,3.5999,3.5999,3.5999,3.5999,3.5999,3.5664,3.5449,3.5391,3.4606,3.4137,3.4114,3.3617,3.3402,3.3402,3.3402,3.3402,3.3402,3.3402,3.3441,3.348,3.3422,3.3402,3.3402,3.3339,3.3355,3.3355,3.2975,3.3038,3.3292,3.2962,3.3007,3.3181,0.0,0.0,0.0,0.0,0.0,0.0,0.0,0.0,0.0,0.0,0.0,0.0,0.0,0.0,0.0,0.0,0.0,0.0,0.0,0.0,0.0,2.5332,2.5559,2.5872,2.6264,2.5891,2.5774,2.6003,0.0,0.0,0.0,2.6699,2.7142,0.0,0.0,0.0,0.0,2.8181,2.7738,2.6743,2.7646,2.7315,0.0,0.0,0.0,0.0,0.0,0.0,0.0,0.0,3.0096,3.0151,3.0443,0.0,0.0,0.0,3.4121,3.5471,3.8277,4.04,4.2183,4.3826,4.4869,4.5698,4.6486,4.729,4.7983,4.8234,4.8802,4.8191,4.4738,4.4099,4.2731,3.8577,3.756,3.7166,3.6773,3.6289,3.5999,3.5999,3.5999,3.5999,3.5999,3.5999,3.5999,3.5999,3.5999,3.5999,3.5999,3.5625,3.5273,3.5019,3.4411,3.3961,3.3711,3.35,3.3402,3.3402,3.3402,3.3402,3.3402,3.3402,3.3402,3.3402,3.3402,3.3402,3.3402,3.3402,3.3402,3.3386,3.3228,3.326,3.3371,3.3228,3.3149,3.3125,0.0,0.0,0.0,0.0,0.0,0.0,0.0,0.0,0.0,0.0,0.0,0.0,0.0,0.0,0.0,0.0,0.0,0.0,0.0,0.0,0.0,2.473,2.4965,2.5188,2.5367,2.5461,2.5666,0.0,0.0,0.0,2.743,2.6831,2.7083,0.0,2.8365,2.8129,0.0,0.0,0.0,0.0,0.0,2.7726,0.0,0.0,0.0,0.0,0.0,0.0,0.0,3.1168,3.1493,3.1582,3.2124,3.2545,0.0,0.0,0.0,3.6147,3.9064,4.0589,4.1783,4.3539,4.4518,4.5321,4.6286,4.7214,4.7967,4.8284,4.9012,4.8616,4.5372,4.4402,4.2731,3.8577,3.7638,3.7266,3.6756,3.6387,3.6135,3.6018,3.5999,3.5999,3.5999,3.5999,3.5999,3.5999,3.5999,3.5999,3.5999,3.5508,3.5059,3.4707,3.4196,3.375,3.3386,3.3402,3.3402,3.3402,3.3402,3.3344,3.3246,3.3246,3.3246,3.3246,3.3363,3.3402,3.3402,3.3402,3.3402,3.3402,3.3402,3.3402,3.3386,3.3292,3.3165,3.3049,0.0,0.0,0.0,0.0,0.0,0.0,0.0,0.0,0.0,0.0,0.0,0.0,0.0,0.0,0.0,2.3209,2.3101,2.3101,2.3131,2.3544,2.382,2.3859,2.4652,0.0,2.4481,2.5872,2.6699,0.0,0.0,0.0,2.8682,2.7499,2.7643,2.8814,2.8067,2.8146,2.8798,0.0,0.0,0.0,0.0,0.0,0.0,0.0,0.0,0.0,0.0,0.0,3.0079,3.1144,3.1493,3.1582,3.2124,3.3217,3.4312,0.0,0.0,0.0,3.7789,3.8605,3.961,4.1772,4.3101,4.4443,4.6572,4.749,4.8209,4.9289,4.9565,4.899,4.7022,4.5254,4.2731,3.8577,3.7892,3.7598,3.6795,3.6695,3.6502,3.6057,3.5999,3.5999,3.5999,3.5999,3.5999,3.5999,3.5999,3.5999,3.5999,3.5215,3.4726,3.4707,3.3871,3.3406,3.3402,3.3402,3.3402,3.3402,3.3402,3.3187,3.2832,3.2832,3.2832,3.2851,3.3226,3.3402,3.3402,3.3402,3.3402,3.3402,3.3402,3.3402,3.3355,3.3038,3.3118,3.3295,0.0,0.0,0.0,0.0,0.0,0.0,0.0,0.0,0.0,0.0,0.0,0.0,0.0,2.459,2.4168,2.3602,2.3268,2.3101,2.3101,2.3259,2.3591,2.4149,2.4492,2.4832,2.523,2.6285,0.0,0.0,0.0,2.8016,2.8773,2.8083,2.8027,2.8503,2.8433,2.8725,2.9344,3.0037,0.0,0.0,0.0,0.0,0.0,0.0,0.0,0.0,3.0162,3.1198,3.2077,3.2787,3.3498,3.4161,0.0,0.0,0.0,3.5679,3.6274,3.7085,3.7789,3.8693,3.976,4.1254,4.2459,4.3578,4.4729,4.5959,4.7089,4.7842,4.8586,4.8625,4.7066,4.5321,4.3222,4.0519,3.8653,3.7422,3.7127,3.6601,3.6191,3.6018,3.5999,3.5999,3.5999,3.5999,3.5999,3.5999,3.5999,3.5999,3.5999,3.5469,3.5,3.4707,3.4157,3.3711,3.3402,3.3402,3.3402,3.3402,3.3402,3.3324,3.3187,3.3187,3.3187,3.3187,3.3344,3.3402,3.3402,3.3402,3.3402,3.3402,3.3402,3.326,3.3125,3.3507,3.3479,3.3299,0.0,0.0,0.0,0.0,0.0,0.0,0.0,0.0,0.0,0.0,0.0,0.0,0.0,0.0,2.4227,2.3839,2.3641,2.3541,2.3541,2.3541,2.3794,2.4371,2.4539,2.5043,2.5872,2.7117,0.0,0.0,0.0,0.0,0.0,2.8712,2.8445,2.8886,2.8259,2.849,0.0,0.0,0.0,2.9539,0.0,0.0,2.9102,0.0,0.0,3.0473,3.1763,3.2612,3.319,3.3732,3.4237,3.4853,0.0,0.0,0.0,0.0,3.6658,3.706,3.76,3.8417,3.9496,4.0951,4.1868,4.276,4.4066,4.5221,4.6301,4.7174,4.8134,4.8577,4.7881,4.6254,4.4402,4.2535,4.0212,3.855,3.8287,3.7196,3.6389,3.625,3.6096,3.6057,3.623,3.5976,3.5784,3.5784,3.5784,3.5784,3.5784,3.5547,3.5117,3.4528,3.4098,3.3711,3.3402,3.3402,3.3344,3.3187,3.3187,3.3144,3.3008,3.3008,3.307,3.3187,3.3187,3.3285,3.3402,3.3402,3.3402,3.3402,3.3246,3.3159,3.3125,3.3542,3.3592,3.3545,0.0,0.0,0.0,0.0,0.0,0.0,0.0,0.0,0.0,0.0,0.0,0.0,0.0,0.0,0.0,2.3971,2.4313,2.4514,2.446,2.446,2.4449,2.4422,2.4891,2.5521,2.6315,2.8371,0.0,0.0,0.0,0.0,0.0,0.0,2.8972,3.0008,2.7638,2.746,2.91,0.0,3.1155,2.9811,3.1503,3.1799,3.1306,3.1921,3.2516,3.309,3.3632,3.3506,3.319,3.3707,3.3556,3.3467,0.0,0.0,0.0,0.0,0.0,0.0,0.0,0.0,0.0,4.0662,4.1214,4.198,4.4733,4.5386,4.5864,4.7481,4.8275,4.8878,4.9464,4.8085,4.6274,4.4539,4.2587,4.1011,4.0232,3.8491,3.7166,3.6756,3.6309,3.6211,3.6675,3.5935,3.541,3.541,3.541,3.541,3.541,3.5391,3.4997,3.4137,3.3652,3.3402,3.3402,3.3402,3.3187,3.2812,3.2793,3.2593,3.2237,3.2218,3.2452,3.2812,3.2812,3.3047,3.3402,3.3402,3.3386,3.3344,3.2969,3.3051,3.3339,3.3061,3.3443,3.404,0.0,0.0,0.0,0.0,0.0,0.0,0.0,0.0,0.0,0.0,0.0,0.0,0.0,0.0,0.0,2.75,2.7598,2.7129,2.5865,2.5777,2.5501,2.4922,2.5872,2.6667,2.7236,2.9511,0.0,0.0,0.0,0.0,0.0,0.0,0.0,0.0,3.0584,3.0452,3.0211,3.0189,3.1377,3.319,3.2488,3.208,3.1861,3.1278,3.115,3.1301,3.1451,3.22,3.3115,3.3266,3.3997,3.4979,0.0,0.0,0.0,0.0,0.0,0.0,3.6594,0.0,0.0,0.0,0.0,0.0,4.163,4.2523,4.3567,4.5181,4.5999,4.6944,4.8718,4.8595,4.8212,4.8093,4.4024,4.0794,4.0559,3.8672,3.7246,3.7166,3.6756,3.656,3.6695,3.6172,3.5823,3.5823,3.5823,3.5823,3.5823,3.5234,3.4785,3.4531,3.3809,3.3402,3.3402,3.3109,3.3066,3.3226,3.2652,3.2613,3.3066,3.2769,3.2851,3.3226,3.3226,3.3304,3.3402,3.3402,3.3226,3.2988,3.3168,3.3147,3.3131,3.3911,3.44,3.4652,0.0,0.0,0.0,0.0,0.0,0.0,0.0,0.0,0.0,0.0,0.0,0.0,0.0,0.0,0.0,2.958,2.9681,2.9236,2.8008,2.7941,2.7629,2.6914,2.7564,2.8415,2.9443,3.1077,3.2053,0.0,0.0,0.0,0.0,0.0,0.0,0.0,0.0,0.0,0.0,3.0549,3.1461,3.3472,3.2828,3.2717,3.2817,3.1964,3.1928,3.2294,3.2294,3.3083,3.3997,3.3341,3.4022,3.5193,3.5314,0.0,0.0,0.0,0.0,0.0,0.0,0.0,0.0,3.8843,0.0,0.0,4.0991,4.1544,4.2283,4.3926,4.4729,4.5723,4.7732,4.8083,4.8335,4.9129,4.5691,4.2681,4.1985,4.0045,3.842,3.7647,3.7205,3.6951,3.6951,3.6367,3.592,3.5745,3.5762,3.5762,3.5762,3.5078,3.4609,3.445,3.3754,3.3402,3.3402,3.3184,3.307,3.3129,3.2496,3.2535,3.3129,3.2734,3.2851,3.3402,3.3402,3.3402,3.3402,3.3402,3.3265,3.3047,3.293,3.3097,3.3479,3.4193,3.4725,3.5067,0.0,0.0,0.0,0.0,0.0,0.0,0.0,0.0,0.0,0.0,0.0,0.0,0.0,0.0,0.0,0.0,3.1325,3.1182,3.0461,3.0404,3.0097,2.9441,2.9589,3.0411,3.197,3.2714,3.336,0.0,0.0,0.0,0.0,0.0,0.0,0.0,0.0,0.0,0.0,3.1915,3.1725,3.2009,3.2711,3.3355,3.3822,3.3154,3.3556,3.4427,3.4427,3.4767,3.5041,3.3773,3.3957,3.465,3.4418,3.5608,0.0,0.0,3.7198,0.0,0.0,0.0,0.0,0.0,4.0023,0.0,4.1596,4.1555,4.1654,4.3198,4.3901,4.4765,4.6496,4.6823,4.7189,4.825,4.7181,4.5653,4.4084,4.2256,4.0371,3.8505,3.7936,3.759,3.7322,3.6562,3.5901,3.5488,3.543,3.5391,3.5391,3.4902,3.4469,3.4114,3.3652,3.3402,3.3402,3.3304,3.3129,3.2851,3.2359,3.2378,3.2851,3.2437,3.2691,3.3402,3.3402,3.3402,3.3402,3.3363,3.3344,3.3265,3.2652,3.3098,3.4114,3.4153,3.4684,3.5279,0.0,0.0,0.0,0.0,0.0,0.0,0.0,0.0,0.0,0.0,0.0,0.0,0.0,0.0,0.0,0.0,3.4855,3.3801,3.185,3.1746,3.1031,2.9464,3.08,3.1519,3.1378,3.332,3.4214,0.0,0.0,0.0,0.0,0.0,0.0,0.0,0.0,0.0,0.0,3.3742,3.3284,3.2166,3.231,3.2993,3.3746,3.23,3.2139,3.2706,3.2706,3.3068,3.3723,3.469,3.4882,3.4998,3.668,3.6915,3.672,3.7475,0.0,0.0,0.0,0.0,0.0,3.9032,3.9459,0.0,4.0112,4.0425,4.0876,4.1628,4.1866,4.2582,4.469,4.5091,4.5332,4.6039,4.6928,4.7202,4.6288,4.459,4.2735,4.0847,4.0279,3.9327,3.7483,3.6853,3.6367,3.592,3.5586,3.5391,3.5391,3.4645,3.4176,3.4114,3.3652,3.3402,3.3402,3.2769,3.273,3.3265,3.2153,3.2211,3.3265,3.2871,3.2949,3.3402,3.3402,3.3402,3.3383,3.3066,3.291,3.2969,3.3528,3.388,3.4153,3.4453,3.4922,3.524,0.0,0.0,0.0,0.0,0.0,0.0,0.0,0.0,0.0,0.0,0.0,0.0,0.0,0.0,0.0,0.0,0.0,0.0,3.3883,3.38,3.316,3.172,3.2764,3.325,3.2959,3.4347,3.4979,3.4703,0.0,0.0,0.0,0.0,0.0,0.0,0.0,0.0,0.0,3.3545,3.3735,3.3373,3.253,3.253,3.2932,3.1823,3.1924,3.2641,3.2641,3.2828,3.3388,3.5263,3.555,3.5399,3.7047,3.7606,3.7688,3.7939,3.8216,3.8454,3.8454,3.8642,3.8994,3.9559,3.9697,0.0,0.0,4.0099,4.0337,4.1138,4.1102,4.1503,4.3438,4.3589,4.3854,4.5286,4.6175,4.6747,4.6934,4.6076,4.4761,4.2918,4.228,4.1121,3.8911,3.8239,3.7322,3.5793,3.5508,3.5212,3.4762,3.4349,3.3981,3.375,3.3519,3.3402,3.3402,3.3008,3.3008,3.3402,3.2543,3.2582,3.3383,3.2988,3.3027,3.3402,3.3402,3.3402,3.3383,3.3168,3.309,3.3109,3.3375,3.3844,3.443,3.4645,3.5,3.5276,0.0,0.0,0.0,0.0,0.0,0.0,0.0,0.0,0.0,0.0,0.0,0.0,0.0,0.0,0.0,0.0,0.0,0.0,3.5695,3.5469,3.4917,3.3947,3.4413,3.4603,3.4388,3.5118,3.5458,3.5344,0.0,0.0,0.0,0.0,0.0,0.0,0.0,0.0,0.0,3.2909,3.3561,3.4418,3.2852,3.2455,3.2746,3.2014,3.2351,3.3241,3.314,3.3316,3.3894,3.5974,3.6449,3.6377,3.7686,3.8465,3.8869,3.8693,3.9145,3.9647,3.9409,3.976,4.0237,4.0437,4.035,4.0212,0.0,0.0,0.0,4.0826,4.0663,4.0789,4.2247,4.216,4.2462,4.4256,4.4895,4.5447,4.621,4.6438,4.5936,4.4362,4.3877,4.2688,4.0171,3.9032,3.761,3.5566,3.5234,3.4841,3.4153,3.4,3.3789,3.3422,3.3402,3.3402,3.3402,3.3324,3.3324,3.3402,3.2988,3.3008,3.3402,3.3051,3.309,3.3402,3.3402,3.3402,3.3402,3.3402,3.3402,3.3383,3.3223,3.3789,3.4707,3.4707,3.5,3.5312,3.6393,3.6393,0.0,0.0,0.0,0.0,0.0,0.0,0.0,0.0,0.0,0.0,0.0,0.0,0.0,0.0,0.0,3.5795,3.627,3.5355,3.4527,3.3922,3.4413,3.4237,3.3316,3.4753,3.5269,3.4803,3.5792,0.0,0.0,0.0,0.0,0.0,3.2767,3.3385,3.5105,3.3121,3.3002,3.3984,3.2703,3.3373,3.4968,3.347,3.328,3.3757,3.3266,3.4054,3.5585,3.7395,3.8216,3.8882,4.1036,4.0424,3.917,4.0538,4.0337,3.9898,4.0775,4.1455,4.1683,4.0752,4.1217,4.1532,4.0112,0.0,4.0312,3.9948,0.0,3.9998,4.0663,0.0,0.0,4.104,4.271,4.3865,4.3528,4.4734,4.5327,4.4468,4.4732,4.348,3.9664,3.7206,3.5706,3.5407,3.4684,3.4212,3.4114,3.3711,3.3461,3.3402,3.3402,3.3402,3.3402,3.3047,3.3047,3.3402,3.2988,3.3008,3.3402,3.3363,3.3363,3.3402,3.3402,3.3402,3.3402,3.3402,3.3402,3.348,3.4199,3.457,3.4707,3.4707,3.5,3.5273,0.0,0.0,0.0,0.0,0.0,0.0,0.0,0.0,0.0,3.824,0.0,0.0,0.0,0.0,0.0,0.0,3.7074,3.6597,3.6847,3.6118,0.0,3.4853,3.5378,3.5164,3.4048,3.4993,3.5382,3.5168,3.5631,3.5757,0.0,0.0,0.0,3.4813,3.3602,3.4193,3.5971,3.458,3.4527,3.5263,3.4448,3.4655,3.5282,3.3309,3.2918,3.3503,3.3898,3.4711,3.59,3.7873,3.8954,3.9764,4.173,4.142,4.0519,4.1594,4.1332,4.0738,4.1188,4.1478,4.1567,4.1076,4.109,4.1041,4.0312,4.0099,4.0074,4.0149,0.0,0.0,0.0,0.0,0.0,0.0,4.1729,4.2395,4.2512,4.3416,4.4421,4.5374,4.4825,4.3342,4.0632,3.822,3.651,3.5683,3.4664,3.3883,3.3375,3.3383,3.3402,3.3402,3.3168,3.3066,3.3066,3.2652,3.2652,3.3066,3.2871,3.3008,3.3402,3.3402,3.3402,3.3402,3.3402,3.3402,3.3402,3.3402,3.3402,3.3461,3.4101,3.4473,3.4726,3.5016,3.5234,3.5351,0.0,0.0,0.0,0.0,0.0,0.0,0.0,0.0,3.9157,3.8919,3.9371,3.9484,3.8944,3.8894,3.8718,0.0,3.76,3.7248,3.7399,3.6795,3.6118,3.5533,3.5919,3.5716,3.4728,3.5244,3.5508,3.5508,3.567,3.5645,3.5494,0.0,0.0,0.0,3.526,3.5871,3.727,3.6142,3.5907,3.6258,3.54,3.4968,3.4667,3.3233,3.3121,3.3892,3.4664,3.5828,3.7297,3.9048,4.0229,4.1253,4.2705,4.2707,4.2255,4.2956,4.2514,4.1851,4.2017,4.2027,4.1866,4.1414,4.1127,4.0852,4.0387,4.0325,4.0413,4.0487,4.0676,0.0,0.0,0.0,4.0576,4.1188,0.0,4.1403,4.1708,4.2071,4.3025,4.4945,4.4091,4.2715,4.1116,3.9398,3.7662,3.5921,3.494,3.3922,3.2863,3.3086,3.3285,3.3402,3.3125,3.291,3.2793,3.2613,3.2613,3.2793,3.291,3.3125,3.3402,3.3402,3.3402,3.3402,3.3402,3.3402,3.3402,3.3402,3.3402,3.3441,3.3922,3.4352,3.4746,3.5078,3.5293,3.5391,0.0,3.7162,0.0,0.0,3.643,3.6607,3.7185,3.7713,3.8266,3.8818,3.9371,3.9484,3.8944,3.8894,3.8894,3.8869,3.7838,3.7424,3.7927,3.6984,3.6118,3.5533,3.5508,3.5269,3.4703,3.5244,3.5508,3.5508,3.6093,3.6068,3.5543,3.6683,3.6953,3.6528,3.7719,3.8789,3.9558,3.7443,3.6506,3.624,3.4613,3.3646,3.3241,3.3671,3.4527,3.5516,3.5558,3.7734,4.0745,4.1451,4.2743,4.4177,4.4902,4.4692,4.4322,4.4847,4.4123,4.3283,4.3861,4.3857,4.3324,4.1704,4.1731,4.1721,4.0087,4.0979,4.1808,4.0713,4.2194,4.3352,4.2324,4.2123,0.0,0.0,0.0,0.0,0.0,4.0563,4.1028,4.2199,4.2229,4.1678,4.0455,3.9909,3.8576,3.5992,3.5407,3.4471,3.2886,3.2812,3.3008,3.3402,3.3402,3.3187,3.2793,3.3168,3.3168,3.2793,3.3187,3.3402,3.3402,3.3402,3.3402,3.3402,3.3402,3.3402,3.3402,3.3402,3.3402,3.3441,3.3922,3.4352,3.4707,3.4726,3.5,3.5391,0.0,0.0,0.0,0.0,3.701,3.7843,3.8779,3.9763,4.0294,3.9989,4.0124,4.03,4.0462,4.0487,4.0337,3.9998,3.927,3.9132,3.9815,3.8353,3.7595,3.7875,3.7401,3.6925,3.6438,3.6209,3.6665,3.7831,3.7269,3.7498,3.8483,3.8439,3.8982,3.9992,3.9516,3.9893,4.0811,4.0078,3.8863,3.7308,3.6499,3.6084,3.5942,3.5292,3.5272,3.5848,3.7705,3.9424,4.0995,4.2332,4.3425,4.4394,4.5555,4.543,4.4967,4.5633,4.4862,4.3914,4.448,4.4205,4.3664,4.3098,4.2573,4.1947,4.0989,4.1518,4.1998,4.1177,4.2521,4.3589,4.2864,4.2738,0.0,0.0,0.0,0.0,0.0,4.0186,3.9968,3.9947,4.1883,4.2634,4.1117,4.089,3.9891,3.7614,3.5728,3.4295,3.3428,3.3027,3.2851,3.3008,3.3008,3.293,3.2793,3.2672,3.2672,3.2793,3.293,3.3129,3.3402,3.3402,3.3402,3.3402,3.3402,3.3594,3.3848,3.3848,3.3848,3.3903,3.4333,3.4411,3.4372,3.4941,3.543,3.5784,4.1074,0.0,0.0,3.7959,3.844,3.9245,3.9705,4.0816,4.1341,4.0596,4.0675,4.0926,4.1264,4.1289,4.1088,4.0563,4.0186,4.0032,4.0116,3.899,3.8446,3.8711,3.87,3.8418,3.7885,3.8175,3.8743,3.9635,3.9135,3.9489,4.0619,4.0404,4.0933,4.2069,4.1859,4.1775,4.1785,4.2067,4.0523,3.7881,3.7251,3.7308,3.7731,3.7517,3.7592,3.801,3.9592,4.0961,4.2192,4.3279,4.4227,4.5106,4.6015,4.6281,4.6227,4.6221,4.5527,4.4794,4.4639,4.4078,4.3528,4.3528,4.2989,4.2386,4.1993,4.2674,4.3165,4.2345,4.3661,4.4694,4.374,4.3578,0.0,0.0,0.0,0.0,0.0,3.9923,3.962,3.9438,4.1486,4.2324,4.0838,4.1295,4.0654,3.8214,3.6643,3.5085,3.3489,3.3241,3.3022,3.2824,3.2793,3.2793,3.2793,3.2676,3.2964,3.3647,3.3225,3.3457,3.4227,3.367,3.3402,3.3402,3.3402,3.3558,3.3848,3.402,3.4114,3.4153,3.4531,3.4629,3.4626,3.5192,3.5647,3.5999,4.3347,4.2243,4.0841,4.0264,4.0575,4.0674,4.0024,4.0931,4.1406,4.0671,4.1076,4.1414,4.1414,4.1414,4.1188,4.0588,4.0538,4.01,3.9095,3.8957,3.873,3.825,3.9355,3.9721,3.9147,4.09,4.1573,4.1019,4.1602,4.1913,4.2031,4.251,4.2744,4.2826,4.4559,4.4237,4.2453,4.3258,4.1483,3.802,3.7037,3.7384,3.8636,4.0339,4.1409,4.1931,4.1236,4.2399,4.4307,4.4396,4.5264,4.63,4.633,4.7238,4.8023,4.6593,4.6164,4.5818,4.4492,4.3629,4.309,4.3115,4.3115,4.3076,4.3076,4.4331,4.5171,4.4066,4.5583,4.6597,4.4916,4.4589,4.4077,0.0,0.0,0.0,3.9848,3.9697,3.9898,4.0387,4.0876,4.0782,3.9735,4.1165,4.088,3.7801,3.7999,3.6713,3.317,3.3454,3.3431,3.2781,3.2886,3.2936,3.2936,3.3407,3.4208,3.5342,3.4166,3.443,3.5852,3.432,3.3623,3.3623,3.3595,3.3583,3.3642,3.4061,3.4205,3.4228,3.4622,3.5056,3.543,3.543,3.5684,3.5999,4.4667,4.4499,4.4093,4.3946,4.2969,4.212,4.1844,4.2375,4.2554,4.1858,4.2598,4.3148,4.3148,4.3148,4.2596,4.1227,4.1088,4.1034,4.0927,4.002,4.0091,4.144,4.1281,4.1539,4.2382,4.2428,4.3031,4.4152,4.3484,4.3823,4.5132,4.4771,4.4611,4.4651,4.5617,4.4676,4.2453,4.3258,4.1966,3.9383,3.9124,4.0315,4.2306,4.3096,4.4147,4.5007,4.3821,4.3795,4.4446,4.5463,4.6031,4.639,4.6879,4.7608,4.8023,4.6593,4.6164,4.5888,4.4957,4.4462,4.4303,4.4758,4.4518,4.4177,4.4177,4.4869,4.5271,4.4554,4.5844,4.6597,4.4916,4.4589,4.4077,4.2475,0.0,0.0,3.9798,3.9697,3.9747,3.9898,3.9672,3.9717,4.0215,4.1023,4.0706,3.8697,3.8027,3.6616,3.4153,3.414,3.3645,3.24,3.409,3.5031,3.5031,3.6307,3.7124,3.7412,3.692,3.6887,3.7265,3.6857,3.6682,3.6657,3.6267,3.6258,3.657,3.6034,3.5663,3.5472,3.589,3.5961,3.5842,3.5842,3.592,3.5999,4.6052,4.6172,4.6172,4.6172,4.5392,4.4406,4.3385,4.3483,4.3304,4.2332,4.2939,4.3352,4.3126,4.3528,4.3123,4.1439,4.1812,4.1983,4.162,4.1456,4.1862,4.2995,4.318,4.3482,4.3938,4.4464,4.5058,4.5753,4.5387,4.5723,4.6719,4.6042,4.5574,4.5334,4.6012,4.4864,4.2398,4.2356,4.1981,4.1362,4.1157,4.2227,0.0,4.4529,4.5204,4.5802,4.5343,4.5164,4.5284,4.6061,4.648,4.679,4.7179,4.7533,4.7552,4.6125,4.5683,4.543,4.4635,4.4334,4.4453,4.5271,4.5246,4.5056,4.5282,4.5623,4.5748,4.5407,4.5909,4.5959,4.4529,4.4066,4.3363,4.1719,4.0727,4.0049,3.9747,3.9697,3.9697,3.9697,3.9647,3.9747,4.0111,3.9759,3.9346,3.8919,3.8169,3.6658,3.4275,3.5166,3.4884,3.2996,3.532,3.6671,3.6835,3.7975,3.8783,3.9244,3.8372,3.8342,3.8994,3.8537,3.8312,3.8296,3.7632,3.7497,3.7684,3.6767,3.6299,3.614,3.6391,3.6367,3.62,3.605,3.5999,3.5999,4.7059,4.7298,4.7399,4.7309,4.7322,4.6747,4.4912,4.4645,4.4127,4.2704,4.3039,4.3215,4.2587,4.3495,4.3493,4.1836,4.2866,4.3167,4.2179,4.3164,4.3792,4.3863,4.4943,4.5312,4.48,4.6449,4.6999,4.642,4.6999,4.7249,4.7149,4.657,4.5952,4.5334,4.6012,4.491,4.2482,4.1323,4.1757,4.3181,4.2854,4.3487,4.4636,4.5214,4.5494,4.5633,4.6211,4.636,4.63,4.639,4.6879,4.7429,4.7429,4.7394,4.7043,4.5632,4.5182,4.492,4.4035,4.3915,4.4267,4.5261,4.5547,4.5738,4.6185,4.6286,4.6286,4.6286,4.5924,4.5236,4.4016,4.3176,4.2171,4.0638,3.9998,3.9722,3.9798,3.9798,3.9798,3.9798,4.0211,0.0,3.9747,3.8454,3.7977,3.8843,3.8479,3.7051,3.433,3.6157,3.6278,3.4036,3.6399,3.7953,3.8418,3.9213,4.0131,4.1095,3.9518,3.9493,4.0817,3.9966,3.9582,3.953,3.8834,3.8527,3.846,3.7529,3.7003,3.6731,3.6532,3.6434,3.642,3.6176,3.6077,3.6077,4.645,4.7369,4.7948,4.7399,4.7174,4.7064,4.7008,4.6705,4.591,4.437,4.5081,4.5321,4.4278,4.5376,4.5534,4.3847,4.4952,4.5491,4.485,4.5044,4.538,4.5882,4.6097,4.6397,4.6794,4.7141,4.7249,4.7119,4.7249,4.7029,4.648,4.636,4.5952,4.5334,4.6012,4.5229,4.3311,4.206,4.1986,4.276,4.3236,4.4435,4.5971,4.6091,4.6461,4.698,4.7089,4.6779,4.639,4.6939,4.7578,4.8128,4.8128,4.8075,4.7749,4.6333,4.5841,4.5444,4.4136,4.4493,4.5261,4.5462,4.5824,4.6185,4.6261,4.6286,4.6286,4.6286,4.6225,4.5673,4.4091,4.2233,4.0688,3.9948,3.9747,3.9848,4.0287,4.0362,4.0362,4.0362,4.0437,4.0287,3.9747,3.9848,3.9647,3.8944,3.9208,3.8453,3.6313,3.6168,3.5623,3.436,3.6883,3.8694,3.9595,4.1823,4.328,4.3873,4.244,4.1895,4.2174,4.2497,4.2641,4.2617,4.2483,4.243,4.2347,4.1526,4.0179,3.8455,3.6749,3.6101,3.6123,3.646,3.658,3.658,4.7268,4.7578,4.8117,4.9153,4.8833,4.8616,4.9071,4.8854,4.776,4.5376,4.5282,4.5258,4.4846,4.5935,4.6311,4.5379,4.6524,4.7064,4.6514,4.7095,4.7608,4.7881,4.7569,4.7521,4.7807,4.7489,4.7309,4.7309,4.7309,4.7119,0.0,4.682,4.6461,4.5781,4.5108,4.4672,4.4343,4.3107,4.2918,4.3506,4.4583,4.5515,4.633,4.67,4.7029,4.7309,4.7309,4.7309,4.7399,4.7698,4.8248,4.8734,4.8275,4.788,4.7358,4.6211,4.5585,4.5141,4.4781,4.507,4.5562,4.5849,4.6125,4.6286,4.6286,4.6286,4.6286,4.6286,4.5834,4.4905,4.3277,4.1605,4.0512,4.0538,4.0287,4.0287,4.0826,4.0926,4.08,4.0538,4.075,4.0575,3.9772,4.0186,4.0049,3.8969,3.8856,3.8099,3.643,3.7313,3.7076,3.5337,3.7974,3.984,4.0664,4.243,4.3762,4.4589,4.3919,4.3572,4.3597,4.4201,4.449,4.4482,4.4038,4.3875,4.3721,4.1926,4.0575,3.9474,3.7604,3.6876,3.6884,3.6975,3.701,3.701,4.8566,4.8506,4.9045,5.1247,5.0714,5.0159,5.0699,5.0162,4.8812,4.633,4.5767,4.5642,4.5715,4.6862,4.7472,4.7167,4.8195,4.8671,4.8248,4.9163,4.9636,4.9516,4.8858,4.8468,4.8308,4.7638,4.7249,4.7089,4.7249,4.7149,4.689,4.7029,4.673,4.6019,4.4487,4.4332,4.5174,4.4212,4.4148,4.4748,4.6024,4.66,4.6779,4.7298,4.7608,4.7728,4.7728,4.8158,4.8716,4.8876,4.9265,4.9592,4.8896,4.8091,4.728,4.6584,4.563,4.488,4.5372,4.5587,4.5799,4.6336,4.6386,4.6336,4.6436,4.6386,4.6286,4.6286,4.5508,4.4353,4.2964,4.1882,4.1266,4.1466,4.124,4.119,4.1603,4.1754,4.1578,4.0953,4.1327,4.1065,3.9496,4.0036,3.9935,3.8642,3.8191,3.7605,3.6661,3.7747,3.7772,3.6391,3.8737,4.0513,4.1587,4.2841,4.3945,4.4955,4.4715,4.4589,4.4629,4.5221,4.5512,4.5478,4.4945,4.4785,4.4667,4.1842,4.0731,4.0634,3.8639,3.7863,3.7838,3.7635,3.7565,3.7547,4.989,5.0948,5.2007,5.2857,5.1635,5.0713,5.1248,4.9509,4.8003,4.7722,4.8373,4.8671,4.821,4.9619,5.0405,4.9875,5.0504,5.0892,5.0844,5.095,5.0757,5.0147,4.9535,4.8917,4.8308,4.7638,4.6999,4.639,4.6999,4.6681,4.5484,4.6102,4.6042,4.5382,4.5266,4.5244,4.5273,4.5218,4.5558,4.616,4.6926,4.7578,4.8128,4.8188,4.8577,4.9108,4.9108,4.9494,5.0117,5.0727,5.0978,5.1015,5.0945,4.991,4.8712,4.862,4.7078,4.5437,4.5487,4.5849,4.6361,4.6898,4.6662,4.6436,4.6923,4.6662,4.6286,4.6286,4.5824,4.5196,4.4503,4.389,4.3187,4.2274,4.2487,4.2774,4.2824,4.3263,4.3201,4.2174,4.2512,4.1619,3.8454,3.9584,3.9647,3.7525,3.7764,3.8191,3.8604,3.5788,3.5089,3.7123,3.8209,3.9867,4.218,4.4235,4.5549,4.6135,4.5106,4.4589,4.4629,4.5221,4.5512,4.5522,4.5915,4.638,4.66,4.3483,4.2476,4.2602,3.9598,3.8436,3.8424,3.841,3.8391,3.8414,5.254,5.2725,5.3396,5.5222,5.3878,5.2657,5.3117,5.2397,5.1323,4.9954,4.9494,4.9781,5.1072,5.1447,5.1715,5.1967,5.1869,5.1786,5.1786,5.1427,5.1086,5.0817,5.017,4.9553,4.8917,4.8248,4.7578,4.6909,4.7189,4.704,4.6501,4.636,4.6151,4.5901,4.5938,4.6151,4.6499,4.6541,4.6914,4.7549,4.8218,4.8648,4.8887,4.8887,4.9078,4.9288,4.9288,4.9954,5.0847,5.1116,5.1457,5.1619,5.0614,4.9878,4.9118,4.7728,4.6923,4.6386,4.6075,4.6602,4.7239,4.7124,4.6948,4.6823,4.7048,4.6687,4.6286,4.6286,4.5874,4.5321,4.4704,4.4152,4.3765,4.3664,4.3539,4.3478,4.3478,4.3377,4.2925,4.1781,4.0991,3.9861,3.8165,3.8605,3.8793,3.8266,3.873,3.8982,3.8894,3.7554,3.7081,3.777,3.87,4.0191,4.229,4.4056,4.5567,4.6772,4.6637,4.6235,4.5658,4.6552,4.6778,4.6486,4.7014,4.7214,4.6909,4.4256,4.3304,4.3212,4.0284,3.9161,3.9169,3.9202,3.922,3.9224,5.4647,5.47,5.5341,5.7586,5.6311,5.5036,5.5339,5.4836,5.3996,5.2832,5.1646,5.1497,5.3081,5.2884,5.2884,5.343,5.2695,5.2187,5.2187,5.1576,5.1206,5.1206,5.0566,4.9931,4.9318,4.8648,4.7878,4.6999,4.7209,4.7209,4.6999,4.6939,4.6779,4.66,4.6999,4.7339,4.7608,4.7788,4.8158,4.8648,4.9108,4.9396,4.9565,4.9565,4.9816,5.0145,5.0145,5.0852,5.1804,5.1912,5.2029,5.1944,5.0741,5.0143,4.9486,4.7522,4.6899,4.6823,4.6612,4.7089,4.7641,4.7616,4.7465,4.7375,4.7566,4.7164,4.6712,4.6562,4.6125,4.5598,4.5181,4.478,4.4618,4.483,4.4694,4.4468,4.4317,4.3815,4.3062,4.1943,4.0501,3.9044,3.7651,3.8115,3.8404,3.8165,3.9107,3.9459,3.8919,3.8327,3.8173,3.8565,3.9471,4.1009,4.3218,4.4625,4.5891,4.6961,4.7336,4.7126,4.641,4.7176,4.7164,4.6582,4.6972,4.6997,4.6637,4.4616,4.3749,4.3489,4.1122,4.0079,3.9876,3.9815,3.9795,3.9777,5.5773,5.7184,5.8457,5.9831,5.8727,5.7657,5.7672,5.5809,5.4932,5.6437,5.5529,5.448,5.3876,5.402,5.4197,5.4179,5.2965,5.2187,5.2187,5.1576,5.1206,5.1206,5.0566,4.9931,4.9318,4.8648,4.7638,4.63,4.6969,4.6969,4.633,4.7668,4.7908,4.7369,4.8678,4.8887,4.8338,4.8977,4.9288,4.9288,4.9288,4.9643,5.0207,5.0207,5.0996,5.2157,5.2157,5.2618,5.3252,5.3637,5.2968,5.2012,5.1973,5.1208,5.0044,4.8822,4.7446,4.6411,4.6948,4.7099,4.739,4.8501,4.8325,4.8058,4.8626,4.8309,4.7716,4.7199,4.6662,4.6286,4.6286,4.6261,4.61,4.5587,4.5924,4.6075,4.5547,4.4955,4.4177,4.3101,4.1968,3.9984,3.6747,3.8391,3.8781,3.6594,3.8454,3.9459,3.8919,3.6945,3.701,3.9607,4.0397,4.2292,4.5417,4.6531,4.6914,4.6606,4.6606,4.6606,4.6582,4.6606,4.614,4.5315,4.534,4.5626,4.5999,4.4579,4.3909,4.366,4.2159,4.1175,4.0533,4.0135,3.9998,3.9895,5.8315,5.8501,5.8919,5.9338,5.8986,5.8264,5.718,5.7346,5.7064,5.5597,5.5969,5.5966,5.4888,5.4811,5.47,5.4239,5.3384,5.2677,5.2217,5.1576,5.1206,5.1206,5.0996,5.0578,4.9931,4.971,4.9183,4.8338,4.8558,4.8308,4.7668,4.8558,4.8618,4.8038,4.8929,4.9415,4.965,5.032,5.0601,5.069,5.16,5.181,5.1606,5.2067,5.2516,5.2887,5.2887,5.3306,5.3885,5.3816,5.3689,5.3471,5.2927,5.1045,4.8885,4.7835,4.7486,4.7431,4.7591,4.8218,4.8812,4.8802,4.8667,4.8551,4.8768,4.8058,4.7299,4.7149,4.6672,4.6286,4.6286,4.6286,4.6235,4.606,4.62,4.5959,4.5031,4.4091,4.2961,4.148,3.996,3.8504,3.7086,3.7914,3.8429,3.8115,3.9082,3.9635,3.9459,3.917,3.954,4.0762,4.2488,4.4267,4.6024,4.7506,4.8212,4.8102,4.8478,4.8653,4.8628,4.8252,4.7955,4.7711,4.8085,4.811,4.785,4.6519,4.5485,4.4594,4.2875,4.1637,4.0782,4.0659,4.0603,4.0589,5.9285,5.9308,5.9488,5.9488,5.9488,5.9158,5.8128,5.8632,5.8446,5.6636,5.7045,5.7094,5.603,5.57,5.5192,5.4269,5.3605,5.3007,5.2618,5.1696,5.1427,5.1947,5.1696,5.1265,5.0596,5.0817,5.0529,4.9655,4.9894,4.9535,4.8708,4.9845,4.9894,4.9063,5.0235,5.081,5.0996,5.1666,5.1947,5.2037,5.2857,5.2947,5.2618,5.3037,5.3516,5.3935,5.3935,5.4446,5.5113,5.4841,5.4492,5.3997,5.2924,5.0937,4.8914,4.8317,4.8017,4.7958,4.8184,4.8777,4.928,4.9129,4.9104,4.9104,4.9104,4.8385,4.7666,4.7465,4.6988,4.6537,4.6336,4.6286,4.6361,4.6562,4.6261,4.5748,4.5045,4.3653,4.2222,4.0951,3.9709,3.8555,3.7588,3.8555,3.9057,3.8605,3.9836,4.0539,4.0312,4.0625,4.1227,4.2206,4.4001,4.5673,4.723,4.8291,4.873,4.8628,4.8953,4.8923,4.8611,4.863,4.8439,4.8153,4.8462,4.8412,4.8074,4.7264,4.6389,4.5389,4.4249,4.3231,4.2391,4.2275,4.2224,4.2189,5.8993,5.9608,6.004,6.004,6.004,6.004,6.004,5.9488,5.9069,5.8979,5.8427,5.7769,5.7034,5.6462,5.5611,5.4299,5.3623,5.3258,5.3198,5.2037,5.1917,5.3169,5.2618,5.1977,5.1367,5.1947,5.1666,5.0416,5.1026,5.072,4.9617,5.142,5.1606,5.0476,5.2366,5.2857,5.2306,5.2977,5.3246,5.3228,5.3336,5.3378,5.3336,5.3438,5.4234,5.5341,5.5316,5.5901,5.6654,5.6359,5.5318,5.3852,5.2358,5.1094,5.0101,4.9893,4.8948,4.8083,4.8677,4.8894,4.9028,4.9464,4.959,4.959,4.959,4.9154,4.8576,4.8083,4.745,4.6898,4.6436,4.6361,4.6512,4.6973,4.6225,4.5512,4.5412,4.3542,4.1959,4.1327,4.0826,3.9935,3.8341,4.0073,4.0474,3.8442,4.0678,4.1945,4.1503,4.154,4.2306,4.3865,4.511,4.6718,4.8793,4.8868,4.876,4.8457,4.8407,4.7958,4.7162,4.7933,4.7893,4.7146,4.7081,4.7057,4.7088,4.7025,4.6597,4.5958,4.5942,4.5491,4.4811,4.4501,4.4386,4.4288,5.9255,5.9219,5.9338,5.9338,5.9338,5.9338,5.9338,5.9189,5.874,5.7723,5.7423,5.6915,5.576,5.5521,5.5102,5.4269,5.4059,5.3743,5.3216,5.2887,5.2857,5.3198,5.3037,5.2887,5.2737,5.2887,5.2797,5.2498,5.2648,5.2558,5.23,5.2749,5.2797,5.2516,5.2977,5.3097,5.3007,5.3683,5.3665,5.3348,5.4875,5.5174,5.4832,5.582,5.6376,5.6619,5.6415,5.6492,5.6627,5.6118,5.5686,5.52,5.4148,5.3202,5.2048,4.9743,4.8844,4.8702,4.9254,4.9715,4.9967,4.9665,4.959,4.959,4.959,4.8837,4.8209,4.8526,4.7481,4.6587,4.6848,4.6898,4.6823,4.6537,4.6261,4.5673,4.4392,4.3039,4.1833,4.0814,4.0951,4.0787,3.9985,4.075,4.1277,4.1205,4.1404,4.2019,4.3148,4.4041,4.4694,4.5085,4.6994,4.8265,4.8793,4.9615,4.9968,4.9887,4.9477,4.9066,4.8594,4.8377,4.8401,4.8569,4.7916,4.7751,4.7942,4.7383,4.6568,4.5664,4.5416,4.4913,4.4352,4.429,4.4256,4.4222,5.9247,5.9338,5.9458,5.9159,5.9338,5.9458,5.9159,5.9099,5.883,5.8112,5.8022,5.7633,5.6645,5.6256,5.5807,5.5162,5.4551,5.4042,5.3695,5.3366,5.3456,5.4084,5.3815,5.3665,5.3665,5.3964,5.3964,5.3665,5.3964,5.3785,5.3228,5.3827,5.3785,5.3228,5.3845,5.3935,5.3725,5.4713,5.4892,5.4695,5.6072,5.6389,5.6149,5.6838,5.7304,5.7563,5.7586,5.7681,5.783,5.7627,5.7058,5.6251,5.521,5.4117,5.2832,5.0597,4.9933,5.0024,5.0309,5.0594,5.067,5.0117,4.9791,4.959,4.959,4.9113,4.8686,4.8777,4.8074,4.7456,4.7465,4.7465,4.729,4.6763,4.6035,4.5031,4.3628,4.2272,4.1279,4.0901,4.1366,4.1681,4.1656,4.2345,4.2746,4.2587,4.2961,4.3625,4.4518,4.5849,4.6602,4.6602,4.8024,4.917,4.9949,5.0535,5.082,5.082,5.0535,5.0286,5.0081,4.9531,4.935,4.9437,4.8874,4.8545,4.8424,4.8157,4.7653,4.6942,4.6768,4.6504,4.618,4.6012,4.5944,4.5928,5.9099,5.9548,5.9757,5.9189,5.9578,5.9771,5.9189,5.9099,5.9069,5.8966,5.8936,5.8697,5.8038,5.7453,5.6898,5.6372,5.5299,5.4551,5.4359,5.3815,5.4067,5.5311,5.479,5.4538,5.464,5.5089,5.5059,5.4491,5.497,5.4683,5.3677,5.4713,5.4713,5.3815,5.4892,5.5102,5.4718,5.585,5.6342,5.6402,5.7004,5.7244,5.7274,5.7483,5.7862,5.8366,5.8707,5.904,5.9306,5.9579,5.8561,5.6981,5.5709,5.4383,5.3075,5.1789,5.149,5.1515,5.1339,5.1239,5.1038,5.0528,5.0017,4.959,4.959,4.9556,4.938,4.9003,4.8777,4.8526,4.8109,4.7958,4.7691,4.7074,4.5643,4.4202,4.3039,4.1656,4.0939,4.1378,4.2082,4.2738,4.3201,4.4141,4.4378,4.3553,4.4834,4.5688,4.5849,4.733,4.8193,4.8269,4.8761,4.9807,5.1414,5.1339,5.1339,5.1414,5.1339,5.1256,5.118,5.0612,5.0172,4.99,4.9673,4.9187,4.8591,4.8901,4.8763,4.8371,4.8371,4.8412,4.8379,4.8042,4.7927,4.7878,5.9099,5.9189,5.9219,5.9129,5.9189,5.9219,5.9129,5.9099,5.8906,5.8338,5.8278,5.8008,5.7334,5.7154,5.7064,5.6958,5.6778,5.6196,5.5119,5.4952,5.5251,5.6013,5.5953,5.6119,5.6645,5.6239,5.5983,5.5893,5.5431,5.5371,5.5743,5.5371,5.5671,5.6466,5.6192,5.6269,5.6645,5.6855,5.6958,5.7017,5.7679,5.7935,5.8068,5.9189,5.9533,5.9422,5.9809,5.9821,5.9594,5.9423,5.8398,5.6979,5.5709,5.4634,5.364,5.2354,5.2285,5.246,5.1565,5.0921,5.0503,5.0427,5.0017,4.959,4.959,4.9254,4.9028,4.9405,4.8711,4.8159,4.8576,4.8234,4.7566,4.6587,4.5407,4.4066,4.2551,4.2098,4.1973,4.2034,4.3338,4.4252,4.4353,4.497,4.5472,4.5773,4.6024,4.6577,4.7481,4.8686,4.954,5.0001,5.0101,5.0745,5.1975,5.154,5.154,5.1975,5.1515,5.1122,5.0771,5.024,4.9958,4.9867,4.9562,4.9009,4.8362,4.8582,4.8183,4.7434,4.7434,4.7522,4.7646,4.7597,4.758,4.7563,5.9561,5.9937,6.0057,5.9697,5.9937,5.9923,5.9219,5.9099,5.9009,5.8667,5.8637,5.8517,5.8201,5.7859,5.762,5.762,5.7304,5.6855,5.6269,5.6239,5.6209,5.6192,5.6509,5.6808,5.7107,5.6838,5.6688,5.6688,5.6359,5.6389,5.6688,5.6359,5.6526,5.7107,5.6808,5.6838,5.7124,5.7483,5.762,5.7679,5.8367,5.8846,5.9249,5.9861,6.0243,6.0422,6.0622,6.06,6.0427,6.0339,5.8886,5.6981,5.6398,5.4914,5.33,5.2698,5.2711,5.2787,5.2285,5.1749,5.1247,5.0971,5.0444,4.9967,4.9665,4.9405,4.9305,4.954,4.9188,4.8887,4.9179,4.8777,4.8008,4.6913,4.5282,4.3815,4.2788,4.2096,4.2158,4.3338,4.4443,4.5422,4.6286,4.6627,4.7029,4.7597,4.7647,4.8109,4.9197,4.9766,5.0277,5.087,5.1456,5.1858,5.2101,5.2151,5.2302,5.2536,5.2285,5.2049,5.1871,5.1322,5.0988,5.0795,5.019,4.9545,4.8878,4.8861,4.8501,4.793,4.771,4.7807,4.805,4.7646,4.7745,4.805,5.9771,6.0296,6.0462,5.9951,6.0296,6.0282,5.9249,5.9099,5.9099,5.9099,5.9099,5.9099,5.9099,5.8637,5.8324,5.8324,5.7992,5.7663,5.7363,5.7603,5.7466,5.6671,5.7214,5.7573,5.7573,5.7423,5.7334,5.7334,5.7184,5.7184,5.7334,5.7184,5.7287,5.7543,5.7393,5.7423,5.7603,5.8098,5.8324,5.8397,5.9069,5.9651,6.013,6.0459,6.0823,6.125,6.1389,6.1364,6.1175,6.0915,5.9108,5.6957,5.6618,5.4861,5.2895,5.2895,5.2795,5.2694,5.2694,5.241,5.195,5.1264,5.0845,5.0452,4.9916,4.9891,5.0008,5.0008,4.9866,4.9791,4.9791,4.9254,4.8426,4.7274,4.5457,4.3966,4.3277,4.2646,4.2922,4.4604,4.5547,4.6527,4.7767,4.8134,4.8485,4.8953,4.9245,4.9732,5.0569,5.0728,5.1055,5.1649,5.2335,5.2586,5.2285,5.2686,5.2895,5.2895,5.2895,5.2895,5.2887,5.246,5.2073,5.1678,5.1206,5.0456,4.9636,4.9618,4.933,4.8846,4.842,4.8485,4.8698,4.7992,4.8067,4.8379,5.9159,5.9219,5.9249,5.9189,5.9205,5.9205,5.9129,5.9099,5.9099,5.9099,5.9099,5.9099,5.9099,5.9069,5.9039,5.9039,5.9561,5.9338,5.8128,5.9189,5.9308,5.8038,5.8607,5.8949,5.8949,5.8338,5.8038,5.8038,5.7393,5.7423,5.7995,5.7393,5.7752,5.8919,5.8308,5.8367,5.8949,5.9009,5.9039,5.9085,5.9771,6.007,6.025,6.1477,6.1801,6.1633,6.2259,6.2101,6.1362,6.0141,5.8517,5.678,5.5558,5.4123,5.2895,5.2895,5.2561,5.2176,5.2176,5.2126,5.185,5.0728,5.0845,5.1088,5.0477,5.077,5.1163,5.1163,5.072,5.0352,5.0352,4.9506,4.8426,4.7274,4.6125,4.4985,4.389,4.4583,4.5261,4.5412,4.6778,4.7782,4.7892,4.8862,4.949,4.9556,5.051,5.1138,5.1239,5.1699,5.2209,5.2762,5.2385,5.2385,5.2837,5.287,5.2895,5.2895,5.2895,5.2895,5.2895,5.2845,5.2544,5.2092,5.2519,5.1799,5.0362,5.0913,5.0614,4.9752,4.9222,4.9141,4.9272,4.8723,4.8313,4.8026,5.9651,5.9727,5.9727,5.9727,5.9727,5.9578,5.9159,5.9099,5.9099,5.9099,5.9099,5.9099,5.9099,5.9458,5.9727,5.9727,6.0326,6.0492,5.9969,6.0432,6.0116,5.8786,5.8966,5.9099,5.9099,5.8846,5.8726,5.8726,5.8471,5.8471,5.8697,5.8471,5.862,5.9099,5.8816,5.8846,5.9099,5.9099,5.9099,5.9159,5.9831,6.034,6.0835,6.1762,6.2259,6.2533,6.2584,6.2454,6.2087,6.1166,5.9282,5.7188,5.6471,5.4694,5.282,5.2511,5.226,5.2026,5.1674,5.1599,5.1498,5.1071,5.1138,5.1239,5.0996,5.1138,5.1289,5.1289,5.1113,5.0845,5.0477,4.9791,4.9362,4.9604,4.7586,4.6321,4.7212,4.6567,4.625,4.6903,4.8159,4.9088,4.9423,5.0167,5.0787,5.1122,5.1548,5.195,5.226,5.2485,5.2686,5.2895,5.2385,5.236,5.2895,5.2895,5.2895,5.2895,5.2895,5.2895,5.2895,5.2895,5.2787,5.2586,5.246,5.2034,5.1406,5.0946,5.0537,5.0164,4.9742,4.9577,4.9493,4.9199,4.906,4.8894,5.9711,5.9801,5.9801,5.9801,5.9801,5.9621,5.9189,5.9099,5.9099,5.9099,5.9279,5.9398,5.9398,5.9997,6.0416,6.0416,6.1044,6.1329,6.112,6.109,6.0581,5.9458,5.9398,5.9398,5.9398,5.9398,5.9518,5.9727,5.9727,5.9727,5.9714,5.9518,5.9518,5.9714,5.9518,5.9548,5.9714,5.9488,5.9398,5.9458,5.9921,6.0505,6.118,6.1852,6.2525,6.3064,6.2847,6.2629,6.2307,6.1405,5.9408,5.7236,5.6569,5.4647,5.2586,5.2226,5.185,5.1498,5.1122,5.0887,5.0812,5.0987,5.1289,5.1515,5.1339,5.1548,5.18,5.18,5.1666,5.1373,5.0795,5.0576,5.0636,5.1123,4.923,4.8234,4.9803,4.849,4.7666,4.8586,4.954,5.0268,5.0645,5.1197,5.1699,5.2076,5.226,5.2511,5.287,5.2895,5.2895,5.2895,5.2536,5.2536,5.2895,5.2737,5.2737,5.2895,5.2895,5.2895,5.2895,5.2895,5.2895,5.2887,5.2511,5.2277,5.2051,5.1256,5.0829,5.0637,5.0231,5.008,5.0052,4.9504,4.9462,4.9524,5.9099,5.9099,5.9099,5.9099,5.9099,5.9099,5.9099,5.9099,5.9099,5.9129,5.9681,6.01,6.01,6.0715,6.112,6.112,6.1732,6.1822,6.115,6.112,6.0835,6.013,6.01,6.01,6.01,6.01,6.0416,6.109,6.109,6.109,6.109,6.0416,6.0446,6.106,6.0386,6.0475,6.106,6.0386,6.01,6.01,6.01,6.0505,6.118,6.1852,6.2525,6.3108,6.3108,6.2658,6.1895,6.0492,5.8693,5.678,5.5426,5.3671,5.2101,5.2101,5.1281,5.0402,5.0419,5.0017,4.9741,5.0277,5.1256,5.195,5.144,5.2126,5.2895,5.2895,5.246,5.195,5.1414,5.1916,5.214,5.1359,5.0942,5.0846,5.119,5.0314,4.9832,5.0368,5.0979,5.1331,5.1314,5.1774,5.2126,5.2126,5.2611,5.2895,5.2895,5.2895,5.2895,5.2895,5.2912,5.2912,5.2895,5.236,5.236,5.2895,5.2895,5.2895,5.2895,5.2895,5.2895,5.2895,5.2895,5.2611,5.2126,5.2101,5.1774,5.1239,5.0628,5.077,5.113,4.9658,4.9453,4.971,5.9099,5.9099,5.9099,5.9099,5.9099,5.9099,5.9099,5.9099,5.9279,5.9741,5.998,6.028,6.0731,6.1403,6.1792,6.1792,6.2405,6.2704,6.2525,6.2495,6.2195,6.1523,6.1044,6.0805,6.0805,6.0805,6.088,6.109,6.109,6.109,6.109,6.088,6.091,6.109,6.088,6.091,6.106,6.0386,6.01,6.01,6.01,6.022,6.0505,6.1687,6.2211,6.2465,6.2928,6.2978,6.2658,6.1762,6.043,5.8563,5.5373,5.3337,5.1933,5.113,5.0971,5.1152,5.1721,5.1328,5.0837,5.0987,5.0971,5.1155,5.2184,5.2385,5.2435,5.2837,5.246,5.2051,5.19,5.2497,5.3005,5.2897,5.2681,5.2949,5.4175,5.3291,5.25,5.2434,5.313,5.3148,5.1984,5.2335,5.2661,5.2661,5.2795,5.2895,5.2895,5.2895,5.2895,5.2895,5.2536,5.2511,5.2895,5.2737,5.2737,5.2895,5.2895,5.2895,5.2895,5.2895,5.2895,5.2895,5.2895,5.2795,5.2636,5.2277,5.2,5.18,5.1264,5.087,5.0628,5.0162,4.9724,4.9247,5.9099,5.9099,5.9099,5.9099,5.9099,5.9099,5.9099,5.9099,5.9338,6.001,6.0326,6.0655,6.106,6.1942,6.2405,6.2121,6.2704,6.3108,6.3108,6.3108,6.2914,6.2525,6.2121,6.1762,6.1479,6.1479,6.1642,6.1882,6.1882,6.1882,6.1882,6.1598,6.1642,6.1882,6.1613,6.1642,6.1822,6.0894,6.0505,6.0446,5.9907,5.9861,6.019,6.0998,6.1642,6.2151,6.2555,6.2797,6.2818,6.2278,6.0627,5.8296,5.5387,5.3363,5.2077,5.1927,5.1594,5.1529,5.2546,5.2063,5.1339,5.1548,5.1348,5.1281,5.2084,5.2176,5.2201,5.2511,5.2176,5.1984,5.2651,5.3591,5.4498,5.5302,5.5235,5.5547,5.6864,5.5242,5.3975,5.4114,5.3996,5.3524,5.2512,5.2711,5.2895,5.2895,5.2895,5.2895,5.2895,5.2895,5.2895,5.2895,5.2385,5.236,5.2895,5.2686,5.2686,5.2895,5.2895,5.2895,5.2895,5.2895,5.2895,5.2895,5.2895,5.2895,5.287,5.2561,5.2285,5.2076,5.1724,5.1272,5.0728,5.033,4.9947,4.9501,5.9099,5.9099,5.9099,5.9099,5.9099,5.9099,5.9099,5.9099,5.9368,6.01,6.0715,6.115,6.1269,6.2375,6.2854,6.2255,6.2734,6.3108,6.3108,6.3033,6.3048,6.3108,6.3048,6.2734,6.2181,6.2181,6.2495,6.3108,6.3108,6.3108,6.3108,6.2495,6.2525,6.3063,6.2465,6.2495,6.2928,6.1642,6.106,6.088,5.9638,5.9458,6.001,6.007,6.0848,6.1942,6.2076,6.2294,6.2482,6.2057,5.9777,5.6876,5.5396,5.3769,5.2631,5.3663,5.2836,5.1879,5.3156,5.2495,5.1574,5.2144,5.2185,5.1975,5.149,5.1699,5.2026,5.2026,5.1758,5.1984,5.3591,5.5039,5.6476,5.7906,5.8054,5.8223,5.8901,5.6337,5.4665,5.537,5.4045,5.3009,5.2912,5.2895,5.2895,5.2895,5.2895,5.2895,5.2895,5.2895,5.2887,5.2837,5.241,5.236,5.2744,5.236,5.241,5.2895,5.2895,5.2895,5.2895,5.2895,5.2895,5.2895,5.2895,5.2895,5.2895,5.2895,5.2611,5.2176,5.2126,5.1774,5.1205,5.024,5.0049,5.0022,5.9099,5.9099,5.9099,5.9099,5.9099,5.9099,5.9099,5.9099,5.9548,6.0745,6.1,6.1479,6.2555,6.2928,6.3048,6.2884,6.3018,6.3108,6.3108,6.2614,6.2555,6.3078,6.2614,6.2495,6.2854,6.2884,6.2944,6.3108,6.3108,6.3108,6.3108,6.2944,6.2944,6.3108,6.2944,6.2674,6.2241,6.1449,6.0805,6.025,5.9428,5.9189,5.9368,5.9891,6.028,6.0669,6.1702,6.2138,6.2031,6.0844,5.9465,5.7793,5.5138,5.4568,5.4684,5.344,5.3462,5.4058,5.4948,5.388,5.2733,5.3493,5.2875,5.2076,5.195,5.1674,5.1465,5.1465,5.2429,5.3493,5.4268,5.6624,5.8266,5.7739,5.8692,5.9235,5.8423,5.7276,5.6364,5.5986,5.4949,5.3875,5.2999,5.2895,5.2895,5.2895,5.2895,5.2895,5.2895,5.2895,5.2711,5.2302,5.2561,5.2385,5.1649,5.236,5.277,5.2895,5.2895,5.2895,5.2895,5.2895,5.2895,5.2895,5.2895,5.2895,5.2895,5.2895,5.2837,5.2686,5.226,5.1774,5.1205,5.024,4.9504,4.8862,5.9099,5.9099,5.9099,5.9099,5.9099,5.9219,5.9518,6.0049,6.0651,6.1473,6.1769,6.1968,6.2132,6.2151,6.2271,6.2614,6.2928,6.3108,6.3108,6.2764,6.2734,6.3063,6.2764,6.2734,6.3108,6.3108,6.3108,6.3108,6.3108,6.3108,6.3108,6.3108,6.3108,6.3108,6.2764,6.2435,6.2032,6.1044,6.0416,6.004,5.9368,5.9099,5.9129,5.9488,5.9831,6.0176,6.0755,6.127,6.1578,6.0955,6.0091,5.8945,5.7063,5.6624,5.6718,5.6341,5.5769,5.5471,5.6317,5.4909,5.3248,5.3469,5.2793,5.2026,5.1774,5.1272,5.1169,5.2285,5.2975,5.4164,5.6573,5.834,5.9549,5.9876,6.0672,6.0845,5.9731,5.8063,5.6808,5.6396,5.4585,5.3169,5.2588,5.2762,5.2795,5.2536,5.2762,5.2895,5.2895,5.2895,5.2787,5.2485,5.2511,5.236,5.2076,5.2109,5.2385,5.2895,5.2636,5.2661,5.2895,5.2636,5.2661,5.2895,5.2895,5.2895,5.2895,5.2895,5.2762,5.2511,5.2485,5.2,5.1247,5.0763,4.9727,4.8576,5.9099,5.9099,5.9099,5.9099,5.9261,5.9546,6.0131,6.1168,6.1915,6.2015,6.2381,6.2238,6.1216,6.121,6.1553,6.2211,6.2764,6.3108,6.3108,6.2988,6.2988,6.3093,6.2988,6.2974,6.3108,6.3108,6.3108,6.3108,6.3108,6.3108,6.3108,6.3108,6.3108,6.3063,6.2405,6.2032,6.1852,6.0609,6.004,5.9891,5.9308,5.9099,5.9099,5.9099,5.9431,5.9854,5.9795,6.036,6.1154,6.1095,6.0633,5.9938,5.9024,5.8689,5.8778,5.9653,5.8221,5.6499,5.7216,5.5452,5.3299,5.2855,5.236,5.1825,5.1264,5.0926,5.1319,5.3391,5.3872,5.5091,5.8969,6.0029,6.0793,6.2365,6.2644,6.2231,6.0926,5.8375,5.6499,5.6179,5.3779,5.2101,5.2101,5.2511,5.2586,5.2126,5.2611,5.2895,5.2895,5.2895,5.2812,5.2636,5.2285,5.2209,5.2485,5.1774,5.1825,5.2611,5.2277,5.2335,5.2762,5.2385,5.2435,5.2787,5.2845,5.2895,5.2895,5.2795,5.2561,5.226,5.2511,5.2151,5.1414,5.1147,5.0141,4.8895,5.9099,5.9099,5.9099,5.9099,5.9855,6.0511,6.0603,6.1525,6.211,6.1814,6.18,6.1651,6.1156,6.1613,6.2241,6.2928,6.3048,6.3108,6.3108,6.2555,6.2495,6.3063,6.2555,6.2525,6.3108,6.3108,6.3108,6.3108,6.3108,6.3108,6.3108,6.3108,6.3108,6.3063,6.2405,6.1792,6.118,6.0416,5.9771,5.9219,5.9129,5.9099,5.9099,5.9099,5.901,5.8981,5.9754,6.0512,6.09,5.9423,5.964,6.0134,5.7969,5.906,6.0911,5.9881,5.8682,5.7641,5.7197,5.5086,5.2855,5.2327,5.18,5.1264,5.067,5.1372,5.2452,5.3556,5.5835,5.8028,5.9457,6.1307,6.2641,6.2585,6.2847,6.2085,5.9356,5.7449,5.585,5.45,5.3025,5.2101,5.2101,5.2176,5.2176,5.2126,5.2611,5.2895,5.2895,5.2895,5.246,5.1565,5.19,5.1657,5.0754,5.1557,5.1825,5.1515,5.1925,5.2151,5.2226,5.2611,5.2586,5.2234,5.2711,5.2895,5.2845,5.2385,5.2435,5.2711,5.185,5.1699,5.1841,5.0564,5.0024,4.9812,5.9099,5.958,6.0,6.0,6.0877,6.1727,6.2108,6.2902,6.3191,6.2377,6.2614,6.2412,6.1216,6.1702,6.2211,6.2525,6.2884,6.3108,6.3108,6.2824,6.2794,6.3108,6.2824,6.2794,6.3108,6.3108,6.3108,6.3108,6.3108,6.3108,6.3108,6.3108,6.3108,6.3063,6.2405,6.1942,6.1613,6.0954,6.0505,6.0222,6.0222,5.9997,5.9654,5.9503,5.921,5.9026,5.982,6.0169,6.0289,6.0036,6.0619,6.1247,6.0165,6.1043,6.2313,6.1688,5.9976,5.8186,5.7689,5.5452,5.3061,5.2302,5.1699,5.1463,5.2067,5.2749,5.3493,5.4445,5.6396,5.8581,6.0646,6.1871,6.2631,6.2846,6.238,6.1261,5.9164,5.7027,5.5018,5.3157,5.243,5.2101,5.2101,5.2101,5.2101,5.2101,5.2611,5.2895,5.2895,5.2895,5.2686,5.2209,5.2126,5.1875,5.1356,5.1548,5.154,5.1289,5.154,5.18,5.2101,5.2026,5.2184,5.2536,5.2485,5.246,5.2435,5.2201,5.1858,5.1481,5.1348,5.1222,5.1047,5.0215,4.976,4.9521]}]]